GFSGL_850_thetae_000.txt.gz
Theta_e
302 303 303 301 299 298 299 299 299 297 296 296 296 296 296 295 293 291 292 291 291 290 290 289 289 288 288 288 288 288 288 288 289 289 289 289 289 290 290 290 291 292 292
304 303 301 299 298 299 298 297 296 295 295 294 295 295 292 292 291 290 290 291 290 289 289 287 287 287 287 287 287 288 288 288 289 289 289 289 289 290 290 290 291 289 290
303 300 299 297 298 296 296 295 295 294 294 293 294 293 292 291 291 291 291 290 288 287 286 286 286 287 287 287 287 287 287 287 287 287 287 288 288 288 288 289 289 289 289
300 298 297 297 297 294 294 294 294 293 294 294 294 292 292 291 290 290 289 287 287 286 286 286 286 287 286 286 286 286 286 286 286 286 286 286 286 286 286 286 287 287 287
298 297 297 297 296 295 294 294 293 293 294 293 292 292 291 290 289 287 286 286 286 285 285 285 285 284 284 284 283 284 283 283 284 284 285 285 285 285 285 285 285 285 286
298 298 296 295 295 295 293 292 292 291 291 291 290 289 289 288 286 286 285 285 285 285 284 284 283 283 284 283 283 283 283 283 283 283 283 284 284 284 284 284 284 285 285
297 295 292 292 292 291 290 290 290 290 289 288 288 287 286 285 285 285 285 284 284 283 283 282 282 283 283 282 282 283 283 283 283 283 283 284 284 284 284 284 284 284 284
296 294 292 292 290 290 288 287 287 286 286 286 286 285 285 285 284 284 284 283 282 282 282 282 282 283 283 282 281 282 282 282 283 283 283 283 283 284 284 284 284 284 284
293 292 291 290 289 288 286 286 286 286 285 285 284 284 284 284 283 282 282 281 281 281 282 283 282 282 282 282 282 282 282 282 283 283 283 283 283 283 284 284 284 284 284
292 292 290 288 287 286 286 285 285 285 284 284 284 283 282 282 281 281 281 280 281 281 282 282 282 283 282 282 282 282 282 283 283 284 284 284 283 283 284 284 284 284 284
292 290 288 286 286 285 285 285 284 284 284 283 282 282 281 281 280 280 280 280 280 281 281 282 282 282 282 281 281 282 282 282 283 284 284 284 283 283 284 284 284 284 284
290 288 287 286 286 286 285 285 284 284 283 282 282 282 281 280 279 280 280 280 281 281 282 282 282 282 281 280 280 281 281 282 282 283 283 284 284 284 284 284 284 284 284
289 287 286 287 286 286 285 285 284 284 283 282 281 280 280 279 279 280 280 280 280 281 282 282 282 281 280 280 280 281 282 283 283 284 284 285 285 285 285 284 284 284 284
287 287 287 287 287 286 286 285 284 283 281 280 279 279 278 278 279 279 279 279 280 281 281 281 281 280 279 280 281 282 283 283 284 285 285 286 285 285 284 284 284 284 285
287 287 287 287 287 286 285 285 283 282 280 279 279 278 277 277 278 278 279 279 280 280 280 281 280 279 279 280 280 281 282 283 284 285 286 286 286 285 285 285 284 284 285
288 287 287 287 287 286 285 284 283 281 280 279 278 277 277 277 277 277 278 279 279 280 280 280 279 278 278 278 279 280 282 283 284 285 286 286 286 286 286 285 285 284 284
287 288 288 288 286 285 284 282 281 281 279 278 277 277 277 277 277 278 279 279 279 279 279 279 278 278 278 278 278 278 279 281 282 284 285 285 286 286 286 286 286 286 286
287 288 287 287 285 284 283 282 280 279 278 278 277 277 277 277 277 277 278 279 279 279 279 278 278 278 278 278 278 278 279 280 281 282 284 285 285 285 286 286 286 286 286
288 287 286 285 284 283 282 280 279 278 278 277 277 276 277 277 277 277 277 278 278 278 278 278 278 278 278 278 278 278 278 278 279 280 282 283 284 284 285 285 285 285 285
286 286 285 284 283 282 281 280 279 278 278 277 276 276 276 276 277 277 277 277 277 277 277 277 277 277 278 278 278 278 278 278 279 279 280 281 282 282 283 283 283 284 284
286 286 285 284 283 282 280 280 279 278 277 277 276 275 275 275 275 275 276 276 276 277 277 277 277 277 277 277 277 277 278 278 278 278 279 279 280 281 281 282 282 282 282
285 285 284 284 283 281 280 279 278 277 277 276 275 275 275 275 275 275 275 275 276 275 274 275 275 276 276 276 276 276 276 277 278 278 278 278 278 279 280 280 280 281 281
284 284 283 283 282 281 280 279 278 277 277 276 275 274 274 274 274 274 275 274 273 272 273 273 274 275 275 275 275 276 276 276 276 277 278 278 278 278 279 279 279 279 279
283 283 282 282 281 281 280 279 278 277 276 276 275 274 274 274 274 274 274 273 272 272 273 273 273 274 274 274 275 275 275 275 275 275 276 277 278 278 278 278 279 278 278
283 282 282 281 281 281 280 279 279 278 277 276 275 274 275 275 275 275 274 272 272 272 273 273 273 273 273 274 274 274 274 274 274 274 275 275 276 277 277 277 277 277 277
282 282 281 281 281 281 281 280 279 278 277 276 275 274 274 273 274 275 275 275 273 272 273 273 273 273 273 274 274 274 274 274 274 274 274 274 274 274 274 275 275 276 276

GFSGL_850_thetae_003.txt.gz
Theta_e
305 305 302 300 298 297 297 297 297 297 296 294 294 293 294 295 296 292 291 291 290 290 290 289 289 289 288 289 289 289 289 290 290 290 290 291 291 291 291 291 292 291 292
304 301 299 298 297 297 297 296 296 296 293 293 293 293 294 294 291 291 291 291 290 290 289 287 286 286 286 286 287 288 289 289 289 289 290 290 290 290 291 291 292 292 292
300 298 298 297 297 297 295 295 294 294 294 293 294 293 292 292 291 291 289 289 289 288 287 286 286 286 286 286 287 287 287 287 287 288 288 288 289 289 289 289 290 290 290
298 297 297 298 296 295 295 294 293 293 293 293 292 291 291 292 291 289 289 289 287 286 286 285 285 285 285 285 285 285 285 285 286 286 286 287 287 287 288 288 288 289 289
296 297 297 296 295 296 294 293 291 290 289 290 290 290 290 289 288 287 286 286 285 285 285 285 284 284 284 283 283 284 285 286 286 286 286 286 287 287 287 287 288 288 288
296 296 295 294 292 291 290 289 288 287 287 287 287 287 287 286 285 285 285 285 285 284 284 284 283 282 282 283 283 283 283 284 285 285 285 285 286 286 286 286 286 286 287
294 294 292 291 290 290 289 288 286 286 285 285 285 285 285 284 284 284 284 284 283 283 282 282 282 282 282 282 282 282 283 283 283 283 284 285 285 285 285 285 285 286 286
293 292 292 291 289 288 287 286 285 285 285 285 284 284 284 283 283 283 282 282 282 281 281 281 282 282 282 282 282 282 283 283 283 283 283 284 284 284 284 285 285 285 285
292 292 292 290 288 286 286 286 285 285 285 284 284 283 282 282 282 281 281 281 281 280 281 281 281 281 281 282 282 282 283 283 283 283 283 283 284 283 283 284 284 285 285
292 292 290 288 286 287 286 286 285 285 284 284 283 282 282 281 281 280 280 280 280 280 281 281 281 282 282 282 282 282 282 283 283 284 284 284 284 284 284 283 283 284 285
291 291 289 287 287 286 286 286 285 285 284 283 283 282 281 280 280 279 279 279 280 280 281 281 282 282 282 281 281 281 281 280 281 282 283 284 284 284 284 284 284 284 285
291 290 288 287 286 287 287 286 286 285 284 283 282 281 279 279 279 279 279 279 279 280 281 282 282 282 281 281 280 280 280 281 281 282 282 283 284 284 284 284 284 284 284
290 289 287 286 286 287 287 286 285 284 283 281 280 279 279 278 278 278 279 279 279 280 282 281 281 281 280 279 280 280 281 282 282 282 282 284 284 285 285 285 285 284 284
289 287 287 287 287 287 287 285 284 283 281 280 279 278 278 278 277 278 278 278 279 280 280 280 280 280 279 279 279 280 281 281 282 283 284 285 285 285 285 285 285 285 285
289 288 287 287 287 287 286 284 283 282 280 279 278 277 277 277 277 277 278 278 279 279 279 279 279 279 279 278 277 279 280 282 282 283 284 285 285 286 285 285 285 285 285
289 288 287 287 287 286 284 283 282 281 279 278 277 277 276 276 276 277 278 278 278 279 279 278 278 278 278 277 276 277 279 281 282 283 284 285 285 286 286 286 285 285 285
288 287 287 287 286 285 284 283 281 280 279 278 277 276 276 275 276 277 278 278 278 278 278 278 278 278 277 276 277 277 278 279 281 282 283 284 285 286 286 286 286 285 285
287 287 287 286 285 284 283 282 280 279 278 278 277 276 276 276 276 277 277 278 278 278 277 277 277 277 277 277 277 278 278 279 280 281 282 283 284 285 285 285 286 285 285
286 286 286 285 284 284 283 281 280 279 278 277 277 276 275 276 276 276 276 276 276 276 276 276 277 277 276 276 277 277 278 278 279 279 280 281 282 283 284 284 284 285 285
285 286 285 285 284 283 282 281 280 278 277 277 276 275 275 275 276 275 275 275 275 276 276 276 276 276 276 275 275 276 278 278 279 279 279 280 281 281 282 282 283 283 284
285 285 285 284 283 282 281 280 279 278 277 276 275 275 275 275 274 274 274 274 274 273 273 274 274 275 275 275 275 275 276 277 278 278 278 278 279 280 281 281 281 281 282
283 283 284 283 282 281 281 280 279 278 277 276 275 275 275 275 274 274 274 273 272 272 272 272 273 274 274 275 275 275 275 275 277 278 278 278 279 279 279 280 280 280 280
283 283 283 281 282 281 280 280 280 278 277 276 275 275 275 275 274 274 273 272 272 272 272 272 272 273 273 274 274 275 275 275 275 276 277 278 278 279 279 279 279 279 279
282 282 282 282 281 281 281 280 280 279 278 277 276 275 275 275 275 274 274 273 272 272 272 272 272 273 273 273 273 274 274 274 275 275 275 276 277 278 278 278 278 278 278
282 282 282 281 281 281 281 281 280 280 278 277 276 275 274 274 275 275 275 275 274 272 272 272 272 272 273 273 273 273 273 274 274 274 274 274 275 275 276 276 277 277 277
282 282 281 281 281 281 282 282 281 280 279 278 277 275 274 274 273 273 273 274 274 274 272 272 272 272 272 273 273 273 273 273 273 274 274 274 274 274 274 274 275 275 276

GFSGL_850_thetae_006.txt.gz
Theta_e
305 303 302 300 299 298 298 297 297 297 297 297 296 296 296 295 294 294 293 293 293 293 292 292 291 291 291 291 291 291 291 291 291 291 292 292 292 293 293 293 293 293 293
302 301 301 299 298 298 298 297 297 297 297 296 295 295 294 294 293 293 293 292 292 291 291 291 290 289 289 289 290 290 290 290 290 291 291 291 291 292 292 292 292 292 293
301 300 299 299 298 297 297 296 296 295 295 294 294 294 293 293 293 292 291 290 291 291 290 289 289 289 289 289 289 289 289 289 289 289 289 290 290 290 291 291 291 292 292
299 299 298 298 297 294 294 294 294 293 293 293 292 292 291 290 289 289 289 289 289 288 288 288 287 287 287 287 287 287 287 287 287 288 288 288 289 289 289 290 290 291 291
299 297 296 295 294 294 293 292 291 290 289 288 288 288 288 288 287 287 287 287 288 287 287 287 287 286 285 284 284 285 285 286 287 288 288 289 289 289 289 290 290 290 290
297 295 294 294 293 292 291 290 289 288 288 288 287 287 287 287 286 285 284 285 286 286 286 286 286 285 285 284 283 283 283 285 286 287 287 287 288 288 288 288 288 288 288
296 294 294 294 291 290 289 288 288 288 287 287 287 287 286 286 285 284 283 283 284 284 285 285 284 284 284 284 285 284 283 283 283 283 284 285 286 287 287 287 288 287 287
295 294 294 292 290 289 288 288 287 287 287 286 286 286 285 285 283 283 282 282 283 284 284 284 284 284 284 284 283 283 283 284 284 284 284 285 285 285 286 286 287 287 287
295 294 293 291 290 288 288 287 287 287 286 286 285 285 285 284 283 281 280 281 282 283 283 283 283 283 283 283 282 283 283 284 284 285 284 283 283 284 284 285 286 286 286
293 293 292 290 289 288 288 287 287 287 286 286 285 284 283 282 281 280 279 280 280 281 281 282 282 282 282 282 282 282 283 283 284 284 285 285 285 284 284 284 285 285 286
293 292 291 290 288 288 287 287 287 286 286 284 283 282 282 282 280 280 279 279 279 280 281 282 283 283 283 282 282 281 281 281 281 281 282 283 284 285 286 286 285 285 285
293 292 291 289 288 288 288 287 287 286 285 284 283 283 282 281 281 280 279 279 279 280 280 282 283 282 281 281 280 280 280 281 281 282 282 283 284 285 286 286 286 286 285
292 291 290 289 288 288 288 287 286 286 284 283 283 282 281 281 280 279 279 279 279 279 281 281 281 281 280 280 279 279 280 281 281 282 283 284 284 285 286 286 286 286 286
291 290 290 289 288 288 287 287 286 285 283 282 282 281 280 280 279 278 278 278 279 279 279 281 280 280 279 279 279 279 279 280 281 281 282 283 285 285 286 286 286 286 286
289 289 289 288 288 288 287 285 284 283 281 280 280 279 279 278 277 277 277 277 278 278 279 279 279 279 279 279 279 279 279 279 280 280 282 283 284 285 286 286 286 286 286
288 288 288 288 288 286 286 285 284 282 280 278 278 277 276 276 276 276 277 278 278 278 278 278 278 278 277 278 278 278 278 278 279 280 281 282 283 285 285 286 286 286 286
287 287 287 287 286 286 285 284 283 282 281 279 278 276 275 275 275 277 277 277 277 278 277 277 277 277 277 277 277 277 277 277 278 279 280 282 283 284 285 286 286 286 286
286 286 286 286 285 284 284 283 282 281 281 280 278 276 275 275 275 276 277 277 277 277 277 276 276 275 275 276 276 275 277 277 277 278 279 280 282 283 283 284 284 285 286
285 285 286 285 284 284 283 282 282 281 281 280 278 277 275 274 274 275 276 275 275 275 276 275 274 274 274 274 274 275 276 276 277 278 278 279 281 281 281 282 283 284 284
284 285 285 284 283 283 282 282 281 281 280 279 278 276 275 275 275 274 273 273 273 272 273 273 273 273 273 273 274 274 276 276 276 277 277 278 279 280 280 281 281 282 282
284 284 284 284 283 282 281 281 280 280 279 279 278 276 276 274 274 273 273 272 272 272 272 272 272 273 273 273 273 274 275 275 275 277 277 277 278 279 279 280 280 281 281
284 283 283 283 282 282 281 280 280 279 279 278 278 276 276 274 274 273 273 273 272 272 272 272 272 273 274 274 274 273 273 274 274 276 276 277 278 278 279 279 280 280 280
283 283 283 283 282 282 282 281 280 279 279 278 277 276 275 275 274 274 274 274 272 272 272 272 272 272 273 273 273 274 274 274 275 275 275 276 277 277 278 279 278 279 279
283 282 282 282 282 282 281 281 280 280 279 278 278 277 276 275 275 275 275 275 275 273 272 272 272 272 272 273 273 273 273 274 274 274 274 274 275 276 276 277 278 277 278
282 282 283 282 282 282 282 281 281 280 279 279 278 277 276 274 274 274 274 276 276 275 273 273 272 272 272 272 272 273 273 273 273 274 274 274 274 274 275 275 276 276 276
282 282 282 282 282 281 282 282 281 281 280 279 278 277 276 275 274 274 274 274 274 274 274 273 273 273 273 272 272 272 273 273 273 273 273 273 273 274 274 274 274 275 275

GFSGL_850_thetae_009.txt.gz
Theta_e
307 305 304 303 301 300 299 299 299 298 298 297 297 296 296 296 295 295 294 294 295 294 294 294 293 293 293 292 292 292 292 293 293 293 293 293 293 293 294 294 294 294 294
304 303 302 301 300 300 299 297 296 297 297 296 296 295 295 295 294 294 293 293 293 293 293 293 293 292 292 291 291 291 291 291 291 292 292 292 292 293 293 293 294 294 294
303 302 301 300 299 299 297 296 296 295 295 294 294 294 293 292 291 291 290 291 291 291 291 290 290 290 289 289 290 290 290 290 290 290 290 291 291 291 291 292 292 292 293
302 300 299 298 297 296 296 295 294 293 292 291 290 290 290 289 289 289 289 289 289 289 289 289 289 289 289 289 289 289 288 288 288 288 289 289 289 290 290 290 291 291 292
301 299 298 297 296 295 294 293 292 291 290 290 289 289 289 289 288 288 287 287 287 287 288 288 288 288 288 287 286 286 286 286 287 287 288 289 289 290 290 291 291 291 291
300 298 297 296 295 294 293 292 290 290 289 289 289 288 288 288 287 287 286 285 284 285 286 286 287 287 287 286 285 285 284 284 285 285 287 287 288 289 289 290 290 290 290
299 298 297 296 295 293 292 290 290 289 289 289 288 288 288 287 287 286 285 284 283 284 285 286 286 286 286 286 286 286 285 285 284 284 284 285 286 287 287 288 289 289 289
298 297 296 295 294 292 291 290 289 289 289 288 288 288 287 287 286 285 284 283 283 283 284 284 285 285 285 285 285 285 284 284 284 285 285 285 285 285 286 286 287 287 288
299 297 295 294 294 292 290 289 289 289 289 288 288 287 286 285 284 283 282 281 281 282 282 283 283 283 283 283 283 283 284 284 284 285 285 285 284 284 284 285 286 286 287
297 295 294 293 293 291 290 289 289 289 288 288 287 286 285 284 284 282 281 280 280 281 281 282 282 283 283 283 283 283 283 284 283 283 284 285 285 285 285 284 284 285 285
296 294 294 294 292 290 289 289 289 289 288 287 286 285 284 284 283 282 281 280 280 280 281 281 282 283 283 283 283 282 282 281 281 281 282 282 283 284 285 286 286 285 285
295 295 294 293 291 290 289 289 289 288 288 286 285 284 284 283 283 281 280 279 279 279 280 281 282 282 282 282 281 281 280 280 281 282 282 283 284 284 285 286 287 287 287
294 293 292 292 291 290 289 289 288 287 287 285 284 284 283 282 281 281 279 279 279 279 280 280 281 280 280 280 280 279 280 281 282 282 283 284 284 285 286 286 287 287 287
292 292 291 290 290 289 289 288 287 286 285 284 283 282 281 280 280 279 278 278 278 278 279 279 280 280 280 280 280 280 280 281 281 282 282 283 284 285 286 287 287 287 287
290 290 289 289 289 289 288 287 286 285 284 282 281 279 279 278 278 276 276 277 277 278 278 279 279 278 279 279 279 279 280 280 281 281 282 283 284 285 286 287 287 287 287
289 289 289 289 288 288 287 287 286 285 284 282 281 280 278 276 276 276 275 277 277 278 278 278 277 277 278 278 278 279 279 279 280 280 282 282 283 285 285 287 286 286 287
287 288 288 288 288 287 286 285 285 285 283 282 281 280 278 277 275 275 275 277 277 277 277 277 276 277 277 278 277 277 278 279 279 280 281 281 282 283 285 285 286 287 287
286 287 287 287 287 286 285 284 283 283 283 283 281 280 278 277 275 275 275 276 276 276 276 276 276 276 276 277 277 277 278 278 278 279 280 280 281 282 283 283 284 285 286
286 286 286 286 286 284 284 283 283 283 283 282 281 280 278 276 277 276 275 275 275 274 274 275 275 275 275 275 276 276 277 277 278 278 279 280 280 281 282 282 283 284 284
287 285 285 285 285 284 284 283 283 282 282 282 281 280 277 276 277 276 275 275 274 274 274 274 274 274 274 274 275 275 276 277 277 277 278 279 280 280 281 281 282 282 283
286 285 285 284 284 284 284 283 283 282 282 281 281 279 277 276 276 276 275 274 274 273 273 273 273 273 273 273 273 274 275 275 276 276 277 278 279 280 280 281 281 281 281
284 285 285 284 284 284 283 283 282 282 281 281 280 280 278 277 276 276 275 274 274 273 273 273 273 273 273 273 273 273 273 274 274 274 275 277 278 279 280 280 280 280 280
284 284 284 284 284 283 283 283 282 282 281 280 280 279 279 278 276 276 275 274 274 275 273 273 273 273 273 273 273 273 273 274 274 274 275 275 277 277 278 279 279 279 279
284 283 284 284 283 283 283 283 283 282 281 281 280 280 279 278 277 276 275 275 275 274 275 273 273 273 273 273 273 273 273 273 273 274 274 275 275 276 276 277 278 278 278
283 283 283 283 284 283 283 283 283 282 282 281 280 280 279 278 277 276 276 275 274 274 275 275 274 273 273 273 273 273 273 273 273 273 274 274 274 274 275 276 276 278 277
283 283 283 283 283 283 283 283 283 282 282 281 280 280 279 278 277 276 275 275 274 274 274 273 273 273 273 273 273 273 273 273 273 273 273 273 273 274 274 274 274 275 276

GFSGL_850_thetae_012.txt.gz
Theta_e
307 306 304 303 302 301 300 300 299 297 295 296 296 295 295 294 294 293 293 292 292 292 293 293 294 293 293 293 293 292 292 292 292 292 293 293 293 293 295 294 294 295 294
305 304 303 302 300 300 299 299 297 296 295 294 294 294 293 292 291 291 290 290 290 291 292 291 291 291 291 290 290 290 290 291 291 291 291 291 291 291 291 292 293 294 294
304 302 302 300 299 298 297 296 295 295 293 293 292 291 290 290 290 289 289 290 290 290 290 288 289 289 289 289 289 289 289 289 289 289 289 289 289 290 290 290 291 291 292
303 302 301 300 298 297 296 296 294 293 292 291 290 290 289 289 289 289 289 288 288 287 286 286 287 288 288 288 289 289 288 288 288 287 287 287 288 288 289 289 289 290 290
303 301 300 299 298 297 296 295 293 292 290 290 289 289 289 289 289 288 287 287 287 286 285 285 285 286 287 287 287 287 287 286 286 285 285 286 287 288 289 290 291 291 291
302 301 300 299 297 296 295 294 292 291 290 289 289 289 288 288 288 288 287 286 286 285 284 284 284 285 286 286 286 286 286 285 285 285 285 285 285 286 287 288 288 289 289
301 301 300 299 297 296 295 293 292 290 289 289 289 289 288 288 287 287 286 285 283 282 282 283 283 284 284 285 285 286 286 286 285 285 285 284 284 284 285 286 286 287 287
298 299 299 297 296 295 294 293 291 290 289 289 289 288 288 287 286 285 284 283 282 281 280 281 281 282 283 284 284 283 283 284 284 284 284 284 285 285 285 285 285 286 286
296 298 298 296 295 294 293 292 290 289 289 289 289 288 288 286 284 284 284 283 282 281 280 281 281 281 281 282 282 283 283 283 283 283 284 285 285 285 285 285 284 284 284
296 296 296 295 294 294 293 290 289 289 289 289 288 288 286 284 284 284 283 282 281 280 280 280 280 281 282 283 283 283 283 284 284 283 283 283 283 283 284 285 285 285 285
295 295 295 295 294 293 291 290 289 289 289 288 288 286 284 284 283 283 282 281 280 279 279 280 280 281 282 281 281 282 282 282 282 282 281 282 282 283 283 283 284 285 285
294 293 293 293 293 292 290 290 289 289 288 287 287 284 284 283 282 281 281 280 279 278 279 279 280 280 281 281 281 281 280 280 281 282 282 283 283 284 285 285 285 285 286
292 292 292 292 291 290 290 289 288 288 287 286 284 283 282 281 279 279 279 278 278 278 278 279 280 280 280 280 281 281 280 281 282 282 282 283 284 284 285 285 286 286 286
291 290 290 290 290 289 289 288 288 287 286 285 284 282 281 279 278 277 277 277 277 277 278 279 279 279 279 280 280 280 281 281 281 282 282 283 284 284 286 286 287 287 287
290 289 289 290 290 289 288 288 287 286 286 284 283 282 280 279 278 277 276 276 277 277 278 278 278 278 278 279 279 279 280 280 280 281 282 283 283 284 285 286 287 286 287
288 288 288 288 288 288 288 287 286 285 285 283 283 282 281 279 277 276 276 276 277 277 277 277 277 277 277 277 278 278 279 279 279 280 281 282 282 283 285 286 287 287 287
288 287 287 287 288 287 287 286 285 284 284 283 283 282 280 279 277 276 276 276 277 277 277 276 276 276 276 276 277 277 278 279 279 280 280 281 281 283 284 284 285 285 286
287 287 286 287 286 286 285 285 284 284 283 283 283 281 280 280 278 277 276 276 276 275 275 275 275 275 275 276 276 277 278 278 278 279 279 280 281 282 282 282 283 284 285
288 287 287 285 286 285 284 284 284 283 283 283 282 281 281 279 278 277 276 276 275 274 274 274 275 275 275 275 275 276 277 277 277 278 279 280 280 281 281 282 282 282 283
287 287 287 284 285 284 284 284 283 283 282 282 282 281 280 279 278 277 276 276 275 274 274 274 274 274 274 274 274 275 275 276 276 277 278 279 280 280 281 281 281 281 281
287 287 286 285 284 284 284 283 283 283 282 282 282 281 280 279 278 277 276 276 275 274 273 273 274 274 273 274 274 274 274 274 275 276 277 278 278 279 280 280 280 281 280
286 284 284 284 284 284 283 283 283 283 282 282 281 281 280 279 278 277 276 276 275 276 275 273 273 273 273 273 273 273 273 273 274 274 276 276 277 278 279 279 279 279 280
284 284 283 284 284 284 283 283 283 283 283 282 281 281 280 279 279 278 277 276 275 276 276 274 274 273 273 273 273 273 273 273 273 273 274 275 275 276 277 278 278 278 278
283 284 283 283 284 284 284 283 283 283 282 282 282 281 281 280 279 278 277 276 276 275 276 276 275 274 273 273 273 273 273 273 273 273 273 274 274 275 275 276 277 277 277
285 284 284 284 284 284 284 283 283 282 283 282 282 281 281 280 279 278 278 277 276 275 275 275 274 274 274 273 273 273 273 273 273 273 273 273 273 274 274 275 275 276 276
285 284 284 284 284 284 284 284 283 282 282 282 282 281 281 280 279 278 278 277 276 276 274 275 274 274 274 274 273 273 273 273 273 273 273 273 273 273 273 273 274 274 274

GFSGL_850_thetae_015.txt.gz
Theta_e
307 306 305 304 302 301 301 300 300 297 294 294 294 293 292 291 290 290 289 289 289 290 290 291 291 290 290 291 291 290 290 290 290 290 290 290 291 291 291 292 292 293 294
305 304 304 302 302 301 300 299 298 295 294 293 293 292 291 290 289 289 289 289 289 289 289 289 289 289 287 289 289 289 289 289 289 289 289 290 290 290 290 291 291 291 293
303 304 303 302 301 300 298 298 296 296 294 293 292 290 290 289 289 289 288 288 288 288 287 287 286 286 285 285 287 288 288 289 289 289 288 288 288 289 289 290 289 290 290
302 303 302 302 301 299 297 296 295 294 293 291 290 290 289 289 288 288 288 288 288 287 287 286 286 285 284 284 286 286 287 287 287 288 287 287 286 286 286 287 288 288 289
300 299 301 301 300 299 299 297 295 293 291 290 290 289 289 289 288 288 288 288 287 286 285 284 283 282 284 284 285 286 286 287 287 286 285 285 285 285 285 287 287 288 290
296 296 297 299 299 298 298 296 294 292 290 290 289 289 289 289 288 288 287 286 285 284 283 282 281 281 282 283 284 284 285 286 286 286 285 285 285 285 284 284 285 285 286
295 295 297 296 296 296 296 294 294 292 290 289 289 289 289 289 288 287 285 284 284 283 282 281 280 280 280 281 282 283 283 284 285 285 285 285 284 284 284 284 284 284 285
294 294 295 295 294 295 295 294 292 291 289 289 289 289 288 288 286 284 284 284 283 282 281 280 280 280 281 281 281 281 282 282 282 283 283 283 283 283 284 284 285 285 285
294 294 294 293 294 295 294 293 293 289 289 289 289 288 287 286 284 284 283 282 282 281 280 280 279 279 280 281 282 282 283 283 283 283 283 283 284 284 284 284 284 284 284
294 294 293 292 293 293 292 291 290 289 289 289 288 287 286 284 284 283 282 281 280 280 279 279 279 280 281 281 281 281 281 281 282 282 283 283 283 282 282 282 282 282 284
294 293 292 291 292 292 291 290 290 289 288 288 287 287 284 283 282 281 280 279 279 278 278 278 279 279 280 280 280 280 281 280 280 280 281 282 282 283 283 283 283 282 283
293 292 291 290 291 291 290 289 289 288 288 288 287 285 284 282 280 279 278 278 277 277 278 278 279 279 280 280 280 280 281 280 281 281 282 282 283 283 284 284 285 284 284
292 291 290 290 289 289 289 289 288 288 287 287 285 284 282 281 280 279 277 277 277 278 278 279 279 279 279 279 280 280 280 281 281 281 282 282 283 283 284 285 286 286 286
290 290 289 289 289 289 289 288 287 287 287 285 284 283 282 281 279 278 277 277 277 277 278 278 278 278 278 278 279 279 279 280 280 281 281 282 283 284 285 286 286 287 287
290 289 288 288 288 287 288 287 287 286 285 284 283 283 281 281 279 277 277 277 277 277 277 277 277 277 277 277 278 278 279 279 279 280 281 282 282 283 284 285 287 286 286
290 288 287 286 287 288 288 287 286 285 284 283 283 282 281 281 279 278 277 277 277 277 277 276 276 276 276 276 277 278 278 278 279 280 280 281 282 283 284 284 285 286 286
289 288 287 287 286 286 286 286 285 284 283 283 283 282 281 281 280 278 277 276 276 276 275 275 275 275 275 275 276 277 277 277 278 279 280 280 281 282 282 283 284 284 286
289 287 287 287 287 285 285 284 284 283 283 283 282 282 281 281 280 278 277 277 276 274 274 274 274 274 275 275 275 276 276 277 277 278 279 280 281 281 281 282 282 282 283
288 287 287 287 286 284 284 284 283 283 283 282 282 282 281 281 279 278 277 276 276 275 274 274 274 274 274 274 274 275 275 276 276 278 279 279 280 281 281 281 281 281 281
287 287 287 287 286 284 284 283 283 283 282 282 282 282 281 280 279 278 277 277 276 276 274 273 274 274 273 273 274 274 274 274 275 277 278 278 279 280 280 280 280 280 280
287 286 286 286 285 284 284 283 283 282 282 282 282 281 281 280 279 279 278 277 276 276 277 274 273 274 273 273 273 273 273 273 273 275 276 277 278 279 279 279 279 279 279
287 286 286 285 283 283 284 283 283 282 282 282 282 281 281 280 280 279 278 277 277 276 277 276 275 274 274 273 273 273 273 273 273 273 275 275 276 277 277 278 278 278 278
286 284 283 283 283 283 283 283 283 283 282 282 282 282 281 281 280 279 279 278 277 276 276 276 275 275 274 274 273 273 273 273 273 273 273 274 275 275 276 276 277 277 277
286 285 284 283 283 283 283 283 283 283 282 282 282 282 282 281 280 279 279 278 278 277 276 275 274 274 274 274 273 273 273 273 273 273 273 273 273 274 274 275 276 277 276
287 286 285 284 284 284 283 284 283 283 283 282 282 282 281 281 280 280 279 278 278 278 277 275 275 275 274 274 274 273 273 273 273 273 273 273 273 273 273 273 274 275 275
286 286 285 284 283 283 283 283 283 283 282 282 281 281 281 281 280 280 279 279 278 278 278 276 276 276 276 276 276 275 273 273 273 273 273 273 273 273 273 273 273 273 273

GFSGL_850_thetae_018.txt.gz
Theta_e
304 303 302 303 304 303 302 300 300 298 296 295 294 293 292 292 290 289 289 289 288 288 288 288 288 288 288 287 287 287 287 289 289 289 289 289 288 289 290 291 291 290 292
301 302 303 303 302 302 301 301 300 298 296 294 293 293 292 290 289 289 288 287 288 288 288 287 286 286 286 286 285 285 285 287 288 289 289 288 288 288 288 289 290 290 289
300 302 299 297 299 300 300 300 296 295 297 293 292 292 290 289 289 289 288 288 288 288 287 287 286 285 284 284 284 284 284 285 287 287 287 288 288 288 287 286 287 289 289
299 298 297 296 297 300 299 298 297 297 295 292 291 290 289 289 289 288 288 288 288 287 287 285 283 282 282 281 283 284 285 285 285 286 287 287 286 286 286 285 285 286 287
297 296 295 294 295 295 294 294 294 295 293 292 290 289 289 289 289 288 288 288 287 285 284 283 283 282 281 281 282 283 283 284 285 285 286 286 285 285 285 285 284 284 287
295 294 294 294 294 293 292 294 295 293 291 291 289 289 289 289 288 288 287 286 284 284 283 283 282 281 280 280 281 281 282 283 283 284 285 285 285 285 285 284 284 284 284
294 294 294 294 293 292 292 294 294 294 291 290 289 289 289 288 288 287 285 284 283 283 282 281 280 280 279 280 280 280 281 281 282 282 283 284 284 284 284 284 284 284 284
294 294 294 294 293 292 292 293 293 290 290 289 289 289 288 287 286 284 283 283 282 281 281 280 279 279 279 279 280 281 281 282 282 282 282 282 282 282 283 283 284 284 284
294 294 294 293 292 291 292 291 291 290 289 289 289 288 287 285 284 282 281 280 279 279 279 279 278 279 279 280 280 280 281 281 281 282 282 283 283 283 284 283 283 284 284
294 294 293 292 291 291 292 291 290 290 289 289 288 287 285 284 282 281 279 279 278 278 278 279 279 279 279 280 280 281 280 280 280 281 281 281 282 283 283 283 283 282 282
293 293 291 290 290 291 291 290 289 289 288 287 287 286 284 283 282 280 280 277 277 277 278 278 279 279 279 279 280 280 280 281 281 280 281 281 282 282 282 282 283 283 283
293 291 290 289 290 289 289 289 288 288 287 287 286 285 283 282 281 280 279 277 277 277 278 278 278 278 278 279 279 280 280 280 281 281 281 282 282 283 283 284 284 284 285
291 291 290 289 289 289 289 289 288 287 287 286 285 284 283 282 280 279 278 277 277 277 277 278 278 278 278 278 278 279 279 280 280 281 281 282 283 283 284 285 285 286 286
291 291 290 288 288 288 288 287 287 287 286 285 284 283 282 281 280 279 278 277 277 277 277 277 277 277 277 277 278 278 279 279 279 280 281 281 282 283 284 285 286 286 286
291 291 289 287 286 286 287 287 287 286 285 284 283 283 282 281 280 278 278 277 277 276 276 277 276 276 276 276 277 278 278 278 279 280 280 281 282 283 284 285 286 286 286
291 290 289 287 286 286 286 286 286 285 284 283 283 282 282 281 280 278 278 277 276 275 275 276 275 275 275 275 276 277 277 277 278 279 280 281 282 282 283 283 284 285 286
290 289 288 287 287 287 286 285 284 284 283 283 282 282 281 281 280 279 278 277 277 274 274 274 275 275 274 274 275 275 276 276 277 279 280 280 281 281 282 282 283 284 284
288 288 288 287 287 286 286 284 283 283 283 282 282 282 281 281 280 279 278 277 278 276 274 274 274 274 273 274 274 275 275 276 277 278 279 280 280 281 281 281 281 282 282
288 287 287 287 286 286 285 283 283 283 283 282 282 281 281 281 280 279 278 278 277 277 276 274 273 273 273 273 273 273 273 274 275 277 278 279 279 280 280 280 280 281 281
287 287 287 286 286 285 284 283 283 282 282 282 282 281 281 280 280 279 279 278 277 276 277 276 274 273 273 273 273 273 273 273 274 276 277 278 278 279 279 279 279 279 279
288 287 286 285 285 285 284 283 283 282 282 282 282 282 281 281 280 280 279 278 278 277 276 277 276 275 274 274 273 273 273 273 273 273 275 276 276 278 278 278 278 278 278
288 287 286 285 284 283 283 283 283 283 282 282 282 282 281 281 281 280 279 279 278 277 276 275 275 275 275 274 274 274 274 274 274 273 273 274 275 275 277 277 277 277 277
289 288 285 284 283 283 283 283 283 283 282 282 282 282 282 281 281 280 279 279 278 278 277 276 275 275 274 274 274 274 273 274 274 274 273 273 273 274 274 275 275 277 277
288 288 286 285 284 284 283 283 283 283 283 282 282 282 282 281 281 281 280 279 279 278 278 277 276 275 275 275 275 274 273 273 273 273 273 273 273 273 273 273 274 275 275
288 288 287 286 285 285 283 283 283 283 283 283 283 282 281 281 281 281 280 280 279 279 278 278 277 276 276 276 276 276 275 274 274 274 273 273 273 273 273 273 273 273 273
288 287 287 286 286 285 284 283 283 283 283 282 282 281 281 281 280 280 280 280 279 279 279 278 277 277 276 276 276 276 275 274 275 275 275 273 273 273 273 273 273 273 273

GFSGL_850_thetae_021.txt.gz
Theta_e
302 301 302 303 300 298 298 300 300 299 299 297 297 294 293 292 291 290 289 288 287 288 288 288 287 287 286 286 285 285 285 285 284 285 287 288 289 288 288 287 289 290 290
301 300 300 299 296 294 298 300 300 297 297 296 296 295 292 291 290 289 288 288 288 288 287 287 287 287 286 284 283 283 283 283 284 284 285 288 288 288 288 288 287 288 289
299 298 297 296 295 293 293 293 293 294 295 295 295 293 291 290 289 289 288 288 288 288 287 287 286 284 283 283 282 282 281 283 284 285 285 286 286 287 287 287 286 287 286
298 297 296 294 293 293 293 293 292 293 295 295 293 292 290 289 289 289 288 288 288 287 286 284 283 283 283 282 281 280 281 282 283 284 284 285 286 286 286 286 286 285 285
296 295 294 294 294 294 294 293 291 294 294 294 293 289 289 289 289 288 288 287 287 285 284 283 282 282 281 281 280 280 280 281 281 283 283 284 285 286 286 285 285 284 284
295 294 294 294 294 294 293 291 292 292 292 293 291 289 289 289 288 288 287 285 284 283 282 282 281 280 280 279 279 280 280 281 281 281 282 282 284 285 285 285 285 284 284
294 294 294 294 293 293 291 291 291 292 293 289 290 289 289 288 287 286 285 283 282 281 280 279 279 279 279 279 279 279 280 281 281 281 281 281 282 283 284 283 284 283 283
294 294 293 293 293 292 291 291 291 291 290 290 289 288 288 287 286 284 283 281 280 280 279 279 278 279 279 279 279 280 280 281 281 281 281 282 282 282 282 282 283 283 283
294 293 293 292 291 290 291 291 290 290 289 289 289 288 287 286 284 282 281 280 280 280 279 279 278 278 279 280 280 280 281 280 280 280 280 281 282 283 283 283 283 283 283
293 293 292 291 290 289 290 291 290 289 289 289 288 287 286 284 282 281 280 280 279 279 279 279 278 278 279 279 279 280 280 281 280 280 280 280 280 281 282 283 283 283 283
293 292 291 290 290 289 289 289 289 289 288 287 287 286 284 283 282 280 280 280 278 278 278 278 278 278 278 279 279 279 280 280 281 280 281 281 281 281 281 281 281 282 282
292 291 291 290 289 289 289 289 288 288 287 286 286 284 283 282 281 280 280 279 277 277 277 277 277 277 278 278 278 278 279 280 280 280 281 281 282 282 282 283 283 283 283
291 291 291 290 288 288 288 288 287 287 286 286 285 283 283 282 281 280 279 279 278 277 277 277 277 277 276 277 278 278 278 279 279 280 280 281 282 283 283 284 284 285 285
290 291 291 290 288 287 287 287 287 287 286 285 284 283 282 282 281 280 279 278 278 277 276 276 277 276 276 276 277 278 278 278 279 280 280 281 282 283 284 284 285 286 286
289 289 290 289 288 286 286 286 286 286 285 284 283 283 282 281 281 280 278 278 277 276 275 275 276 276 276 276 276 277 277 278 279 279 280 281 282 282 283 284 285 286 286
289 289 289 289 288 287 286 286 285 285 284 283 283 282 282 281 281 280 279 277 277 277 275 275 275 275 274 275 275 276 276 277 278 279 280 280 281 281 282 283 284 285 285
288 288 289 288 287 287 286 286 283 283 283 283 282 282 282 281 280 280 279 278 277 277 275 274 274 274 274 274 274 275 274 275 277 278 279 280 280 281 281 281 282 283 283
288 288 288 287 287 287 286 285 284 283 283 282 282 282 281 281 280 280 279 278 277 277 277 275 274 274 274 274 273 273 273 274 276 277 278 279 279 280 280 280 281 281 281
288 288 287 286 286 286 285 284 284 283 282 282 282 282 281 281 280 280 279 278 278 276 277 277 275 274 274 273 273 273 273 273 274 277 277 278 278 279 279 279 279 279 280
288 288 287 286 286 285 284 284 284 283 282 282 281 282 281 281 281 280 280 279 278 277 276 276 277 276 275 274 274 274 274 274 274 274 275 276 277 278 278 278 278 278 278
288 288 288 286 285 284 284 283 283 283 282 282 282 282 282 281 281 281 280 279 279 278 277 276 275 275 275 275 274 274 274 274 274 273 274 274 275 275 277 277 277 277 277
288 288 288 286 285 284 283 282 283 283 282 283 281 282 281 281 281 281 280 280 279 279 278 277 275 275 275 275 274 274 274 274 274 274 274 273 274 274 274 275 275 276 277
287 287 288 288 285 284 283 283 282 283 282 282 282 282 281 281 281 281 280 280 280 279 278 278 277 276 276 276 276 276 275 274 274 274 274 273 273 273 273 274 274 275 275
286 287 288 288 286 286 285 284 283 283 283 282 283 283 282 282 281 281 281 280 280 280 279 279 278 278 277 276 276 276 276 275 274 274 274 273 273 273 273 273 273 273 274
287 287 287 287 287 286 286 285 284 284 283 283 282 282 283 282 281 281 281 280 280 280 279 279 278 278 278 277 277 276 276 276 275 275 275 274 273 273 273 273 273 273 273
286 287 287 287 286 286 286 286 286 285 284 282 282 282 282 281 281 281 281 280 280 280 280 279 279 278 278 277 277 276 276 276 275 275 275 274 274 273 273 273 273 273 273

GFSGL_850_thetae_024.txt.gz
Theta_e
300 300 300 300 298 296 294 293 294 295 293 293 296 296 296 294 292 291 289 289 288 288 288 288 287 287 287 287 285 284 283 282 282 283 283 284 284 285 288 288 288 287 287
300 299 298 296 295 293 293 293 293 293 292 293 295 294 294 294 290 290 289 288 288 288 288 288 287 287 286 284 283 283 282 282 281 281 282 283 283 284 287 288 287 287 287
299 297 296 295 293 293 293 293 293 292 291 293 294 293 294 291 290 289 289 288 288 288 287 287 286 284 283 283 282 282 281 281 280 282 282 282 283 284 285 286 286 286 286
296 295 294 294 293 294 293 293 292 291 291 292 293 293 293 290 289 289 288 288 288 287 286 284 283 282 282 281 281 281 280 280 280 280 281 282 284 283 285 286 286 286 286
295 294 294 294 294 293 293 292 291 290 292 293 292 292 290 289 289 288 288 288 286 285 283 282 281 280 280 280 280 280 280 279 280 280 280 281 282 282 284 285 285 285 285
294 294 294 294 293 292 292 291 290 291 291 291 292 290 289 289 289 288 287 286 284 283 281 281 280 280 279 279 279 279 279 280 280 281 280 281 281 281 282 283 284 284 284
294 293 294 293 292 291 291 290 290 291 291 290 290 290 289 288 288 287 286 284 282 281 281 280 279 279 279 279 279 279 280 280 280 280 281 281 281 282 281 282 282 283 283
293 293 293 292 291 290 290 289 291 290 290 290 289 289 288 288 287 286 284 282 281 281 280 279 279 279 279 279 280 280 280 280 280 280 280 280 280 281 282 282 282 282 282
293 292 292 291 290 290 290 289 290 290 290 289 289 288 287 287 285 284 282 281 281 281 280 279 278 278 278 279 279 279 279 280 280 280 280 280 280 280 281 282 282 282 282
292 292 291 291 290 290 290 289 289 289 289 289 288 287 287 285 284 282 281 280 280 280 279 279 278 278 278 278 278 278 279 279 279 280 280 280 280 280 280 281 282 282 283
291 290 290 291 291 290 289 288 289 289 288 288 287 286 285 284 283 281 281 280 280 279 278 278 278 277 277 277 278 278 278 278 279 280 280 281 281 281 281 281 281 281 282
290 289 290 291 291 290 288 288 288 288 287 287 286 285 284 283 282 281 281 280 279 278 277 276 277 276 277 276 277 277 278 278 279 279 280 280 281 282 282 282 282 282 282
289 289 289 290 290 289 287 287 287 287 286 286 286 285 283 282 281 281 281 279 279 279 276 275 276 277 276 276 277 277 278 278 279 279 280 280 281 282 283 283 284 284 284
289 289 289 289 289 289 287 286 286 286 286 285 285 284 283 282 281 281 281 279 278 279 277 276 275 275 275 275 276 277 277 277 278 279 280 280 281 282 283 284 284 285 285
289 289 288 289 289 289 287 286 286 285 285 284 284 283 282 282 281 281 280 279 278 279 278 276 276 276 276 276 276 276 276 277 278 279 279 280 281 282 282 283 284 285 285
289 288 288 288 288 288 287 286 286 285 284 283 283 283 282 282 281 281 280 279 278 278 279 277 276 275 275 275 275 275 274 276 277 278 279 280 280 281 281 282 283 283 284
288 288 288 288 288 287 287 286 286 285 284 283 283 282 282 281 281 280 280 280 279 277 278 278 277 275 275 274 274 274 274 274 276 277 278 279 279 280 280 281 281 282 282
288 288 288 287 287 286 286 286 286 284 283 283 282 282 282 281 281 280 280 280 279 278 277 278 278 276 275 275 274 274 274 274 274 276 277 278 278 279 279 279 279 280 280
287 288 288 288 287 286 286 286 284 283 283 283 282 282 282 281 281 280 280 280 279 279 277 276 277 277 277 276 275 274 274 274 274 274 275 276 277 278 278 278 278 278 279
287 288 288 287 288 287 285 285 284 283 283 283 282 281 281 281 281 281 280 280 280 279 279 278 276 276 275 275 275 275 274 274 274 274 274 274 274 275 276 277 277 278 278
286 286 287 287 287 287 286 284 283 283 282 282 282 282 281 281 281 281 281 280 280 280 279 279 278 277 276 276 275 275 274 274 274 274 274 274 274 274 274 275 276 276 277
286 287 287 286 287 287 286 284 283 282 282 282 282 282 282 281 281 281 281 281 280 280 280 279 279 278 277 277 277 276 276 275 274 274 274 274 274 273 273 273 274 274 275
285 286 286 286 286 287 286 285 284 283 283 282 282 282 282 282 281 281 281 281 281 280 280 280 279 279 278 277 277 277 277 276 276 275 275 274 274 273 273 273 273 273 274
285 285 286 286 287 287 287 286 285 285 284 284 283 283 282 282 282 282 282 281 281 280 280 280 279 279 279 278 277 277 277 276 276 275 275 275 275 274 273 273 273 273 273
285 285 285 286 286 286 287 286 286 286 285 285 284 283 283 282 282 282 282 281 281 281 280 280 280 279 279 278 278 277 277 276 276 275 275 275 274 274 273 273 273 273 273
286 286 286 286 286 287 287 287 287 286 286 286 286 285 284 283 282 282 282 281 281 281 280 280 280 279 279 278 278 277 277 276 276 275 275 274 274 273 273 273 273 273 273

GFSGL_850_thetae_027.txt.gz
Theta_e
300 300 299 298 297 296 294 293 292 292 292 291 291 293 294 295 294 293 292 290 289 288 288 288 288 287 287 286 286 285 284 284 283 284 283 283 284 284 285 285 287 288 288
300 299 298 296 295 293 292 293 293 293 291 291 291 293 294 293 293 292 290 289 289 288 288 288 287 286 285 285 284 284 283 283 283 283 283 283 284 284 285 285 286 287 288
299 297 296 295 293 293 293 293 292 291 291 290 291 293 293 293 291 290 289 289 289 288 288 287 286 284 284 283 283 283 283 282 282 282 282 282 282 283 284 285 285 286 287
296 295 295 294 294 293 293 292 290 290 290 291 291 292 291 292 290 289 289 288 288 288 286 285 283 282 282 282 282 281 281 281 281 281 281 282 282 282 284 284 285 286 286
295 295 294 294 294 293 292 290 290 290 290 290 292 290 290 289 289 289 288 288 287 286 284 282 282 281 281 280 280 280 280 280 281 281 281 281 282 282 282 283 284 284 285
295 294 293 293 293 292 290 290 290 290 290 291 290 290 290 290 288 288 287 287 285 284 282 282 281 280 279 279 280 279 280 280 280 281 281 282 282 282 282 283 283 284 284
294 293 293 293 292 291 290 290 290 289 290 290 290 290 289 288 288 287 287 285 284 282 282 281 280 279 279 279 279 280 280 280 280 280 280 281 282 282 282 282 283 283 283
293 293 292 291 290 290 290 290 290 289 290 290 290 289 288 288 287 287 285 284 282 281 281 280 279 278 278 278 279 279 280 280 280 280 280 281 281 281 281 282 282 282 283
292 291 291 290 290 290 290 290 289 289 289 289 289 289 288 287 286 285 284 283 282 281 281 279 278 278 277 278 278 279 279 279 280 279 279 280 280 280 280 281 281 282 283
291 291 290 290 290 290 290 290 288 288 289 289 289 288 287 286 285 284 282 282 281 281 279 278 277 278 277 277 277 278 278 279 278 279 279 280 281 281 281 281 281 282 282
290 290 289 289 289 290 290 289 288 288 288 288 288 287 286 285 284 283 282 281 280 279 279 278 276 278 276 276 276 277 278 278 278 278 279 280 280 281 281 282 282 281 282
290 289 289 289 289 289 289 289 288 287 287 287 287 286 286 285 283 282 282 281 279 279 279 277 276 276 276 276 276 277 278 278 278 278 278 279 280 281 282 282 283 283 282
289 289 289 289 289 289 289 289 288 286 287 286 286 285 285 284 283 282 282 281 280 279 279 277 276 276 276 276 276 276 277 277 278 278 279 280 281 282 283 283 284 284 284
289 289 289 289 288 288 289 289 288 286 286 286 285 285 284 283 282 282 281 281 280 279 279 278 276 276 275 276 276 275 275 276 278 278 279 280 281 281 282 283 284 285 285
289 289 288 288 288 288 288 288 287 286 286 285 284 284 283 283 282 282 281 281 280 279 278 279 278 277 276 276 275 275 275 276 278 278 279 279 280 281 281 282 283 284 284
289 288 287 288 287 288 288 288 287 286 286 285 284 283 283 282 282 282 281 280 280 280 278 278 279 278 276 275 275 275 275 274 276 278 278 278 279 280 280 280 281 282 282
288 287 287 287 287 287 287 287 286 286 286 285 284 283 282 282 282 281 281 280 280 280 279 278 278 278 278 276 275 275 275 274 274 275 277 277 278 279 278 278 279 279 280
287 287 287 287 287 288 288 287 286 285 286 285 283 282 282 282 282 281 281 280 280 280 279 279 278 277 277 277 276 276 275 275 274 274 274 275 276 277 278 278 277 278 279
287 287 287 287 288 287 287 287 286 286 285 284 283 282 282 281 281 281 281 281 280 280 280 279 279 278 277 276 276 275 275 274 274 274 274 274 274 275 276 277 277 278 278
287 286 286 286 286 286 287 287 287 285 284 284 283 282 282 281 281 281 281 281 281 280 280 280 279 279 278 277 277 276 276 275 274 274 274 274 274 274 274 275 276 276 276
286 286 285 286 287 286 286 286 286 285 284 283 283 283 282 281 281 281 281 281 281 281 280 280 280 279 279 278 277 277 277 276 275 274 274 274 274 274 273 273 274 274 275
287 287 286 285 285 285 286 286 286 286 284 283 283 283 282 282 282 282 281 281 281 281 281 280 280 280 279 279 278 278 277 277 276 275 275 275 274 273 273 273 273 273 274
287 287 286 285 285 285 286 286 287 286 285 284 284 284 283 282 282 282 282 282 281 281 281 280 280 280 279 279 278 278 277 277 277 276 275 275 275 274 273 273 273 273 273
287 286 285 285 285 285 286 286 287 287 286 286 285 285 284 284 283 282 282 282 282 282 281 281 280 280 280 279 279 278 278 277 277 276 276 275 275 274 274 273 273 273 273
286 286 285 285 285 285 286 286 287 287 286 286 286 286 286 286 285 284 283 282 282 282 282 281 281 280 280 279 279 278 278 277 277 276 276 275 274 274 274 273 273 273 273
285 284 285 285 285 284 284 285 285 286 286 286 286 286 286 286 286 286 286 283 282 282 282 281 281 280 280 280 279 278 278 277 276 276 276 275 274 274 273 273 273 273 273

GFSGL_850_thetae_030.txt.gz
Theta_e
304 300 299 298 297 297 297 296 296 295 295 294 294 294 295 295 295 295 295 294 293 292 291 291 290 290 289 288 288 287 287 287 286 286 286 286 286 286 286 286 286 287 288
300 299 298 297 297 297 296 295 295 295 294 294 294 294 294 294 295 294 294 292 292 291 291 290 290 288 288 287 287 286 286 285 285 285 285 285 285 284 285 285 285 286 287
299 298 298 298 297 296 296 295 295 294 293 294 294 294 294 294 293 292 291 291 290 290 289 289 288 287 286 286 285 285 284 284 284 284 284 284 284 284 284 285 286 286 287
298 297 297 297 296 296 296 295 294 293 293 294 293 292 292 292 291 291 290 290 290 289 288 287 285 284 284 283 283 283 283 283 283 283 283 283 283 283 284 284 284 285 286
297 297 297 296 296 296 295 294 293 293 293 293 293 292 291 291 290 290 290 289 288 287 286 285 284 283 282 281 281 281 281 282 282 282 283 283 283 283 284 284 284 284 284
296 296 295 295 295 295 294 293 293 293 293 293 292 291 291 289 289 288 288 287 287 285 284 283 283 282 282 280 280 280 280 281 281 282 282 282 283 283 283 284 284 284 285
296 295 294 294 294 294 293 292 292 292 293 292 292 291 290 290 288 288 287 286 285 284 283 283 282 282 281 281 280 280 281 281 281 281 281 282 283 283 283 283 283 284 284
294 294 294 294 293 293 292 292 292 292 292 292 291 290 290 288 288 287 286 284 284 283 283 282 282 281 281 279 279 280 281 281 281 281 281 281 281 282 282 282 283 283 283
294 294 294 293 293 292 292 292 292 291 291 291 291 290 289 288 288 286 285 284 284 283 282 282 281 280 279 278 278 279 280 280 281 280 279 280 280 281 281 281 282 283 284
293 293 293 292 292 292 292 292 291 290 290 290 290 289 288 287 287 286 284 283 283 283 282 282 280 278 278 277 277 278 279 279 279 279 280 281 281 282 282 282 282 283 283
291 291 292 292 291 291 291 291 291 290 290 289 288 288 287 287 286 285 284 283 282 282 281 281 280 278 277 276 276 277 277 277 278 279 280 281 282 282 282 283 283 283 283
290 291 291 291 291 290 291 291 290 290 289 289 287 287 287 285 285 285 283 283 282 281 280 281 279 277 277 276 276 276 276 277 278 279 279 280 281 281 281 283 283 284 284
289 290 290 291 290 290 291 290 290 290 289 289 288 287 287 286 285 284 283 282 282 281 280 279 280 278 277 277 276 276 276 277 277 278 278 279 279 280 282 283 284 285 285
289 290 291 291 291 290 290 289 290 289 289 288 287 287 286 285 285 284 283 282 281 280 280 279 279 279 278 277 277 277 276 275 276 277 277 278 279 280 281 282 283 285 286
289 289 290 290 290 290 289 289 289 289 288 288 287 286 285 284 284 284 283 282 281 280 280 279 279 279 278 278 278 277 277 275 276 276 277 278 278 279 280 281 282 283 284
289 289 290 289 289 289 289 289 288 288 287 286 286 285 285 284 283 283 282 282 281 281 280 280 280 279 278 278 278 277 277 276 275 275 276 277 277 278 279 280 281 281 282
289 289 289 289 289 289 289 288 287 288 287 286 286 285 285 284 283 282 282 282 281 281 280 281 280 279 279 278 278 277 277 276 276 275 275 276 276 277 278 279 279 280 281
289 289 288 288 288 288 288 288 287 287 287 286 286 285 285 283 282 282 282 281 280 280 280 280 280 279 279 278 278 277 276 276 275 275 275 274 275 275 277 278 278 278 279
290 289 288 287 287 287 286 287 287 287 287 286 286 285 284 283 283 282 282 282 281 281 282 281 280 279 279 278 278 277 277 277 277 276 275 275 274 274 275 276 277 277 278
289 289 288 287 287 286 286 286 286 286 286 286 286 285 285 284 283 282 282 282 281 281 281 281 281 280 279 278 277 277 277 276 276 276 275 275 274 274 275 275 276 277 277
289 289 288 287 287 286 286 286 286 286 286 286 286 285 284 284 284 283 283 283 282 281 281 281 281 280 279 278 278 278 277 277 276 277 276 275 275 274 274 275 274 275 276
289 288 288 287 287 286 285 286 286 286 286 286 286 285 284 284 283 283 283 283 283 282 282 281 281 280 279 279 278 278 277 277 277 277 276 276 276 275 274 274 274 274 275
289 288 287 287 287 286 285 286 285 286 286 286 286 285 285 284 284 284 284 283 283 283 282 282 281 281 280 280 280 279 279 277 277 277 277 276 276 275 275 274 274 274 274
288 287 286 286 286 286 286 286 286 285 286 286 286 286 286 286 285 285 285 285 283 282 282 282 282 281 281 280 280 280 279 279 278 277 277 276 276 275 275 274 274 274 274
287 286 285 285 285 286 286 286 285 285 285 285 286 286 286 286 286 286 286 286 286 285 283 282 282 282 281 281 280 280 279 279 278 277 277 276 276 275 275 274 273 273 273
286 285 284 284 285 285 285 285 285 285 285 285 285 285 285 285 285 285 286 285 285 285 285 283 282 282 281 281 280 280 279 279 278 277 277 276 275 275 274 274 273 273 273

GFSGL_850_thetae_036.txt.gz
Theta_e
312 309 307 307 304 304 300 301 300 299 298 297 296 296 296 296 296 296 296 295 295 295 294 294 293 292 292 291 290 289 288 288 287 287 287 286 286 286 285 285 285 285 285
309 308 307 305 304 301 301 300 299 298 298 297 296 295 296 296 295 294 293 294 294 293 292 292 291 291 290 289 288 287 287 287 286 285 285 285 285 284 284 284 285 284 285
309 307 305 303 301 301 300 299 298 298 297 296 295 295 295 295 294 293 293 293 292 292 291 291 290 289 288 287 287 286 285 284 284 284 283 283 283 283 283 284 284 284 284
307 306 303 302 301 301 300 299 298 298 297 295 295 295 295 295 293 293 292 292 291 291 290 289 288 287 287 286 285 284 283 282 282 282 282 282 282 283 283 282 284 284 284
307 303 303 301 300 300 299 298 298 297 296 295 295 295 295 294 293 292 292 290 290 289 287 287 287 286 286 285 284 283 283 282 281 280 281 281 282 282 282 283 283 283 283
304 303 302 300 299 298 298 298 297 296 295 295 295 294 294 293 292 292 291 290 288 287 287 287 286 286 285 284 284 284 283 281 281 281 281 281 282 282 282 281 281 281 282
303 301 300 299 298 297 297 296 295 295 294 294 294 294 294 293 292 292 291 289 287 286 286 286 286 285 285 284 284 283 280 280 281 281 281 282 282 281 280 280 280 281 281
300 300 299 297 297 296 296 295 295 294 294 294 294 293 294 293 292 292 290 289 287 286 286 286 285 284 284 283 282 280 278 279 280 281 281 281 280 280 280 281 282 282 282
299 299 297 296 295 295 295 294 294 294 294 294 293 292 293 293 292 291 290 288 287 286 285 285 285 284 283 283 282 279 279 278 279 280 279 279 280 281 281 282 283 283 283
298 296 295 294 294 294 294 294 294 293 294 293 293 292 292 291 291 290 289 288 286 285 284 285 284 283 283 283 281 279 279 278 277 278 279 280 280 281 282 282 282 282 283
295 294 295 293 293 293 293 293 293 292 292 292 292 292 291 290 289 289 288 287 286 285 284 283 283 283 283 281 280 280 279 278 278 279 279 280 280 280 281 281 282 283 283
295 293 292 291 292 293 293 293 292 292 292 292 292 292 291 290 289 288 287 286 286 285 284 283 282 282 281 281 281 280 280 279 279 278 278 279 279 280 280 280 281 282 283
293 293 290 291 292 292 292 292 292 292 291 292 291 291 290 290 289 288 288 287 286 285 284 283 282 282 281 281 281 280 280 279 279 279 278 278 278 279 280 280 281 282 283
292 290 292 292 291 291 291 292 292 292 292 291 290 290 290 289 289 288 287 286 286 285 284 283 283 281 282 281 281 281 280 280 279 279 279 278 278 278 278 279 280 281 282
292 291 290 290 290 290 290 291 291 291 291 290 289 289 289 289 289 288 287 286 285 285 284 283 282 282 282 281 281 281 281 280 280 279 278 278 278 278 278 279 280 280 281
290 289 289 289 290 290 290 291 291 290 290 289 289 288 288 288 287 287 287 286 284 284 284 283 282 282 282 282 281 281 281 280 280 279 278 278 278 277 277 279 279 280 280
290 290 290 290 290 291 291 290 289 289 288 288 288 289 288 288 287 286 286 285 284 283 282 282 282 282 282 282 281 281 281 280 280 279 278 278 277 277 277 277 278 279 278
291 290 290 290 291 291 290 290 289 288 288 288 287 287 288 288 288 287 286 285 284 283 282 281 281 282 282 282 281 282 281 280 279 278 278 278 277 277 277 278 277 277 278
291 291 291 291 291 291 291 290 289 289 288 288 287 287 287 287 287 287 286 285 284 283 282 282 282 282 283 283 282 281 281 280 279 278 278 277 277 277 277 277 277 277 277
291 291 291 292 292 292 291 290 290 289 288 288 287 287 287 287 287 287 286 285 284 284 283 283 283 283 283 283 283 282 281 280 279 279 278 278 277 277 277 277 277 277 277
290 290 290 290 291 290 290 289 289 289 288 288 288 286 286 287 287 287 287 286 285 285 284 283 283 283 282 282 282 282 280 280 279 279 278 278 278 277 277 277 277 277 277
288 288 289 288 288 288 288 288 288 287 287 287 287 287 286 286 287 287 287 286 285 285 285 284 284 283 283 282 282 282 281 280 279 279 279 279 278 278 277 277 277 277 276
285 286 287 288 288 287 287 287 287 286 286 286 287 287 286 286 286 287 287 287 286 285 285 285 284 284 283 283 282 282 281 281 280 279 280 279 278 278 277 277 277 276 276
283 283 284 286 286 287 287 287 286 285 286 286 287 287 286 286 286 286 287 287 287 286 286 286 285 285 284 284 283 283 282 281 280 280 280 279 278 278 278 277 276 276 276
281 283 284 285 285 286 287 286 285 285 285 285 285 286 286 286 285 285 285 286 286 286 286 286 285 285 285 285 284 284 283 282 281 280 280 279 278 278 277 277 276 276 275
281 282 284 285 285 286 286 285 284 283 283 283 283 283 284 284 285 285 285 285 285 285 285 285 285 285 285 285 285 284 283 282 282 281 279 279 279 278 277 277 276 276 275

GFSGL_850_thetae_039.txt.gz
Theta_e
318 317 314 311 309 307 306 303 301 300 300 298 297 296 295 294 296 296 296 294 292 294 294 294 293 292 291 291 290 289 288 288 287 287 286 285 284 284 284 284 283 283 284
317 315 311 309 308 305 304 301 301 300 299 298 297 296 295 295 295 295 295 293 292 293 292 292 291 291 290 289 289 288 287 286 286 284 283 283 282 282 282 282 283 283 283
315 312 309 307 306 303 301 301 300 299 298 298 297 296 295 295 295 295 294 293 292 292 291 290 289 289 288 288 287 286 286 285 283 283 282 281 281 281 282 281 282 282 283
312 309 308 306 303 302 301 300 300 298 298 298 297 295 294 295 295 295 293 291 291 291 291 289 288 287 287 287 286 285 284 284 283 283 281 281 281 281 282 282 282 282 281
310 308 306 303 303 301 301 300 298 298 298 297 296 294 295 294 294 294 293 292 291 290 289 287 286 287 287 286 285 284 284 284 283 281 280 281 281 281 282 282 281 280 280
309 307 305 302 302 299 298 298 298 297 296 295 294 294 294 294 294 294 293 292 291 290 287 286 286 286 286 285 285 284 284 283 281 278 280 281 281 281 281 281 280 280 281
307 305 303 301 299 299 299 297 296 295 294 294 294 294 294 294 293 294 293 292 291 289 287 286 286 286 285 285 284 284 282 281 279 278 280 280 281 280 280 280 280 282 282
304 301 300 299 298 296 296 295 295 294 294 294 294 294 294 293 293 293 293 292 291 289 288 286 285 285 285 284 284 283 282 281 279 279 280 280 280 279 280 281 281 282 282
300 299 298 295 295 295 295 294 294 293 294 294 293 294 293 292 292 292 292 291 290 289 287 285 285 284 284 283 283 282 281 281 279 278 278 279 280 280 281 281 281 281 281
298 296 296 295 296 294 293 293 293 293 293 293 293 293 293 292 292 291 290 290 289 288 286 285 285 284 283 283 282 281 281 280 280 280 278 279 279 280 280 280 280 281 281
298 297 297 296 293 292 292 293 293 292 292 292 292 292 292 292 292 291 290 289 288 287 286 285 284 283 283 282 281 281 280 280 280 279 279 278 278 279 279 279 280 281 281
300 300 297 293 293 292 292 292 292 292 292 292 292 292 292 291 290 290 290 288 287 287 287 285 284 283 282 281 281 281 281 280 280 279 279 279 278 278 278 279 279 280 281
296 294 293 292 290 291 291 291 291 292 292 291 292 292 291 290 289 290 289 288 288 287 286 285 284 283 282 281 281 281 281 280 280 279 279 279 278 278 278 278 279 280 281
293 292 290 290 290 290 290 290 290 291 291 291 291 290 290 289 289 290 289 288 288 287 285 285 284 283 283 282 282 281 281 281 280 280 279 279 278 278 278 278 279 280 280
291 290 290 290 289 289 290 290 290 290 291 291 290 290 289 289 288 288 289 288 288 287 285 284 284 284 283 282 282 282 281 281 281 280 279 279 278 278 278 278 278 279 279
291 291 290 290 289 289 290 290 290 290 290 289 288 288 288 288 289 288 288 287 287 287 285 284 284 284 283 282 282 282 281 281 281 280 280 279 278 278 277 278 277 278 278
292 292 291 291 290 290 290 291 290 290 290 289 289 288 287 287 287 288 288 287 287 286 285 284 284 283 282 282 282 282 281 281 281 280 280 279 278 278 277 277 277 277 278
290 291 291 291 291 291 291 291 291 291 291 289 289 288 288 287 287 287 287 288 287 286 285 284 283 282 282 282 282 282 281 281 281 281 280 279 278 278 277 277 277 277 277
290 290 290 291 291 291 291 291 291 291 291 289 288 288 288 287 287 287 287 287 287 286 285 284 283 282 282 282 282 282 282 282 281 281 280 279 279 278 278 277 277 277 277
288 287 288 288 288 288 288 289 290 289 289 288 288 288 287 287 287 287 286 287 287 287 286 285 284 283 282 283 283 283 283 282 282 281 280 280 279 278 277 277 277 277 277
283 284 284 284 285 286 287 288 288 287 287 288 286 286 286 287 287 286 286 286 287 287 286 285 285 284 283 283 282 282 282 282 282 281 280 280 279 278 278 277 277 277 276
283 283 282 281 281 282 284 286 288 287 287 287 286 286 286 286 287 287 286 286 287 287 287 286 285 285 284 284 283 282 282 282 282 281 280 280 279 279 278 278 277 277 277
279 280 281 282 283 284 283 285 286 287 287 286 285 286 286 287 287 286 286 286 286 287 287 286 285 285 285 284 284 283 283 283 282 281 281 280 280 279 278 278 277 277 277
279 279 280 280 282 283 284 285 285 286 286 285 285 285 285 285 286 286 285 285 286 286 287 287 286 286 286 285 285 285 284 283 283 282 281 281 280 279 278 278 277 276 276
277 277 278 278 279 280 280 281 282 281 282 283 283 283 283 283 284 284 285 285 285 285 285 285 286 285 285 285 285 285 285 284 284 283 282 281 280 279 278 278 277 276 276
276 276 276 276 276 276 277 277 278 278 279 278 279 280 280 280 281 281 282 284 284 284 285 285 285 285 285 285 285 285 285 285 284 283 282 281 280 279 278 278 277 277 276

GFSGL_850_thetae_042.txt.gz
Theta_e
323 321 320 318 317 314 310 307 306 303 301 304 301 298 297 296 294 293 294 295 295 293 292 293 293 292 291 290 290 290 289 288 287 286 285 284 283 282 283 283 282 282 282
321 319 318 318 316 312 308 306 305 305 304 300 299 298 298 297 294 293 294 295 294 292 292 291 291 290 290 289 289 288 287 286 285 285 284 283 282 281 281 281 281 281 281
319 318 317 314 311 309 308 307 302 302 299 299 298 298 298 296 294 294 295 295 294 291 291 291 291 290 289 288 287 287 286 286 284 284 283 282 281 281 281 281 281 281 282
318 318 315 312 309 308 305 302 302 300 299 298 298 297 296 294 294 294 294 294 294 292 291 291 290 289 287 286 286 286 285 284 284 283 282 281 279 280 281 281 281 281 280
318 315 311 308 304 303 302 301 300 298 297 297 296 295 294 294 294 294 294 294 294 292 291 291 290 286 285 286 286 285 284 284 283 282 281 279 279 280 280 280 280 280 280
313 309 307 305 303 302 301 299 298 297 296 295 296 294 294 294 294 294 294 293 293 292 292 291 289 286 285 285 285 285 284 284 283 281 279 278 279 280 280 280 280 280 281
309 306 304 302 302 300 298 298 296 296 296 295 293 294 293 294 294 294 293 293 293 293 291 290 289 288 285 285 285 284 284 283 282 280 279 279 279 279 279 279 280 281 282
305 303 301 299 298 297 296 297 299 297 295 293 294 294 294 293 293 293 292 293 292 292 291 290 288 287 285 285 284 284 283 282 281 280 279 278 278 279 279 280 281 281 281
302 300 299 298 297 299 300 299 296 293 293 293 294 293 293 293 293 293 292 292 292 290 290 289 287 286 285 284 284 283 282 281 281 280 279 278 278 279 280 280 280 280 280
298 297 297 299 301 299 296 293 293 293 293 293 293 292 292 291 292 292 292 291 291 290 289 288 287 285 284 284 283 282 281 281 281 280 280 280 278 278 278 279 279 279 280
298 299 300 298 295 293 293 292 292 292 292 292 292 292 292 292 292 292 291 290 290 289 288 288 286 285 284 283 283 282 281 281 281 280 280 279 279 279 278 278 279 279 279
301 299 296 294 293 292 291 291 290 290 291 291 291 291 291 291 291 291 290 290 290 289 288 287 287 286 284 283 282 281 281 281 280 280 280 280 279 279 278 278 278 279 280
295 293 293 292 291 290 290 290 289 289 290 290 290 290 290 290 290 290 289 289 289 289 288 287 287 286 285 283 282 282 281 281 281 280 280 280 279 279 278 278 278 279 279
291 291 290 290 289 289 289 289 289 289 290 290 290 290 290 289 289 289 289 288 288 289 288 288 287 285 285 284 283 282 282 281 281 280 280 280 279 279 278 278 278 278 278
291 291 291 291 290 290 290 290 289 289 290 290 290 290 289 289 288 287 288 288 288 287 288 287 286 285 285 284 283 283 282 282 281 280 280 280 280 279 278 278 278 277 278
292 291 291 291 291 291 291 290 290 290 290 290 290 290 290 288 288 287 287 287 288 288 287 287 286 286 285 284 283 282 282 282 281 281 281 280 280 279 278 278 277 277 277
290 290 290 290 291 291 291 291 291 290 291 291 291 291 290 289 288 287 287 287 287 287 288 287 286 285 284 284 283 282 282 282 281 281 281 281 280 279 278 278 277 277 277
289 289 288 288 287 287 288 288 288 288 288 288 289 290 290 288 289 288 287 287 287 287 287 286 286 286 285 284 282 282 282 281 281 281 281 281 280 279 278 278 277 277 277
285 283 282 282 283 283 283 283 285 287 288 289 288 287 288 288 288 287 287 287 287 287 286 287 287 286 285 283 282 282 282 282 282 282 281 281 280 279 278 277 277 277 277
281 281 281 281 281 280 280 281 281 282 285 286 287 287 287 287 286 286 286 287 286 286 286 286 287 287 285 284 282 282 282 282 282 282 282 282 280 280 278 278 277 277 277
280 279 279 279 280 281 281 282 283 283 284 285 286 287 287 285 285 285 286 286 287 286 286 286 287 287 285 285 284 282 282 282 282 282 282 282 281 280 279 278 277 277 277
278 278 278 279 279 279 280 281 281 283 284 285 285 287 286 285 285 286 286 286 287 286 286 286 287 287 286 285 285 284 283 282 282 282 282 282 281 280 279 278 277 277 277
277 277 277 277 277 278 278 279 280 281 282 283 284 285 285 285 285 285 286 286 285 285 285 286 286 287 286 286 285 285 284 283 283 282 282 282 281 280 280 278 278 277 277
276 276 276 276 276 276 277 276 277 278 279 279 280 280 281 282 283 283 284 284 284 285 285 285 286 286 286 286 286 285 285 284 284 283 283 282 281 281 280 279 278 277 277
275 275 275 275 275 275 275 275 275 275 276 276 276 277 277 278 279 280 281 281 282 284 284 285 285 285 285 285 285 285 285 285 285 284 284 283 282 281 280 279 278 277 277
274 274 274 274 274 273 273 273 273 273 273 274 274 274 275 275 277 277 278 280 280 281 283 284 284 284 285 285 285 285 285 285 285 285 284 283 282 281 280 279 278 277 277

GFSGL_850_thetae_045.txt.gz
Theta_e
327 325 324 324 322 321 318 316 315 312 310 307 306 304 300 298 297 296 294 293 293 294 294 293 291 291 291 290 290 289 289 288 287 286 285 285 283 283 282 281 282 282 282
326 325 323 321 319 319 315 313 311 308 306 304 304 299 298 297 297 295 293 293 294 294 294 293 291 291 290 290 289 288 287 287 286 286 285 284 283 282 281 280 281 281 281
324 322 321 320 319 316 313 309 305 303 303 301 300 298 297 296 295 294 293 294 294 294 294 293 291 291 290 290 289 286 286 286 285 284 284 283 282 281 280 280 281 281 281
323 322 319 317 313 311 308 306 303 302 301 300 298 297 296 296 295 294 294 294 293 294 294 293 292 291 290 288 286 286 286 285 284 284 283 282 281 281 280 280 281 280 279
320 319 317 312 309 308 305 302 301 300 298 297 296 297 296 296 294 294 294 294 294 294 293 293 292 290 291 289 286 285 285 285 284 283 282 282 281 280 279 279 279 279 281
318 317 312 308 306 303 301 301 299 297 297 299 299 299 296 294 294 294 294 294 293 293 293 293 292 291 289 288 287 285 285 284 283 283 282 281 280 279 279 279 279 280 280
316 311 308 305 302 301 299 298 298 300 300 299 297 295 294 294 293 293 293 293 293 292 293 292 291 291 290 288 286 285 285 284 283 282 281 280 280 279 279 279 279 280 280
310 307 304 302 300 298 298 301 300 299 297 295 294 293 293 293 293 293 293 293 292 292 292 292 291 290 289 287 285 285 284 284 283 282 280 280 280 279 279 279 279 279 280
304 301 299 298 298 300 302 301 297 294 293 293 292 292 292 292 292 291 291 292 292 292 291 291 289 289 288 286 284 284 284 283 282 281 280 280 279 279 278 278 278 279 279
298 297 298 299 300 301 297 293 293 292 292 291 291 291 291 290 290 291 291 292 292 291 290 290 289 288 287 286 285 284 283 282 281 281 280 280 280 279 279 278 278 278 278
298 300 301 300 297 294 293 293 291 290 290 290 290 290 290 290 290 290 291 291 291 290 289 289 289 288 287 286 285 284 283 281 281 281 280 280 280 279 279 278 278 278 278
300 298 296 294 293 292 291 290 289 289 289 289 289 289 289 289 289 289 289 290 290 289 289 289 289 288 287 287 285 284 282 281 281 281 280 280 280 279 279 279 278 278 278
293 292 291 290 290 289 289 289 289 289 289 289 289 289 289 289 289 289 289 289 289 288 288 288 289 288 287 287 285 284 282 282 281 281 281 280 280 280 279 279 278 278 278
291 291 291 290 290 290 290 290 291 290 290 290 289 289 289 290 290 289 289 288 288 288 288 288 287 288 287 287 285 284 283 283 282 281 281 280 280 280 280 278 278 278 278
291 291 291 290 290 290 290 290 290 290 290 291 291 291 290 290 290 290 289 288 287 287 287 288 287 287 287 287 286 285 284 283 282 281 281 280 280 280 280 278 278 278 278
289 289 289 289 289 289 288 288 287 287 286 286 288 288 289 290 290 290 290 288 287 287 287 287 288 287 287 286 286 285 284 283 282 281 281 281 280 280 280 278 278 278 278
288 287 286 284 283 283 282 282 282 283 282 282 284 286 287 287 288 289 289 288 288 287 286 287 286 287 287 287 286 285 284 283 282 282 281 281 281 280 280 278 278 278 278
284 283 282 282 281 281 280 280 280 280 281 281 281 282 285 287 287 288 288 288 288 287 287 286 287 286 286 287 286 285 284 282 281 282 281 281 281 281 279 278 278 278 278
282 281 281 280 280 279 279 279 280 281 281 281 282 282 284 285 287 287 287 286 286 287 287 287 286 287 286 286 286 285 284 282 281 281 281 281 281 281 280 279 278 278 277
280 280 280 279 278 278 278 278 279 279 279 280 282 283 285 286 286 287 286 285 285 285 286 287 286 286 286 286 286 285 284 282 281 281 282 281 281 281 280 279 278 278 278
279 279 278 278 277 277 277 277 278 277 279 279 280 282 283 284 285 285 285 285 286 286 286 287 286 286 286 286 286 285 284 282 282 282 282 282 281 281 281 279 278 278 278
278 277 277 277 277 277 276 276 277 277 277 277 279 279 279 281 282 282 283 284 285 285 285 286 285 286 286 286 286 285 285 284 282 282 282 282 282 281 281 280 279 278 278
277 277 276 276 276 276 276 276 276 275 275 275 276 277 277 277 278 278 279 282 284 284 284 285 285 285 286 285 286 286 285 285 284 283 282 282 282 281 281 280 279 278 278
276 276 275 275 275 275 275 275 274 274 274 274 274 274 275 275 276 276 277 278 280 282 283 283 284 284 285 285 285 286 285 285 285 284 283 283 282 282 281 280 280 279 278
275 275 275 274 274 274 274 274 273 273 273 273 273 273 273 273 274 275 276 277 278 279 280 281 283 284 284 285 285 285 285 285 285 285 284 284 283 282 282 281 280 279 278
274 274 273 273 273 273 272 272 272 272 272 272 272 271 271 272 272 273 274 276 277 278 279 280 281 282 283 284 284 285 285 285 285 285 285 284 284 283 282 281 280 279 278

GFSGL_850_thetae_048.txt.gz
Theta_e
327 327 326 325 323 321 321 321 320 319 317 314 309 308 306 302 298 297 295 296 294 293 293 294 293 292 291 290 290 289 289 288 288 287 286 285 284 283 282 282 281 281 281
328 326 324 324 323 322 320 320 319 317 315 309 308 303 300 298 297 295 298 294 293 294 294 294 293 293 291 290 290 289 289 288 286 286 285 284 284 283 282 281 281 281 281
324 324 323 322 321 320 319 317 315 311 306 305 301 300 302 296 297 298 294 294 294 294 293 293 293 293 292 291 290 289 287 285 286 285 284 284 283 282 282 281 281 281 280
324 323 323 322 319 317 316 312 309 306 302 302 301 297 296 299 298 296 295 294 294 294 294 293 293 293 292 291 290 288 287 285 285 285 284 283 282 282 281 280 281 280 280
323 323 321 317 315 313 308 307 302 302 302 298 296 299 299 298 297 294 294 294 294 294 293 293 293 293 292 291 290 289 287 286 285 284 284 283 282 281 280 280 279 280 280
321 320 317 314 311 308 305 302 301 299 297 296 301 300 298 296 294 294 294 293 293 293 293 293 292 292 292 291 290 288 288 285 285 284 283 283 282 281 280 279 279 279 279
317 314 312 307 305 302 300 299 298 298 299 300 300 298 295 294 294 293 293 292 292 292 292 292 292 291 291 291 289 289 286 285 285 284 283 282 281 280 280 279 279 278 279
312 310 306 303 300 298 298 299 301 301 300 298 295 293 293 292 292 292 291 291 291 291 292 292 292 291 291 289 289 288 286 285 284 284 283 281 280 280 280 279 279 279 279
307 304 300 298 299 299 300 301 300 297 293 293 292 292 291 291 290 290 290 290 290 291 291 291 291 291 290 289 288 287 285 284 284 283 282 281 280 280 279 279 279 278 279
300 299 298 299 299 301 299 294 293 293 292 291 290 290 290 290 290 290 290 290 290 290 291 291 291 290 289 289 288 287 285 285 283 282 281 280 280 280 279 279 279 278 278
299 299 300 300 297 294 293 292 291 290 289 289 289 289 289 289 289 289 289 290 289 289 290 290 289 289 289 289 288 287 286 284 283 282 281 281 280 280 280 279 279 278 278
299 298 295 293 291 290 290 289 289 289 289 289 289 289 289 289 289 289 289 289 289 289 289 289 289 289 288 289 288 287 286 285 283 282 281 281 280 280 280 279 279 279 278
292 291 291 290 290 290 290 290 290 290 290 290 290 290 289 289 290 290 289 290 289 289 288 288 287 288 287 287 288 287 287 285 284 283 282 281 281 280 280 280 279 279 279
291 291 290 290 290 289 289 289 288 288 287 287 286 285 285 286 286 288 289 290 290 290 289 287 287 287 288 288 287 287 286 285 284 283 283 281 281 280 280 280 279 279 279
290 289 289 289 288 287 286 284 284 283 282 281 281 281 282 282 283 286 287 287 288 289 289 287 287 287 287 287 287 286 286 285 285 284 283 282 281 280 280 280 279 279 279
288 287 286 285 284 283 283 283 282 282 281 281 280 281 281 282 282 284 286 287 287 288 288 287 287 287 286 286 287 287 286 286 285 284 283 282 281 281 280 280 279 278 278
285 284 283 283 282 282 281 281 281 282 280 280 280 281 282 282 283 283 284 286 287 288 288 288 287 287 286 286 286 286 286 286 285 284 283 282 281 281 280 280 279 278 279
283 282 282 281 281 280 280 279 279 278 279 279 279 280 281 282 283 284 285 285 286 286 286 286 286 287 286 286 286 286 286 286 285 284 283 281 281 281 280 280 279 278 278
282 281 281 280 279 279 278 278 278 277 277 277 278 279 279 280 282 283 284 285 285 286 286 285 285 285 286 286 286 286 286 286 285 284 282 281 281 281 280 280 280 279 278
280 280 279 279 278 278 278 277 277 277 276 276 276 277 277 279 279 280 282 282 283 283 283 284 285 285 286 286 286 286 286 285 284 283 282 281 281 281 281 280 280 279 278
279 279 278 278 277 277 277 276 276 276 276 275 275 275 275 276 277 278 279 279 279 281 282 283 284 285 285 285 285 286 285 285 284 283 282 281 281 281 281 280 280 279 278
278 278 277 277 276 276 276 275 275 275 275 275 275 275 275 275 275 276 277 277 278 278 279 281 282 284 284 285 285 284 285 285 285 284 282 282 282 282 281 281 280 279 278
277 277 276 276 276 275 275 275 274 274 274 274 274 274 274 274 274 274 274 275 277 277 278 279 282 283 283 284 285 285 284 285 285 285 283 282 282 282 281 281 281 279 279
276 276 276 275 275 275 274 274 273 273 273 273 273 272 272 272 272 273 273 274 275 276 277 278 279 281 282 283 284 285 284 284 285 285 284 283 282 282 282 281 281 280 279
276 275 275 275 274 274 273 273 273 272 272 272 272 271 271 271 271 272 272 273 274 275 276 277 278 279 280 282 283 284 285 284 285 285 285 284 283 282 282 281 281 280 279
274 274 274 274 273 273 273 272 272 271 271 270 270 270 270 270 270 270 271 272 273 274 275 277 277 278 279 280 282 283 284 284 284 285 285 285 284 283 283 282 281 280 279

GFSGL_850_thetae_051.txt.gz
Theta_e
325 324 324 324 324 324 324 323 323 321 318 316 312 310 307 306 304 297 297 300 299 295 293 294 294 293 293 292 291 290 291 291 291 290 288 286 285 285 284 283 282 282 282
324 324 325 324 323 323 323 321 320 320 317 316 310 307 306 305 299 300 302 298 294 294 294 294 293 293 293 293 292 291 290 290 289 288 287 286 285 284 283 282 282 282 282
325 325 324 323 323 322 321 321 319 318 317 313 306 306 302 299 302 302 299 296 295 294 294 294 294 293 293 293 292 291 291 290 288 286 287 286 284 284 283 282 281 281 281
326 325 325 324 321 320 319 318 316 313 311 307 304 303 302 302 301 299 298 296 295 294 294 294 293 293 293 293 292 291 291 290 287 286 286 285 284 283 282 281 281 281 281
326 324 322 320 319 317 315 312 309 306 304 302 301 301 302 300 300 299 297 294 294 294 293 294 293 293 293 293 292 292 291 289 287 287 286 285 284 284 282 281 281 281 281
322 319 318 318 314 311 307 305 303 302 301 301 301 300 298 299 299 295 294 294 294 294 293 292 292 293 292 292 292 291 291 288 287 287 286 285 284 283 281 280 281 281 281
317 315 313 311 308 305 303 301 300 299 300 300 300 298 299 297 294 293 293 293 293 293 292 292 292 292 292 292 291 291 290 288 288 286 285 284 284 282 280 280 281 281 281
311 309 305 304 303 300 299 299 299 300 300 300 297 294 293 293 292 292 292 292 291 291 290 290 291 291 292 291 291 290 290 288 288 285 284 284 283 282 280 280 280 280 280
306 303 301 300 300 299 299 300 300 298 294 293 292 292 291 291 290 290 290 290 290 289 290 290 290 291 291 291 291 290 289 289 287 285 284 284 283 281 280 280 280 281 280
302 300 299 299 300 300 301 297 293 292 292 290 290 289 289 289 289 289 289 289 289 289 289 289 290 290 291 291 290 289 290 289 287 286 284 283 282 281 280 280 280 280 280
299 299 300 300 300 297 293 292 290 290 289 289 289 289 289 289 290 289 289 290 289 289 289 289 289 289 290 290 289 289 289 289 287 286 284 283 282 281 280 280 280 280 279
300 299 296 293 292 291 290 290 290 290 289 289 289 288 287 285 284 284 284 286 289 290 289 290 290 289 289 289 289 289 288 288 287 286 285 283 282 281 281 281 280 280 279
293 292 291 291 290 290 289 289 288 286 285 284 283 283 283 282 282 282 282 283 284 287 288 289 290 289 289 288 287 288 287 287 286 286 286 284 283 282 281 280 280 280 280
291 290 290 289 288 287 285 284 284 283 283 282 281 281 281 281 282 283 283 282 283 285 286 287 288 289 288 288 288 287 287 287 286 286 286 285 283 282 281 281 280 280 279
289 289 288 286 285 285 284 283 282 282 281 280 280 280 280 281 281 281 282 283 283 284 285 287 287 287 288 287 287 286 287 286 286 285 285 285 284 283 282 281 280 280 279
287 286 285 284 284 283 283 282 281 281 280 279 279 278 278 279 280 281 282 283 284 283 285 286 287 287 287 287 287 286 286 286 286 286 285 285 284 283 282 281 280 280 279
285 284 283 283 282 282 281 280 280 279 279 279 278 278 277 277 278 279 281 282 283 285 285 286 286 286 287 287 287 286 286 286 286 286 285 285 284 283 282 281 280 280 279
283 283 282 281 281 280 280 279 279 278 278 278 278 277 277 277 277 278 279 281 283 283 284 285 286 286 286 285 285 285 286 285 286 285 285 285 284 283 282 281 280 280 279
282 281 281 280 279 279 279 278 278 278 277 277 277 277 277 277 277 277 277 278 279 279 280 281 282 283 283 284 285 285 286 286 285 285 285 285 284 282 281 281 280 280 279
281 280 280 279 279 278 278 278 277 277 277 276 276 276 276 276 276 276 276 276 277 278 278 279 279 281 283 284 284 285 285 285 285 285 285 284 283 281 281 281 281 280 279
280 279 279 278 278 277 277 277 276 276 276 275 275 275 275 274 274 274 274 275 275 276 277 277 279 279 281 282 283 283 284 284 284 284 284 284 283 281 281 281 281 280 279
278 278 278 277 277 277 276 276 275 275 275 274 274 274 274 274 274 274 274 274 274 275 275 276 277 278 279 280 282 282 283 283 283 283 284 284 282 281 281 281 281 280 280
277 277 277 276 276 276 275 275 274 274 274 273 273 273 273 273 273 273 273 273 273 274 274 275 276 277 278 279 280 281 283 283 282 282 283 284 283 282 281 281 281 281 280
277 276 276 275 275 275 274 274 273 273 272 272 271 271 271 271 271 271 271 272 272 273 273 274 275 276 277 278 279 281 282 283 284 283 283 284 283 282 282 282 282 281 280
276 275 275 274 274 274 273 273 272 271 271 271 271 271 270 270 270 270 270 270 271 272 272 274 275 276 277 278 278 279 281 283 284 283 283 284 284 283 282 282 282 281 280
275 274 274 273 273 272 272 271 270 270 270 270 270 270 270 270 270 270 270 270 270 271 272 272 274 275 276 278 278 279 280 282 283 284 283 283 284 284 283 282 282 281 281

GFSGL_850_thetae_054.txt.gz
Theta_e
329 327 326 325 324 324 324 324 322 322 322 321 318 317 314 309 307 304 304 302 302 301 300 298 297 297 296 296 295 295 294 294 293 293 293 292 290 289 289 288 287 286 285
329 328 326 324 324 324 324 323 322 321 321 320 320 316 311 308 306 305 301 301 300 300 298 298 297 296 296 296 295 295 294 294 293 292 292 291 290 289 288 287 286 285 284
326 325 324 325 325 323 322 322 321 321 320 318 318 312 308 306 304 301 302 300 299 299 298 297 297 296 296 296 295 294 294 293 292 292 291 291 290 289 288 287 286 285 284
326 326 326 325 323 322 320 320 320 318 317 316 312 307 305 304 302 301 301 299 299 299 297 297 296 296 296 295 294 294 294 293 292 292 291 290 289 289 288 287 286 284 284
326 325 324 321 320 319 318 317 315 314 312 307 306 303 301 303 302 301 299 298 298 297 296 296 296 296 295 294 293 293 293 293 292 291 291 290 289 288 288 287 285 284 284
322 320 319 318 317 315 313 311 308 307 305 302 302 301 302 302 301 300 298 296 296 296 296 296 295 295 294 293 292 293 293 292 292 291 290 289 289 288 287 286 285 284 284
318 316 315 313 311 308 307 305 304 302 301 301 302 301 301 300 298 296 294 293 293 294 295 295 294 294 293 293 293 292 292 292 291 291 290 289 289 288 287 286 284 284 284
314 313 309 307 305 302 304 303 302 302 301 301 300 298 297 297 294 292 292 291 292 293 293 293 293 293 293 293 293 292 292 291 291 289 289 288 288 287 286 284 283 283 283
308 306 304 303 303 302 301 301 301 300 298 297 295 294 294 293 291 290 289 289 290 291 292 292 292 292 292 292 292 292 291 291 291 289 289 288 286 285 284 283 283 283 284
302 301 301 300 300 300 300 298 296 294 293 292 291 291 290 290 291 290 290 290 290 291 291 291 291 291 291 290 290 290 291 290 290 289 287 288 286 285 284 283 282 283 283
300 300 300 300 300 298 294 292 291 291 290 290 289 289 288 288 287 285 284 283 284 285 286 287 288 289 290 290 290 290 290 290 289 288 288 286 286 285 284 283 282 283 283
300 300 298 295 292 291 290 290 290 289 288 286 286 286 287 286 286 284 283 284 283 284 284 286 287 287 288 289 290 290 289 290 289 288 288 287 286 285 284 284 283 283 283
296 293 292 291 290 290 289 288 286 286 285 285 285 285 285 284 284 284 283 282 281 283 283 283 284 285 286 286 287 289 289 289 287 287 287 286 286 286 285 284 283 283 282
292 291 290 289 288 286 285 285 284 284 283 283 284 283 283 283 283 280 280 280 281 282 283 284 284 284 286 287 287 288 288 289 288 287 286 286 286 285 284 284 283 283 282
289 289 288 286 285 284 284 283 282 282 282 281 281 280 280 280 279 278 278 278 279 282 283 283 284 285 287 288 287 287 287 288 287 286 286 286 285 285 284 283 283 282 282
288 286 285 285 284 283 283 283 282 281 280 280 279 279 278 278 278 278 278 278 278 280 282 284 285 286 286 287 287 287 287 287 286 286 286 285 285 284 284 283 283 282 282
286 285 284 283 282 282 281 281 281 281 280 279 279 278 278 278 278 278 278 278 278 279 280 280 281 284 285 287 287 287 287 286 285 285 285 285 285 285 284 284 283 282 282
285 284 283 282 281 280 280 279 279 279 279 279 278 278 278 277 277 277 277 277 277 277 278 277 278 279 281 283 284 285 286 286 286 285 285 285 285 284 284 284 283 282 283
283 282 281 281 280 280 279 279 278 278 278 277 277 276 276 277 277 276 276 275 275 275 275 275 275 276 279 280 282 283 285 285 285 286 285 285 284 284 284 284 283 283 282
282 281 280 280 279 279 278 278 277 277 276 276 276 275 276 276 275 274 274 273 273 273 273 273 274 274 277 279 279 281 284 285 285 285 285 285 284 284 284 283 282 282 281
280 280 279 279 278 278 277 277 277 276 275 275 274 274 275 274 272 272 272 272 271 271 271 271 272 274 274 277 278 280 281 283 283 284 284 284 284 283 283 283 282 282 282
279 279 278 278 277 277 277 276 276 276 275 274 273 273 273 272 271 271 270 270 270 269 269 270 271 273 274 275 277 278 279 280 281 282 282 282 283 283 283 282 282 281 281
278 278 277 277 276 276 276 276 275 275 274 273 272 272 271 270 270 269 269 269 268 269 269 270 272 274 275 275 276 277 278 279 279 281 281 282 282 283 283 282 281 281 281
277 276 276 276 275 275 275 274 274 273 273 272 272 271 270 270 269 268 268 268 269 270 270 271 272 273 274 275 276 277 277 278 279 281 282 281 282 282 283 282 281 281 281
276 275 275 274 274 274 274 273 272 272 271 271 270 270 269 269 268 267 267 268 269 269 270 271 272 272 273 275 276 277 278 278 279 280 282 282 282 282 283 282 281 281 281
275 274 273 273 273 273 272 272 271 271 271 270 270 270 269 268 268 267 268 268 268 270 270 271 271 272 272 274 276 277 278 278 279 280 281 282 282 282 282 283 282 281 281

GFSGL_850_thetae_057.txt.gz
Theta_e
333 332 331 330 329 326 326 327 325 323 322 322 322 320 317 316 314 311 307 306 305 304 303 302 301 300 300 299 298 298 297 297 296 296 295 295 294 294 293 292 291 290 289
333 332 330 329 328 328 327 326 326 323 323 322 321 319 316 315 312 308 307 305 303 303 301 301 300 300 299 298 298 297 297 296 296 295 295 294 294 293 292 292 291 289 289
331 330 329 328 327 329 326 325 323 323 321 320 319 318 314 309 307 304 303 304 302 301 301 300 300 299 299 298 298 297 297 296 295 295 295 294 293 292 292 291 291 289 289
329 329 327 327 324 323 321 319 320 319 318 317 317 314 310 307 305 303 303 302 301 300 300 300 299 299 298 298 297 297 296 296 295 295 294 294 293 292 291 291 290 289 288
324 323 324 323 321 320 319 319 318 316 316 314 312 309 305 303 303 303 302 301 300 299 299 299 299 298 297 297 296 296 295 295 294 294 294 294 293 292 291 290 290 289 288
323 322 321 320 318 316 316 314 314 313 311 309 306 304 304 303 303 302 300 300 298 298 297 297 297 297 296 296 296 295 295 294 293 293 293 293 292 292 291 290 289 288 288
318 317 315 312 312 311 309 307 307 307 305 304 303 303 302 301 299 298 296 295 294 294 295 295 295 295 295 294 294 294 294 294 293 292 292 292 292 292 291 290 289 288 287
310 311 310 308 307 305 305 304 303 302 302 302 301 299 299 299 297 296 293 292 291 293 293 293 293 293 293 293 293 293 293 293 293 293 292 291 291 291 290 289 288 287 285
308 307 306 305 305 304 303 303 301 301 300 300 298 297 296 296 294 293 291 290 290 291 292 292 292 292 292 292 291 291 291 291 291 291 291 291 291 290 289 288 287 286 285
306 305 304 304 303 302 301 301 299 298 296 295 294 294 294 293 294 293 291 289 286 285 286 286 286 286 286 288 289 290 290 290 290 290 291 291 290 289 289 288 286 285 285
304 303 302 301 300 299 298 296 295 295 294 294 291 290 290 289 288 287 286 285 284 284 283 283 283 284 285 286 287 287 288 289 290 290 290 290 290 288 287 287 286 285 284
300 300 299 297 295 295 295 293 292 291 290 290 288 287 288 287 287 285 285 284 282 281 281 281 281 282 283 284 284 284 285 286 287 289 289 290 290 289 287 287 286 285 284
298 297 295 293 292 291 291 290 289 289 288 288 287 287 287 286 285 285 283 281 280 280 280 280 280 281 283 283 284 284 284 287 287 288 288 289 288 288 288 287 286 285 285
295 293 291 291 289 288 288 287 288 287 285 285 286 285 285 283 283 282 280 279 279 279 279 279 281 284 285 286 286 286 287 287 287 288 288 288 288 287 287 287 286 285 284
292 290 289 288 288 287 286 286 285 285 283 282 282 281 280 280 280 279 278 278 278 278 278 280 282 283 284 285 286 287 288 288 287 287 288 288 287 287 287 286 285 285 284
289 288 288 287 286 286 286 285 284 283 282 281 281 280 279 279 278 278 278 278 278 278 279 281 280 280 281 282 283 285 287 287 287 288 287 287 286 287 287 286 285 284 284
288 287 286 285 285 285 284 283 284 284 282 281 281 280 279 279 278 278 278 278 278 278 279 279 279 279 278 279 280 281 283 286 287 286 286 286 286 286 286 286 285 284 284
286 286 285 284 284 283 283 282 282 282 282 282 281 279 278 279 278 278 278 278 278 278 278 278 278 277 277 277 277 278 280 283 285 286 286 286 286 286 286 286 285 285 284
284 284 283 283 282 281 281 280 280 280 280 280 280 279 278 278 277 277 276 276 276 276 276 276 276 275 275 275 276 277 278 281 283 285 286 286 286 286 286 286 285 285 284
283 282 281 281 281 280 280 279 279 279 279 279 279 278 277 276 276 276 276 275 275 275 274 273 273 273 273 273 274 275 277 280 281 283 285 286 285 285 285 285 285 284 284
281 281 280 279 279 278 278 278 278 277 277 277 277 276 275 274 274 274 274 274 273 273 272 272 271 271 271 272 272 273 275 277 279 280 281 284 284 285 285 285 285 284 283
280 280 279 279 278 278 277 277 276 276 276 276 275 274 273 273 273 273 272 272 271 271 271 270 270 270 270 270 271 272 273 276 277 278 280 281 282 283 284 284 284 284 283
279 279 278 278 277 277 276 275 275 275 274 273 273 273 273 272 271 271 271 270 270 269 269 268 268 268 269 269 269 271 272 274 276 276 278 279 281 282 283 283 284 283 282
278 277 277 276 275 275 274 274 273 273 272 272 272 272 271 271 270 270 269 269 268 268 267 267 268 268 268 269 270 271 274 275 276 276 277 278 280 282 282 283 283 283 282
277 276 275 274 274 273 272 272 272 271 271 271 271 270 270 269 269 269 268 267 267 266 267 269 269 267 269 270 272 273 274 275 276 277 277 278 280 281 282 283 283 283 282
275 275 274 272 272 272 271 271 270 270 270 269 269 268 268 268 267 267 267 266 266 267 269 268 269 269 270 271 272 273 274 275 276 277 277 278 280 281 282 282 283 283 282

GFSGL_850_thetae_060.txt.gz
Theta_e
333 333 331 330 330 328 328 327 325 326 325 325 321 321 320 319 316 315 314 313 310 308 305 305 304 302 301 301 301 300 299 298 298 297 297 296 296 295 295 294 294 293 292
334 333 332 331 330 327 326 325 324 324 322 322 320 320 319 318 315 314 312 309 306 305 305 303 302 301 301 301 300 299 299 299 298 297 296 296 296 295 295 294 293 292 292
332 330 330 329 328 327 326 327 324 322 321 320 319 318 318 315 312 311 308 306 304 304 302 301 301 301 301 300 299 299 299 298 298 297 297 296 296 296 295 294 293 292 291
331 331 328 329 327 325 324 322 321 320 319 318 318 316 313 312 309 307 305 304 304 303 301 300 299 300 300 298 298 298 298 298 298 297 297 296 296 295 295 294 293 292 291
330 330 328 327 324 323 321 320 318 317 317 316 314 313 310 307 305 304 303 303 302 301 299 298 298 298 298 298 297 297 297 296 296 296 295 295 294 294 294 293 292 292 291
328 327 325 323 320 319 318 315 315 313 312 312 310 308 307 304 303 302 301 300 299 298 297 297 296 296 295 296 296 296 295 295 295 295 295 294 294 294 293 292 292 292 291
323 322 320 317 315 313 312 310 310 309 307 306 305 304 303 302 300 298 296 295 294 293 292 292 292 293 294 294 293 294 294 294 294 294 294 294 293 293 292 292 292 291 290
316 313 313 312 310 308 307 307 305 304 303 303 302 300 299 299 297 296 295 294 293 290 290 291 292 292 292 292 292 292 292 292 292 292 292 292 292 292 291 291 291 290 289
311 310 308 308 308 306 305 303 304 302 301 300 299 298 297 296 295 295 293 291 291 289 287 286 286 285 284 284 284 284 284 285 286 288 289 290 290 290 290 291 290 290 289
308 308 308 306 305 304 304 302 301 300 299 296 295 295 294 293 294 292 290 288 287 286 285 285 284 284 283 282 281 282 283 283 283 284 285 286 288 290 290 291 290 289 288
307 306 305 304 303 302 301 299 297 296 295 294 293 292 291 290 289 288 287 286 285 284 284 283 283 282 281 281 281 282 283 283 284 284 284 285 285 289 290 290 289 288 289
305 304 302 301 300 299 297 295 295 294 293 291 289 288 287 287 287 286 286 285 283 282 282 281 281 281 281 282 284 285 286 286 286 285 285 286 288 286 288 290 289 289 287
302 300 299 297 296 295 294 292 291 290 289 289 288 286 287 287 285 284 284 282 282 281 281 280 280 280 281 282 283 284 285 286 287 287 287 286 287 288 287 289 288 288 286
299 298 296 294 292 291 290 289 289 289 288 286 286 286 285 284 283 283 282 281 281 280 280 280 280 281 281 280 281 282 284 285 287 288 288 287 287 288 289 288 288 287 286
296 294 293 291 290 289 289 288 288 287 285 284 284 283 283 282 282 280 280 280 280 279 279 279 280 280 279 279 279 280 281 283 285 286 287 288 287 288 287 287 287 287 286
293 291 290 289 289 288 288 287 286 285 284 283 282 282 281 281 280 280 279 279 279 279 279 279 279 279 278 278 278 278 279 280 282 284 286 286 288 287 287 287 287 287 286
290 290 289 288 287 287 286 286 285 285 284 283 282 282 281 280 280 279 279 278 278 278 278 278 278 277 277 277 276 276 276 277 279 281 284 285 286 286 286 286 286 286 286
289 287 286 286 286 285 284 284 284 284 283 282 282 281 280 280 279 278 277 277 277 277 277 276 276 276 275 275 275 274 274 275 277 279 281 283 286 286 285 285 286 286 286
286 285 286 285 284 284 283 282 281 281 281 281 281 280 280 279 279 276 276 277 276 275 275 275 274 274 273 273 273 273 273 274 275 277 279 281 283 285 286 286 286 286 286
285 284 284 283 283 282 281 281 280 280 280 280 279 279 279 278 277 276 276 275 275 274 274 273 273 272 272 271 271 272 272 272 274 276 277 278 281 283 285 285 285 286 286
285 285 284 282 281 281 280 279 279 279 278 278 278 277 277 276 275 275 274 274 273 273 272 271 271 271 271 270 270 270 270 271 273 273 275 277 279 281 283 284 285 285 286
286 283 281 280 280 279 279 278 278 277 277 277 276 276 275 274 274 273 273 272 272 271 270 270 270 269 269 269 270 270 269 270 271 272 274 276 278 279 281 283 284 286 285
282 281 280 279 278 278 277 277 277 276 276 276 275 274 274 273 273 272 271 271 270 270 270 269 269 269 270 270 269 268 268 269 271 272 273 275 277 278 279 281 282 284 284
280 279 278 278 277 277 276 275 275 274 274 273 273 273 272 272 271 271 270 270 269 269 269 269 269 269 269 269 269 270 270 270 270 270 271 274 276 277 279 280 282 283 284
278 278 277 276 275 275 274 274 273 273 273 272 272 271 271 270 270 269 269 268 268 268 269 269 269 269 270 270 270 270 270 271 272 272 273 274 276 277 278 280 281 282 283
277 276 275 274 274 273 273 272 272 271 271 271 270 270 269 268 268 268 267 267 267 268 268 269 269 270 270 270 270 270 271 272 273 274 274 275 277 278 278 279 281 282 283

GFSGL_850_thetae_063.txt.gz
Theta_e
327 326 327 327 327 327 326 324 324 320 325 325 325 324 322 321 319 319 318 315 314 314 312 310 306 305 304 303 302 301 302 301 300 299 299 298 298 297 296 296 295 295 295
329 328 328 329 328 328 326 324 325 325 324 325 323 321 320 320 319 318 315 314 313 310 307 306 305 303 302 301 301 301 300 299 299 298 298 298 297 296 297 296 296 295 295
329 330 330 326 321 327 325 327 325 323 324 321 320 320 319 318 317 316 311 311 308 307 305 304 304 302 301 300 300 299 299 298 298 299 298 298 298 297 297 296 296 295 294
324 330 330 329 328 328 327 325 324 322 321 320 320 319 319 316 314 311 309 307 305 305 304 302 301 299 298 298 298 298 298 297 297 297 297 297 297 296 296 295 295 294 293
330 330 330 330 329 327 325 323 321 321 320 319 318 317 314 311 309 308 307 305 304 303 301 299 298 298 297 297 296 296 295 295 295 295 295 295 295 295 294 294 294 294 293
329 329 329 326 326 324 323 322 320 319 317 316 315 312 311 310 307 305 304 303 302 300 298 296 295 294 293 293 293 294 294 294 294 293 293 292 292 292 293 293 293 293 292
328 326 325 324 323 321 321 318 317 315 312 312 309 307 306 305 303 302 301 298 295 293 292 291 291 290 291 291 291 291 291 291 292 292 291 290 290 290 291 291 291 291 291
323 323 322 321 319 317 315 313 312 310 308 305 304 303 301 300 299 298 296 294 293 292 291 290 289 287 286 285 285 284 284 284 283 282 282 282 283 285 287 290 290 290 290
320 319 318 317 316 312 310 308 307 305 303 302 300 299 299 298 297 296 294 293 292 291 287 286 285 285 284 284 283 283 283 283 283 284 284 283 283 283 282 284 288 290 290
318 315 314 311 309 306 305 304 303 302 300 299 298 297 296 296 295 293 292 292 288 286 286 285 285 284 283 282 282 282 282 283 285 285 285 285 285 283 286 285 286 289 290
313 311 309 307 307 305 304 302 301 300 298 297 296 295 295 293 292 290 288 287 286 286 286 285 284 283 282 281 281 281 282 283 284 285 286 287 286 286 285 287 287 289 289
309 308 307 305 304 304 302 300 300 298 297 296 295 293 291 289 288 287 287 285 285 284 284 283 283 282 281 281 280 280 280 281 282 284 285 286 287 287 286 286 287 287 288
308 306 305 304 303 302 300 298 296 296 295 293 290 289 288 287 287 286 285 284 283 282 282 281 281 280 280 280 280 279 279 280 281 282 284 285 287 287 287 286 286 287 289
305 304 302 300 299 298 296 295 294 292 290 289 288 287 287 286 286 284 283 283 282 282 281 281 280 280 280 279 279 279 278 278 279 280 282 284 286 286 287 287 288 288 287
302 300 299 297 296 294 293 291 290 290 289 288 286 286 285 284 283 282 282 281 281 280 280 280 279 279 278 278 278 277 277 277 278 279 281 283 285 286 287 288 288 287 287
299 297 295 293 292 291 290 289 288 287 285 284 284 283 283 282 281 281 280 280 279 279 279 279 278 277 277 277 276 276 276 276 276 278 279 281 283 284 286 287 287 287 286
297 293 291 290 289 288 288 287 286 285 285 284 283 282 282 282 281 280 280 279 279 278 278 277 277 276 276 275 275 274 274 274 275 276 277 278 280 282 284 285 285 287 287
293 291 289 288 287 287 287 286 285 285 284 284 283 282 281 281 281 280 278 277 278 277 277 276 276 275 275 274 273 273 272 273 274 274 276 277 278 279 281 284 285 285 285
290 289 287 287 286 286 285 284 284 283 282 282 282 281 280 280 280 279 278 276 276 276 275 275 274 274 273 273 272 272 272 272 272 273 274 276 276 277 280 281 284 285 286
287 286 286 286 284 283 284 284 282 282 281 280 280 280 280 279 279 278 276 276 275 275 274 273 273 272 272 272 271 271 271 271 271 272 273 274 275 276 277 279 281 283 285
286 286 286 286 287 286 285 284 282 280 280 279 279 278 278 277 277 275 275 274 274 273 273 272 272 271 271 271 270 270 270 270 270 271 272 273 274 275 276 278 280 282 284
287 287 286 285 284 283 282 280 279 279 278 277 277 277 277 276 275 274 273 273 272 272 271 271 270 270 270 270 269 269 269 269 270 270 271 272 274 275 276 277 279 282 283
285 284 283 282 281 281 279 278 277 277 276 276 276 276 275 274 273 273 272 272 271 270 270 270 270 270 270 270 270 269 269 269 269 270 270 272 273 275 276 277 278 280 281
282 281 280 279 279 278 276 276 275 275 275 274 274 273 273 272 272 271 271 270 270 269 269 269 269 269 269 269 270 269 269 269 269 270 270 271 273 275 276 277 277 279 281
280 279 277 276 276 276 275 274 274 273 273 273 272 272 271 271 270 270 269 269 268 269 269 269 269 269 269 269 269 269 270 270 270 271 271 272 273 275 276 277 278 278 280
276 276 275 275 274 273 273 272 272 272 271 271 270 270 269 269 269 268 267 267 268 268 268 268 268 269 269 270 270 270 270 270 270 272 272 273 274 275 276 277 278 278 280

GFSGL_850_thetae_066.txt.gz
Theta_e
323 322 321 323 323 324 324 324 325 324 323 319 320 320 323 323 323 320 320 318 318 316 314 312 312 311 307 306 305 303 302 302 301 301 300 299 299 298 298 298 298 297 296
322 322 323 323 324 325 326 326 321 318 321 324 321 320 325 324 322 320 318 317 316 314 313 311 309 307 306 305 303 302 302 301 300 299 298 298 298 298 298 298 297 297 297
326 326 325 325 326 325 326 326 322 321 319 320 323 324 324 321 320 319 318 316 314 312 310 308 306 305 304 303 300 300 299 299 298 297 297 297 297 297 297 297 296 296 296
327 324 328 328 324 321 321 321 321 324 323 324 323 322 321 319 319 318 315 314 311 309 307 304 303 302 300 298 298 298 298 298 297 296 296 295 295 295 295 294 294 294 294
328 323 322 323 323 327 325 323 325 325 322 321 320 319 319 318 317 313 313 309 308 305 304 302 301 299 298 297 297 296 296 295 295 294 294 294 293 293 292 291 291 292 292
329 325 324 322 327 326 327 325 324 322 321 319 319 318 317 315 312 310 308 306 304 303 303 301 299 297 296 295 294 293 292 292 292 292 291 289 287 284 284 284 287 288 290
328 325 324 326 324 325 322 320 320 319 318 316 315 314 312 310 309 306 304 303 303 302 299 295 292 291 290 290 289 289 287 286 284 283 283 283 283 283 283 282 282 284 286
327 326 326 322 322 321 319 319 317 316 314 313 311 310 309 307 304 303 302 300 298 294 292 291 290 290 288 286 286 285 285 284 284 284 283 284 285 285 284 284 283 283 283
326 325 322 320 320 320 318 316 314 312 310 309 307 306 304 303 302 299 297 295 293 292 291 290 287 286 285 285 285 284 284 283 283 282 282 282 284 286 286 285 284 286 286
325 324 321 320 319 317 315 313 311 309 306 304 303 301 300 300 298 296 295 293 292 290 287 286 285 284 284 283 283 283 283 282 282 281 281 281 282 285 287 286 285 285 285
321 320 319 317 315 313 311 309 307 304 302 301 300 299 298 297 295 294 293 292 289 286 285 284 284 283 283 282 282 281 281 281 280 280 281 281 283 285 286 286 286 286 285
317 316 315 312 309 306 307 306 303 302 301 300 298 296 295 295 293 292 290 288 286 285 284 283 283 282 282 281 281 281 280 280 280 280 280 280 282 284 286 286 286 286 286
314 312 310 308 307 305 304 302 301 301 300 298 296 295 294 293 291 288 287 285 283 283 282 282 281 281 281 280 280 280 279 279 279 279 279 279 281 283 284 285 286 286 287
310 308 307 306 305 303 302 301 301 299 297 296 295 294 291 289 288 287 286 283 282 281 281 281 280 280 280 280 279 278 278 278 277 277 278 278 280 283 284 285 287 287 287
308 307 305 304 303 302 299 297 296 296 295 294 292 289 288 287 286 285 282 281 281 281 280 280 280 280 279 278 278 277 277 276 276 276 277 278 279 281 283 284 286 286 287
307 305 303 302 300 298 296 294 292 291 290 289 288 287 286 285 283 281 281 280 280 280 279 279 279 278 278 277 277 276 275 275 274 274 275 276 278 279 281 283 284 285 286
306 302 299 297 296 295 293 291 290 288 287 285 283 282 282 281 281 281 280 280 279 279 278 278 277 277 276 276 275 274 274 273 273 273 274 275 276 277 279 280 282 283 285
301 297 295 292 290 289 288 287 286 285 285 285 284 283 282 282 281 281 280 280 279 278 277 277 276 276 275 274 274 273 273 273 273 273 273 274 275 276 276 278 279 280 283
295 291 290 289 288 288 287 287 287 286 284 284 284 283 283 282 281 281 280 279 278 276 276 276 275 275 274 273 273 273 273 273 272 272 272 273 274 274 275 276 278 279 280
290 290 289 288 286 287 287 285 284 284 285 283 282 281 281 280 280 279 278 277 276 275 275 274 274 273 273 272 272 272 272 272 271 271 271 272 272 273 274 275 276 277 279
290 288 287 288 288 286 285 285 284 283 281 281 280 280 279 278 278 277 276 275 274 274 273 273 272 272 271 271 271 271 271 271 271 271 271 271 271 272 273 275 275 277 278
287 287 286 285 285 284 283 282 281 280 279 279 278 277 277 276 276 275 274 274 273 273 272 271 271 270 270 270 270 270 270 270 270 270 270 270 271 272 273 274 275 276 277
285 285 284 283 282 281 280 279 278 277 277 276 276 276 275 275 274 273 272 272 271 271 270 270 269 269 269 270 270 270 269 270 270 269 270 270 271 272 272 273 275 276 276
282 282 281 280 279 278 277 277 276 275 275 274 274 273 273 272 272 271 271 270 270 269 269 268 268 268 269 269 269 269 269 269 269 269 269 270 271 272 273 273 274 275 276
280 279 278 277 276 275 275 274 273 273 273 272 272 271 271 271 270 270 269 268 268 267 267 267 268 268 268 269 269 269 269 269 269 269 269 270 271 272 273 274 275 276 276
277 276 275 274 274 273 272 272 271 271 271 270 270 269 269 268 268 267 267 266 266 266 266 267 267 268 268 268 269 269 269 269 269 270 270 270 271 273 273 274 275 276 277

GFSGL_850_thetae_069.txt.gz
Theta_e
316 315 315 316 317 318 319 320 321 322 322 323 323 320 322 322 323 323 323 321 320 317 317 318 315 313 312 311 310 308 306 305 302 302 301 301 299 298 297 296 296 297 297
317 316 315 315 315 316 318 320 321 322 323 318 316 316 321 322 321 320 323 322 320 318 317 315 313 312 310 308 307 306 305 303 301 301 300 299 298 297 296 296 295 295 296
321 320 319 322 320 321 319 319 322 323 323 318 316 319 323 322 321 322 322 321 318 317 316 313 313 309 308 306 305 304 303 302 301 299 299 298 297 296 295 294 294 294 294
325 323 323 323 323 322 323 322 323 325 325 320 319 319 319 320 322 322 321 320 318 316 313 312 309 306 306 304 304 302 300 298 297 297 296 296 294 293 292 291 289 287 286
325 325 324 324 324 325 324 324 322 323 323 322 322 321 321 323 322 321 319 318 316 312 310 308 306 304 304 303 301 298 296 295 294 293 292 291 289 287 285 284 283 284 284
326 326 325 326 326 327 327 326 323 323 322 321 322 323 321 321 320 319 318 315 313 309 308 305 304 303 302 300 297 295 293 291 290 289 287 285 285 284 284 284 284 284 285
327 327 327 326 326 322 324 325 322 321 324 323 321 320 320 319 318 316 313 312 309 306 304 303 303 301 298 295 292 290 290 288 286 285 285 284 284 283 283 283 285 285 285
328 328 327 326 326 324 323 324 325 324 324 322 321 319 318 316 314 312 309 307 305 303 302 302 300 295 292 290 289 287 285 285 285 284 283 283 282 282 282 283 285 286 286
329 329 328 326 324 323 325 325 323 322 321 319 317 315 314 312 309 307 305 304 302 301 299 294 292 291 289 287 285 285 285 285 284 284 283 283 282 281 282 283 284 284 285
329 327 325 324 324 323 322 321 320 320 317 315 313 311 310 308 304 302 302 301 298 295 293 292 290 286 285 284 284 284 284 283 283 283 282 282 281 281 281 283 285 285 285
327 324 324 324 323 321 320 319 316 314 312 310 309 305 303 301 300 299 298 296 294 293 291 287 285 284 284 284 284 283 282 281 281 281 281 280 280 280 280 283 284 285 285
324 324 323 321 319 318 316 314 312 310 308 305 303 300 298 298 297 296 295 293 292 289 285 283 283 283 283 282 281 281 280 280 280 280 280 280 279 280 280 281 283 284 285
321 320 319 317 314 313 312 309 306 304 303 302 300 298 297 297 296 293 292 290 287 285 283 283 282 282 281 280 280 280 279 279 279 279 279 279 279 279 279 280 282 284 286
317 316 313 311 309 307 305 304 304 302 301 300 299 298 297 294 292 291 288 287 285 282 281 281 281 280 280 279 279 279 279 278 278 278 278 278 278 278 278 279 282 284 286
313 311 309 307 306 305 303 302 301 301 300 299 297 295 294 292 290 288 286 285 282 281 280 280 280 279 279 279 278 278 278 277 277 277 277 277 276 277 277 278 280 282 284
309 307 306 305 304 303 302 301 297 296 294 293 292 291 289 288 287 286 285 282 281 280 280 279 279 279 278 277 277 277 277 276 276 276 275 275 275 275 276 277 278 280 282
308 307 306 304 303 302 299 297 295 290 290 289 288 287 286 286 285 282 280 281 280 279 278 278 277 277 277 276 276 275 275 275 274 274 274 274 274 274 275 276 277 278 280
307 305 303 301 298 295 293 291 290 289 288 286 284 284 283 282 282 282 281 280 280 279 278 277 276 276 275 275 274 274 274 273 273 273 273 273 273 273 273 275 276 277 278
302 298 296 292 290 289 289 289 288 288 287 287 286 284 285 284 283 282 281 280 279 278 277 276 276 275 274 274 274 273 273 273 272 272 272 272 272 271 272 273 274 276 276
291 290 290 291 291 290 289 288 288 287 286 285 284 283 282 281 280 279 279 278 277 276 276 275 275 274 273 272 272 271 272 272 272 272 272 271 271 271 271 272 273 274 276
291 290 289 289 287 286 286 285 285 284 283 282 281 280 280 279 278 278 277 276 275 275 274 273 273 272 271 271 271 270 271 271 271 271 271 271 271 271 271 271 272 273 275
289 288 287 286 285 284 283 283 282 281 280 279 279 278 277 277 276 276 275 274 273 273 272 272 271 271 270 270 269 270 270 270 270 270 270 270 270 270 270 271 272 273 274
285 285 284 283 282 281 280 280 279 278 277 276 276 275 275 274 274 273 272 272 271 271 270 270 269 269 269 268 268 269 269 269 269 269 269 269 270 270 270 271 272 273 274
282 282 281 280 279 279 278 277 276 275 274 274 273 273 272 272 271 271 270 270 269 269 268 268 267 267 267 268 268 268 268 269 269 269 268 268 269 270 270 271 272 273 274
280 279 279 278 277 276 275 274 274 273 272 272 271 271 270 270 269 269 268 268 267 266 266 266 265 266 266 266 267 268 268 268 268 268 268 268 269 270 270 271 272 273 274
277 276 276 275 274 273 272 272 271 270 270 269 269 268 268 268 267 267 266 266 265 265 265 264 265 265 266 266 267 268 268 268 268 268 268 268 269 270 270 271 272 273 274

GFSGL_850_thetae_072.txt.gz
Theta_e
315 316 317 317 317 316 315 315 315 315 315 315 316 320 322 321 322 321 320 321 322 322 321 319 317 315 317 315 312 312 311 310 308 306 306 305 304 302 300 297 297 295 295
317 315 315 315 315 314 314 315 315 316 316 319 320 321 321 320 320 318 319 322 321 322 321 319 317 316 316 314 312 311 309 307 307 306 304 302 301 299 297 295 294 292 291
323 317 316 315 315 316 315 315 316 316 317 319 320 318 322 317 318 319 319 321 320 321 321 320 318 316 315 314 311 310 307 306 304 303 302 300 298 295 293 291 289 288 288
325 323 320 318 317 317 316 316 316 316 316 320 321 322 322 316 317 320 319 320 320 320 320 318 316 314 313 311 309 307 304 304 301 299 297 295 293 291 289 287 288 288 288
325 325 325 325 321 319 318 318 318 320 321 321 320 320 323 317 321 321 318 320 321 319 317 315 313 312 311 307 306 304 302 301 298 295 293 290 289 287 287 287 286 286 286
325 326 325 325 325 324 322 321 321 321 323 323 322 321 323 323 321 321 321 320 319 318 316 313 311 310 307 304 303 301 299 296 293 291 289 287 287 286 285 285 285 284 285
323 325 326 325 325 325 324 324 323 323 324 324 324 323 322 321 321 321 320 317 316 315 311 311 308 306 303 301 301 298 294 291 289 287 286 286 286 285 284 284 284 283 283
324 325 326 326 326 325 325 324 324 324 321 322 321 320 320 320 320 319 319 316 313 311 309 306 304 303 301 300 296 291 290 287 285 286 285 285 284 283 283 282 282 282 282
324 325 325 326 326 326 325 325 324 324 323 321 320 320 320 319 318 317 314 312 309 306 304 303 302 300 297 293 291 288 286 285 285 285 284 284 283 282 281 281 281 282 282
325 325 326 326 326 324 323 322 321 320 320 319 318 317 315 314 311 310 309 307 305 304 302 301 298 294 291 289 286 285 285 284 284 284 283 282 282 281 281 280 280 281 282
326 326 325 324 324 322 322 321 321 320 318 316 314 313 310 308 308 305 303 303 302 301 299 295 292 290 286 285 284 284 284 284 283 283 282 282 281 281 280 280 280 280 282
324 325 324 324 322 322 322 320 319 315 313 312 310 309 306 305 303 302 301 300 298 296 293 291 287 285 284 284 283 283 282 282 281 281 281 280 280 280 280 279 279 279 280
324 324 324 323 322 318 317 318 314 311 311 310 309 307 304 301 300 299 297 295 294 292 290 287 284 283 283 282 282 281 281 280 280 280 279 279 279 279 278 278 278 278 279
323 322 321 318 317 316 314 310 311 310 309 308 306 303 301 300 297 296 295 293 291 289 286 284 282 282 281 281 280 280 280 279 279 278 278 278 278 277 277 277 277 278 279
319 318 316 314 311 310 308 307 306 305 305 305 303 301 299 297 296 293 291 290 287 286 283 281 281 280 280 280 280 279 278 278 278 277 277 277 276 276 277 277 277 277 277
316 314 313 310 307 306 306 304 303 302 301 301 300 299 297 293 291 291 289 288 286 283 280 281 280 280 279 279 278 277 277 277 276 276 276 276 275 275 276 276 275 275 276
311 310 309 308 306 305 303 303 303 299 297 295 293 292 291 290 289 288 286 284 281 280 282 281 279 278 277 277 277 277 276 276 275 275 274 274 274 274 274 274 274 274 275
308 308 307 306 304 302 299 297 295 293 292 291 291 290 288 287 285 283 282 282 283 282 281 279 278 278 277 277 276 276 275 275 274 273 273 273 273 273 273 273 273 273 274
303 301 299 297 295 293 291 291 291 291 290 289 287 286 284 284 283 282 281 280 279 279 278 278 277 276 275 275 274 274 273 273 272 272 272 272 272 272 272 272 272 272 273
295 293 292 291 291 291 290 289 288 287 286 285 284 283 282 281 281 280 279 279 278 277 276 275 275 274 273 273 272 272 272 271 270 270 270 270 271 271 271 271 271 271 272
291 290 290 290 289 288 287 286 285 284 283 282 281 280 280 279 279 278 277 276 275 274 274 273 273 272 271 271 270 270 270 269 269 269 269 270 270 270 270 270 270 271 271
289 288 287 286 285 284 284 283 282 281 280 280 279 278 278 277 276 275 275 274 273 272 272 271 271 270 270 269 269 268 268 268 268 268 269 269 269 269 270 270 270 271 271
286 285 284 283 283 282 281 280 279 279 278 277 276 276 275 274 274 273 272 272 271 270 270 269 269 268 268 267 267 266 267 267 267 268 268 268 269 269 269 269 270 270 271
283 283 282 281 280 280 279 278 277 276 275 274 274 273 272 272 271 270 270 269 269 268 268 267 266 266 266 266 265 265 266 266 266 267 267 268 268 268 268 269 269 270 271
281 280 279 278 277 276 275 274 273 273 272 271 271 270 270 269 269 268 268 267 266 266 265 265 265 265 265 265 265 265 266 266 266 266 267 267 268 268 268 268 269 270 271
276 275 274 273 273 272 271 271 270 270 269 269 269 268 268 267 267 266 266 265 265 265 265 265 265 265 265 265 265 265 266 266 266 266 267 267 267 268 268 269 269 270 271

GFSGL_850_thetae_075.txt.gz
Theta_e
315 317 317 317 316 316 316 316 317 317 316 316 315 315 316 315 314 314 316 320 321 321 319 317 320 320 320 319 317 316 315 313 312 310 310 309 308 306 304 302 300 296 294
316 314 316 317 317 316 315 314 315 315 315 315 314 314 314 314 314 314 318 319 320 320 319 319 321 321 320 316 315 316 313 312 311 309 308 306 305 305 302 299 295 293 290
322 319 315 315 317 317 316 316 315 315 315 315 315 315 315 317 320 320 321 318 318 319 319 321 319 320 319 316 315 314 313 310 310 307 305 304 302 300 296 293 290 289 289
326 324 322 318 315 315 316 316 316 315 315 315 316 316 316 318 319 319 321 318 320 321 321 320 319 319 319 317 315 313 311 309 306 304 303 300 297 294 291 288 288 288 289
325 325 325 325 321 316 315 315 315 315 315 315 315 315 316 318 320 321 321 318 319 319 319 318 319 318 315 313 313 312 310 307 304 303 301 296 292 289 287 287 287 287 288
324 324 324 324 324 324 320 317 316 316 315 315 316 317 321 319 319 320 322 320 321 319 319 318 318 314 313 311 311 309 305 304 301 299 295 291 288 286 286 286 286 286 286
322 322 323 324 324 324 324 322 320 318 317 317 318 320 321 323 322 322 322 321 320 320 318 316 316 314 310 309 306 305 302 302 299 293 290 287 286 286 285 285 285 285 285
322 322 323 323 324 324 323 323 322 321 321 322 322 322 323 323 323 322 321 320 319 317 314 312 311 310 307 306 303 302 300 295 290 288 286 285 285 285 284 284 284 284 284
322 322 323 324 324 324 324 324 323 322 323 322 322 322 322 321 321 320 319 318 315 314 310 308 306 305 303 302 300 297 292 289 286 285 285 285 284 284 284 283 283 283 282
322 323 324 324 325 325 324 323 322 323 323 321 321 320 320 319 319 319 317 313 311 308 307 305 302 301 300 299 294 290 286 285 284 284 283 283 282 283 282 283 282 282 281
323 323 324 324 324 323 323 322 322 321 320 319 318 318 318 316 314 310 308 308 309 307 304 302 299 298 295 291 288 285 284 284 283 283 282 282 282 282 282 282 281 280 280
324 324 324 322 323 322 321 322 321 320 320 318 317 313 311 308 306 303 303 302 302 302 300 297 295 293 290 287 285 284 283 282 282 282 282 282 281 281 281 281 281 280 280
323 323 323 324 323 322 321 319 319 317 317 314 310 307 305 303 301 300 299 299 297 296 294 292 290 287 285 283 282 282 281 282 284 283 281 280 280 280 280 280 280 280 279
322 321 322 322 321 319 317 314 313 313 312 308 306 304 301 300 299 298 297 295 295 293 290 288 285 283 282 281 281 281 282 283 281 279 279 279 279 279 279 279 279 278 278
321 320 320 319 317 316 314 311 308 306 305 306 305 303 301 299 296 295 294 293 291 288 286 285 283 282 281 282 281 281 281 279 278 278 279 277 279 279 279 278 277 276 276
318 317 315 313 312 310 308 306 303 303 303 301 300 299 298 295 295 293 292 291 290 289 287 284 282 282 282 281 281 280 278 277 279 279 278 278 278 278 276 276 275 274 275
315 313 310 308 307 304 303 303 303 298 298 297 295 293 292 291 290 290 289 289 288 286 283 281 281 281 281 279 278 277 277 278 277 277 276 276 276 275 274 273 273 272 272
311 310 308 307 304 302 299 297 295 294 293 290 289 290 290 290 289 288 287 285 284 283 283 282 281 280 279 278 277 276 276 275 275 274 274 274 274 272 272 271 271 270 270
307 303 299 297 296 294 293 292 292 291 290 290 288 287 287 286 285 284 283 282 281 280 279 279 278 277 276 275 275 274 273 273 273 272 272 272 271 270 270 269 269 270 270
294 293 293 292 291 290 290 290 289 288 287 286 285 284 283 283 282 281 280 279 279 278 277 276 275 274 274 273 272 272 272 271 270 269 268 268 268 268 268 268 267 268 268
290 290 290 290 290 288 288 287 286 285 285 283 282 281 281 280 279 278 277 277 276 275 274 274 273 272 272 271 270 270 269 268 268 268 267 266 266 267 268 267 267 267 268
289 288 287 287 286 286 285 284 284 283 282 281 279 279 278 277 277 276 275 274 273 273 272 272 271 270 270 269 269 268 267 267 266 266 266 266 267 266 265 266 266 266 267
286 286 285 284 283 283 282 281 280 279 278 278 277 276 276 275 274 273 272 272 271 271 270 269 269 268 268 267 266 266 266 265 265 265 265 265 264 264 265 265 265 266 267
284 283 282 281 281 280 279 278 277 276 276 275 274 273 272 272 271 270 270 269 269 268 268 267 267 267 266 266 266 266 265 265 265 265 265 265 266 266 265 265 265 266 266
281 280 279 278 277 276 275 274 273 272 272 271 270 270 270 269 269 269 268 268 268 267 267 266 266 266 266 266 265 265 265 265 265 265 265 265 266 266 266 267 267 267 267
275 274 273 273 272 271 271 270 270 270 270 269 269 269 269 268 268 268 267 267 267 267 267 267 266 266 266 266 265 265 265 265 265 265 265 266 266 266 267 267 267 267 268

GFSGL_850_thetae_078.txt.gz
Theta_e
321 322 320 320 321 320 320 319 319 319 318 318 318 318 318 319 318 318 319 320 320 316 314 317 320 321 318 317 318 320 319 317 315 314 312 309 309 309 307 307 304 303 300
318 321 319 319 320 320 319 319 318 318 318 319 318 318 318 318 318 318 318 316 315 315 315 315 315 318 318 319 319 319 319 317 315 313 313 312 311 307 307 305 302 299 297
320 318 319 319 318 318 317 319 320 319 319 319 319 319 319 318 318 318 316 315 314 316 319 316 318 319 318 316 319 319 317 315 314 313 312 311 309 306 306 305 301 295 292
323 321 319 316 316 317 317 317 318 318 318 318 319 319 318 318 318 314 315 316 318 320 320 319 318 316 317 319 320 318 317 315 313 312 310 308 306 304 303 298 292 290 289
324 323 324 321 318 317 317 317 317 317 318 317 317 317 317 318 316 315 316 317 318 319 321 318 318 320 319 319 318 317 316 313 311 310 307 305 303 300 296 291 289 288 288
324 324 324 324 323 321 319 317 318 318 318 319 319 318 316 316 315 315 316 317 319 321 321 319 319 319 318 318 316 315 313 312 309 307 305 301 299 293 290 288 288 288 289
323 324 324 324 324 324 322 321 319 319 318 318 318 317 317 317 315 316 319 318 318 319 321 319 321 320 317 315 312 311 309 307 304 303 301 298 293 289 287 287 287 288 289
322 322 322 323 323 323 322 322 322 320 319 319 319 319 319 317 317 318 320 321 321 321 321 319 319 317 314 311 308 305 304 303 301 300 296 292 288 286 286 285 285 285 286
322 322 322 322 322 322 323 322 321 320 320 320 320 320 321 322 323 322 322 321 320 320 319 317 314 311 308 305 306 303 301 300 297 293 290 287 286 285 285 284 284 285 286
321 322 323 323 322 322 322 322 321 322 321 321 322 322 322 322 322 321 322 321 319 318 315 311 307 305 304 301 300 299 297 295 291 287 285 285 285 284 284 283 282 282 284
324 324 323 323 323 322 322 323 323 323 323 321 321 321 320 320 318 319 318 316 314 312 308 304 301 300 300 299 296 293 290 287 285 284 283 283 283 283 282 282 282 282 281
324 323 323 323 323 324 322 322 323 322 322 321 320 319 317 315 313 311 307 304 305 306 304 300 298 296 296 292 290 286 284 283 283 283 282 282 283 283 282 281 281 280 280
322 322 322 322 322 322 322 321 321 319 318 317 316 315 312 308 305 302 301 301 300 299 297 297 294 292 289 286 284 283 283 283 282 283 285 283 282 281 281 280 280 280 280
321 320 321 321 321 321 320 318 318 318 317 315 313 310 306 302 299 299 298 297 297 296 294 292 289 284 283 282 282 282 283 285 284 283 282 280 279 279 280 279 280 281 280
320 320 320 318 319 319 316 315 312 310 309 310 308 305 303 299 297 297 297 296 295 292 289 287 285 284 284 285 284 283 282 281 281 280 279 279 279 278 278 277 277 277 277
318 316 315 315 314 311 310 309 304 303 303 302 301 301 298 298 296 295 293 291 290 290 289 287 284 283 282 282 281 280 278 279 278 277 276 276 276 275 275 275 275 275 276
312 311 309 308 307 305 305 302 302 296 296 296 295 295 294 292 290 290 290 289 288 287 284 283 282 281 280 279 279 278 278 277 277 275 274 274 274 273 273 274 274 274 275
306 307 307 304 302 301 299 296 294 293 292 290 289 290 289 289 288 287 287 286 284 282 281 280 280 279 278 277 277 276 275 274 274 273 273 272 272 271 272 272 273 273 273
303 300 299 298 295 293 292 292 292 290 289 287 286 286 286 285 284 283 281 281 280 279 279 278 277 277 276 275 274 273 273 272 271 271 271 270 270 270 271 271 271 271 271
294 293 293 292 290 289 289 287 286 286 284 284 283 282 281 281 280 280 279 278 278 277 276 276 275 274 273 273 272 271 271 271 271 270 270 269 269 269 269 270 270 270 271
290 290 289 288 288 287 287 287 285 284 283 282 282 280 279 279 278 277 276 276 275 274 274 273 272 271 271 270 270 270 269 269 268 268 268 267 267 268 268 268 269 269 270
288 288 288 287 287 286 285 284 283 282 280 280 279 279 278 278 276 275 275 275 275 274 273 272 271 269 269 268 267 267 267 267 266 266 266 266 266 266 267 267 268 268 269
286 286 285 284 283 283 283 282 281 279 278 277 275 275 275 274 273 272 272 271 271 271 271 270 269 268 267 267 267 265 265 265 264 264 264 264 264 265 266 266 266 267 268
284 283 282 281 281 280 279 277 277 276 273 273 272 271 271 270 270 270 270 270 270 269 269 269 269 268 268 268 267 266 265 264 265 265 263 263 263 264 264 265 266 266 267
280 280 279 278 276 275 274 273 272 271 271 270 270 269 269 268 268 268 268 269 269 268 268 268 268 268 267 267 267 267 266 266 266 266 265 265 264 263 264 264 265 265 266
274 274 273 273 272 272 271 271 270 270 269 269 268 268 268 268 268 268 268 268 268 268 268 268 268 267 267 267 267 267 267 266 266 266 266 266 266 264 264 264 265 265 266

GFSGL_850_thetae_081.txt.gz
Theta_e
325 324 324 323 322 323 322 322 321 321 320 319 318 316 316 316 316 316 316 317 319 318 319 320 320 319 318 320 320 320 318 318 318 316 317 315 314 312 308 310 308 308 306
325 324 324 324 324 322 321 322 322 321 321 319 319 318 317 316 317 317 317 319 319 320 319 320 319 318 318 316 316 316 317 317 317 317 317 314 313 311 310 309 307 306 305
324 324 324 324 323 323 322 322 322 322 322 321 320 319 318 319 320 319 320 320 320 319 320 320 319 317 315 316 317 317 317 316 317 317 317 315 313 311 312 310 306 306 304
324 324 324 324 323 323 323 323 322 322 321 321 321 320 320 320 320 320 320 320 319 319 319 319 318 317 317 319 318 318 315 316 316 317 315 314 312 312 309 307 305 303 299
326 325 324 324 324 323 322 323 323 322 322 321 321 321 321 321 321 320 320 320 320 320 320 319 316 318 320 317 316 316 315 316 317 315 314 314 311 311 308 307 303 300 294
327 326 325 324 324 323 323 322 321 321 322 322 321 321 321 320 320 319 320 321 320 320 319 317 317 318 320 320 317 318 319 318 318 314 312 310 312 309 307 303 299 295 291
328 328 327 326 325 324 323 323 322 322 321 320 320 320 320 320 319 319 318 319 319 319 317 316 316 319 321 320 319 318 317 316 312 311 310 308 306 305 302 299 293 290 289
328 328 327 327 326 325 325 324 323 322 322 322 321 321 321 321 320 320 320 319 319 318 317 317 319 318 318 320 319 314 313 309 307 305 303 303 300 298 297 292 289 288 289
328 327 327 327 327 326 326 325 324 323 323 322 322 321 321 321 321 321 321 321 319 317 318 319 320 319 319 319 318 311 307 304 302 302 301 298 293 291 289 286 286 285 286
327 327 327 327 326 326 326 325 325 324 323 323 322 321 321 321 321 321 321 319 319 319 319 318 317 315 312 309 307 304 303 301 299 299 298 293 289 285 285 284 285 284 285
326 327 326 326 326 325 325 325 324 324 323 322 321 321 321 321 320 320 320 319 318 317 315 312 308 304 302 300 299 298 297 297 294 288 287 286 284 284 287 285 283 283 283
323 325 326 326 325 325 325 324 324 323 322 321 321 320 320 319 319 319 318 315 312 309 307 304 300 297 297 296 296 295 293 286 286 285 283 283 283 283 283 283 283 283 282
324 325 326 325 324 324 324 323 322 321 321 322 321 319 318 315 314 313 311 306 303 302 301 298 296 294 293 292 289 285 284 283 282 285 284 283 283 283 283 283 282 281 280
319 320 321 322 322 321 321 320 319 319 320 318 319 317 312 310 309 305 302 301 299 296 294 293 293 292 292 287 283 284 284 285 285 284 284 283 282 282 281 280 280 280 280
315 316 316 316 316 316 314 314 313 312 310 312 311 310 308 303 299 299 299 297 295 295 294 293 293 292 289 287 286 286 285 284 283 281 282 281 280 280 280 279 279 278 278
311 309 308 308 308 306 306 306 301 304 302 301 303 302 299 296 293 293 294 294 293 292 291 290 287 286 284 283 282 282 281 280 280 279 279 278 278 277 277 276 276 276 277
309 306 303 299 301 302 302 301 299 294 295 293 294 293 292 289 290 289 289 289 288 287 286 284 284 283 282 282 281 280 280 279 278 277 276 276 275 275 275 275 275 275 275
302 304 302 302 299 296 296 294 294 293 289 287 288 288 288 287 286 286 286 286 285 284 283 282 281 281 280 279 278 278 277 276 276 275 274 274 273 273 273 273 273 274 274
298 296 294 294 294 293 291 289 288 286 286 285 284 285 284 285 283 283 283 282 282 281 280 279 279 278 277 277 276 275 274 274 273 273 273 272 272 272 272 272 272 272 272
292 292 291 289 288 287 287 286 285 284 283 283 283 282 282 281 281 281 280 280 279 278 278 277 276 275 274 274 273 273 273 272 272 271 271 270 270 270 270 270 270 270 271
289 289 288 288 287 286 285 285 284 283 283 282 281 280 280 280 278 278 277 277 276 276 275 274 273 273 272 272 271 271 270 270 270 269 269 269 268 268 268 268 269 269 269
288 287 286 285 284 284 282 282 282 281 280 279 278 278 278 277 276 275 274 274 273 272 271 271 271 270 270 269 269 268 268 268 268 267 267 267 266 267 267 267 268 268 269
286 285 284 283 282 282 282 280 279 278 277 276 276 275 274 273 272 272 271 270 270 269 270 270 269 269 268 269 269 267 266 266 266 265 265 265 265 266 266 266 267 267 268
282 282 281 280 279 278 277 276 275 274 274 273 273 272 271 271 270 270 269 269 269 269 269 270 270 270 270 269 269 268 267 267 267 267 266 264 264 264 265 265 266 266 266
277 276 275 274 273 273 273 272 272 272 272 271 271 271 270 270 269 268 268 268 270 270 270 269 269 269 269 269 268 268 268 268 267 267 267 267 265 263 264 265 265 266 267
272 272 272 272 271 271 271 271 270 270 270 270 269 269 269 268 268 268 269 269 269 269 269 268 268 268 268 268 268 268 267 267 267 267 267 267 267 264 264 265 265 265 266

GFSGL_850_thetae_084.txt.gz
Theta_e
324 323 322 322 322 322 321 321 319 317 313 310 308 310 313 317 317 316 315 316 316 316 316 316 317 317 317 318 318 318 318 318 317 318 317 317 316 316 316 317 313 312 310
326 324 322 323 322 323 322 321 322 321 317 313 310 311 314 316 317 316 316 315 315 317 317 316 318 317 317 318 318 318 318 318 318 318 318 317 316 316 316 315 314 311 309
326 326 325 323 323 323 322 322 323 322 320 317 314 316 314 315 315 315 315 315 316 316 317 319 319 318 319 319 319 319 319 318 318 317 317 316 316 314 314 311 311 310 308
325 326 326 325 324 324 323 323 323 324 323 322 321 320 320 320 319 319 318 318 318 317 318 318 318 320 320 320 320 319 318 317 318 317 315 317 315 315 314 314 311 311 308
326 324 326 326 325 325 326 325 323 323 323 323 323 322 321 321 320 319 319 319 317 318 319 320 321 320 320 319 319 318 316 317 318 317 315 316 315 315 314 314 312 310 309
329 327 325 326 326 325 325 325 325 323 323 323 323 323 322 321 321 320 320 320 320 321 321 320 320 319 320 320 320 318 318 319 317 317 316 316 316 314 313 311 309 305 302
330 329 327 325 325 326 326 324 324 324 324 324 323 322 321 321 321 320 320 320 321 321 321 321 321 321 320 320 318 319 317 319 317 317 316 316 313 311 309 307 304 301 299
329 330 329 328 327 326 326 326 324 323 324 324 324 324 323 322 322 322 322 322 321 321 321 321 321 321 320 320 319 317 317 318 316 315 311 308 307 305 303 302 300 298 295
330 329 329 329 328 328 327 326 325 325 324 324 323 323 323 323 322 322 321 321 321 320 320 320 319 319 319 319 317 317 315 313 308 306 304 302 301 300 299 297 295 291 290
323 329 329 329 328 328 328 327 326 325 325 324 324 324 323 322 322 322 322 321 320 320 319 319 319 319 318 318 315 311 307 304 301 298 297 296 295 295 296 291 288 286 285
323 322 327 328 328 328 328 328 327 327 326 325 324 324 323 323 323 323 323 322 321 322 321 320 318 317 314 311 306 302 300 299 296 295 294 292 289 286 284 284 285 285 286
322 323 324 328 328 327 328 327 327 327 327 326 325 324 323 322 322 322 322 322 321 318 316 313 309 307 304 300 298 297 295 294 293 292 287 284 285 287 286 287 286 285 284
318 319 322 324 326 326 325 326 326 326 326 325 324 323 321 320 319 318 318 319 318 312 307 304 300 296 295 293 293 293 294 293 289 287 287 287 285 285 285 284 284 284 284
317 316 318 318 321 322 323 323 323 324 324 323 323 319 313 302 304 309 304 301 303 301 299 294 292 292 292 293 293 292 290 288 287 286 285 284 284 283 283 282 282 281 280
313 313 311 309 310 312 314 313 312 310 310 315 313 305 306 304 294 293 294 295 296 293 291 291 291 291 289 287 286 286 285 285 285 284 283 282 281 281 280 280 279 278 278
308 311 309 306 302 301 299 299 297 296 297 297 299 300 295 295 294 293 291 290 290 290 290 289 288 286 285 284 284 283 282 282 281 281 280 279 279 278 277 277 276 276 276
303 303 302 304 302 299 300 298 294 289 290 290 289 291 290 290 289 289 288 287 287 288 287 285 284 284 283 282 282 281 280 279 278 278 277 277 276 275 275 274 274 274 274
299 299 298 296 295 292 291 290 288 286 285 285 285 286 286 285 285 286 285 286 285 285 284 283 282 281 280 280 279 279 278 277 276 276 275 274 274 273 273 272 272 272 272
293 292 292 291 290 289 289 286 287 285 284 284 284 284 284 284 284 283 284 284 282 281 281 280 280 279 279 278 277 276 276 275 274 273 273 272 272 271 271 270 270 270 270
288 287 287 286 286 285 286 285 284 283 282 282 282 282 282 284 283 282 281 281 280 279 278 278 277 277 276 275 274 274 273 272 272 271 271 270 270 269 269 269 269 269 269
287 286 286 286 285 285 285 284 284 283 282 281 281 280 281 282 280 280 279 279 278 277 276 275 274 274 273 272 272 271 271 270 270 269 269 269 268 268 267 267 268 268 268
286 286 285 284 283 283 282 282 281 281 280 280 279 278 279 278 277 277 276 275 275 274 273 273 272 272 271 271 271 270 269 268 268 268 268 268 268 267 266 267 267 267 267
283 283 282 281 281 280 280 279 279 278 278 277 277 276 276 275 274 273 272 271 272 272 271 271 271 271 270 269 269 269 268 269 269 269 268 268 268 266 266 266 266 266 266
281 280 280 279 278 277 276 276 275 275 274 274 273 272 272 271 271 271 271 270 270 270 270 270 269 269 270 269 269 269 269 269 268 268 268 268 268 268 267 266 266 266 266
276 276 275 275 274 274 274 273 273 273 272 272 271 271 270 270 270 269 270 270 269 269 269 269 269 269 269 269 269 269 268 268 268 268 268 268 268 268 267 266 265 265 266
273 273 273 272 272 272 271 271 271 271 270 270 269 269 269 269 268 269 269 269 269 270 269 269 269 269 268 268 268 268 268 268 268 268 268 268 268 268 267 265 266 265 265

GFSGL_850_thetae_087.txt.gz
Theta_e
321 322 322 322 322 322 321 321 320 317 315 315 314 313 312 312 314 315 313 315 316 317 317 317 317 316 316 316 316 317 318 318 319 318 317 318 318 318 318 317 317 317 317
324 322 322 323 321 322 322 322 321 320 318 316 314 314 314 314 314 315 313 314 316 316 317 317 316 317 316 316 317 317 317 317 318 318 318 317 318 317 317 317 315 315 316
323 324 323 323 322 322 322 322 321 321 320 319 315 314 314 312 313 312 312 313 314 316 317 316 316 316 316 316 316 316 317 317 318 318 318 318 316 317 317 316 316 315 315
325 325 325 324 322 323 322 321 322 321 321 321 320 320 319 314 310 311 312 312 313 316 317 316 316 316 315 317 317 316 317 319 319 318 318 317 316 317 317 316 315 315 314
328 324 326 326 325 324 322 321 322 322 321 321 321 322 321 319 316 311 310 311 314 315 315 315 315 316 316 316 317 317 318 320 319 318 318 317 317 317 317 315 316 315 314
329 328 325 325 326 326 325 324 323 322 321 322 322 322 322 321 320 318 316 313 314 314 316 318 318 317 317 317 317 318 320 320 319 319 320 318 318 317 318 315 315 313 310
330 329 329 326 325 326 326 326 325 324 324 323 322 324 323 323 322 321 320 319 320 320 320 319 319 318 318 319 320 321 321 320 320 320 319 318 317 315 315 314 313 311 307
330 330 330 329 327 325 326 326 326 326 326 325 324 323 323 323 323 323 322 322 321 321 321 320 320 320 320 321 321 321 321 321 321 320 319 316 315 312 310 308 307 304 301
326 328 328 328 329 328 326 326 325 326 326 325 325 324 324 323 323 323 323 323 322 321 321 321 321 321 321 321 321 321 321 321 320 319 317 313 307 306 304 302 300 298 297
322 322 323 326 328 329 329 328 327 326 326 326 325 324 324 324 324 323 323 322 322 322 322 322 322 321 320 320 320 319 320 318 313 308 303 301 300 299 298 297 295 293 292
319 320 321 322 324 328 329 329 328 327 326 326 325 325 324 324 324 324 324 324 323 322 322 322 321 320 320 319 319 317 313 307 300 298 296 295 295 294 294 294 291 287 286
316 318 319 320 322 325 327 327 328 328 328 327 326 325 325 324 324 324 324 323 322 322 322 321 319 318 318 314 310 306 302 299 296 294 293 292 291 290 289 288 288 288 287
314 314 314 316 318 320 322 323 322 325 327 327 326 325 325 321 321 323 323 323 322 315 305 303 301 297 295 295 293 293 293 292 292 293 290 291 288 287 287 286 285 285 284
311 311 311 310 311 313 314 316 317 315 313 317 316 314 305 303 306 311 311 309 307 306 298 294 291 290 292 290 291 290 290 288 288 287 286 285 284 285 284 284 283 284 283
306 308 308 307 307 306 310 308 305 306 302 300 302 301 298 294 294 294 297 299 297 293 291 290 290 289 287 287 286 285 285 285 285 285 284 284 283 282 281 281 280 279 278
304 304 303 302 302 300 297 300 301 296 297 296 296 297 292 291 290 289 289 288 289 288 289 288 287 286 286 286 284 284 284 283 283 283 282 281 280 279 278 278 277 276 275
300 300 300 298 298 297 296 292 291 288 289 289 287 286 288 288 288 288 289 289 288 289 287 285 284 283 282 282 282 281 281 280 279 279 278 278 277 276 276 274 274 273 273
294 295 296 294 293 292 290 289 287 286 286 285 286 286 285 286 287 287 287 288 287 286 285 284 283 282 281 281 280 279 278 278 277 276 276 275 274 273 273 272 272 271 271
289 289 290 289 289 288 287 287 286 285 284 284 284 285 285 285 286 286 286 286 284 283 282 281 281 280 279 278 277 277 276 276 275 274 273 273 273 272 272 271 270 270 269
286 286 287 287 286 286 285 285 284 283 283 283 283 283 283 284 284 283 283 282 281 280 279 279 278 278 277 276 276 275 274 273 273 272 272 272 271 271 270 270 269 268 268
285 285 285 285 285 284 284 283 282 282 282 281 280 281 281 282 280 280 279 279 279 278 277 277 276 275 274 273 273 273 272 272 272 271 271 271 270 270 269 269 268 267 267
284 284 283 283 282 282 282 281 281 280 279 279 278 278 278 279 278 277 276 275 275 274 274 273 273 272 272 272 272 272 272 272 271 270 270 269 269 269 269 268 267 267 267
283 282 281 280 280 279 279 279 278 278 277 276 276 276 275 274 273 273 273 272 272 272 272 272 272 271 271 271 271 271 270 270 270 269 269 269 268 268 269 268 268 267 266
281 281 280 279 278 278 277 276 276 275 274 273 273 272 272 272 271 271 271 271 271 271 271 271 271 271 271 270 270 269 269 269 269 269 269 269 269 269 269 268 268 267 267
276 276 275 275 274 274 274 273 273 272 272 271 271 271 271 271 271 270 270 270 270 270 270 270 270 270 270 269 269 269 269 269 269 269 269 269 269 269 269 268 268 267 266
274 273 273 273 272 272 272 272 271 271 271 271 270 270 270 270 270 270 269 269 270 270 269 269 269 269 269 269 269 269 269 269 269 269 269 269 268 268 268 268 268 267 267

GFSGL_850_thetae_090.txt.gz
Theta_e
319 317 320 322 320 320 321 320 320 320 319 318 317 314 314 314 314 313 313 314 313 315 316 317 318 317 317 317 317 317 317 316 316 316 316 317 318 318 318 317 317 317 318
323 317 317 321 321 320 320 321 321 320 320 317 316 315 314 314 316 314 313 313 312 313 315 317 317 317 317 317 316 316 316 316 316 316 317 316 317 317 318 318 318 317 316
325 319 318 319 322 321 320 321 321 321 320 319 316 316 315 314 314 314 313 313 313 314 314 313 314 316 316 317 317 317 317 316 316 316 316 316 317 317 317 318 317 316 316
327 324 321 320 319 319 321 321 321 321 321 321 319 318 317 316 314 314 314 313 313 314 315 314 313 315 316 316 317 316 316 316 316 316 317 316 317 317 319 318 317 315 316
327 327 326 324 321 322 321 320 321 320 321 321 321 320 320 319 317 314 314 314 314 314 314 314 313 314 314 314 316 316 316 316 315 316 318 318 318 318 319 318 318 318 316
327 326 326 326 324 324 324 323 322 321 321 320 320 320 320 320 321 320 318 317 316 313 311 311 312 312 312 312 315 316 316 316 316 317 318 317 318 319 319 318 318 317 316
328 326 325 325 325 325 325 325 325 324 323 321 321 321 321 320 321 321 321 321 319 318 317 313 311 311 311 312 314 315 317 318 318 319 319 319 319 319 319 319 318 317 315
326 326 325 324 324 324 325 325 325 325 325 324 323 322 322 322 321 321 322 322 320 320 319 318 317 317 317 319 320 319 319 319 319 319 320 320 321 320 319 316 315 313 310
321 323 323 324 326 324 324 324 325 326 326 325 325 324 324 324 324 323 322 322 322 322 321 320 320 320 321 320 320 320 320 320 321 320 321 320 319 316 314 315 310 308 303
318 318 319 320 321 323 326 325 324 324 325 325 325 325 325 325 325 324 324 324 323 322 322 322 322 322 320 319 320 321 321 320 321 320 318 315 315 312 309 304 303 302 300
313 315 316 318 318 320 322 324 325 325 325 325 325 325 324 324 325 325 324 324 324 324 323 323 323 322 321 320 320 320 320 319 309 304 302 301 298 297 297 298 296 295 295
311 311 311 312 314 316 317 320 322 323 323 323 324 324 324 324 324 324 324 324 323 324 323 321 319 318 318 316 316 314 310 306 297 295 294 292 292 292 292 292 292 292 290
308 308 309 309 310 311 314 316 318 318 319 318 317 315 313 311 311 317 322 323 316 314 309 315 311 311 308 301 298 293 294 294 293 292 291 289 289 288 286 286 287 287 287
305 306 306 306 306 307 308 308 309 310 310 310 310 309 305 304 299 295 299 304 307 303 293 294 296 296 294 293 292 292 292 291 290 289 287 286 285 286 285 285 285 285 284
305 303 303 303 303 303 304 304 303 302 302 302 301 298 298 299 297 296 294 294 294 294 293 291 290 289 289 289 287 288 287 287 287 285 285 284 284 283 283 283 282 281 280
301 300 299 298 299 297 297 297 295 294 293 294 294 295 291 290 290 292 289 290 289 291 291 290 289 288 288 287 286 285 285 285 284 283 283 282 282 281 280 279 277 276 275
297 296 296 295 293 292 291 291 289 287 288 287 287 287 287 287 288 289 289 289 288 289 288 286 286 285 284 283 283 284 283 282 281 282 281 279 278 277 275 274 274 273 273
292 292 292 292 291 290 289 288 288 287 286 285 285 286 286 286 286 287 288 288 287 287 285 284 283 282 282 282 281 281 281 279 278 277 276 275 274 274 273 273 272 272 272
289 289 288 288 288 287 287 287 286 285 285 284 285 285 285 286 286 286 286 287 285 283 282 281 281 281 280 279 278 277 276 275 274 274 273 273 272 272 272 272 272 272 271
287 287 287 286 286 285 285 285 284 284 284 284 284 283 283 285 285 284 283 283 282 281 280 279 278 278 277 276 275 274 274 273 273 272 272 272 272 272 272 272 271 271 270
285 285 285 285 285 284 284 283 283 283 282 282 281 281 282 283 281 281 280 279 279 277 277 276 275 274 274 273 273 273 273 272 272 272 272 271 271 271 271 271 270 270 269
284 284 284 284 283 283 282 282 282 281 281 280 280 279 279 280 279 278 277 276 275 274 274 273 273 273 273 272 272 272 272 271 271 271 271 271 271 271 270 270 269 269 268
283 283 282 282 282 281 280 279 279 278 278 278 277 277 276 275 274 273 273 273 273 272 272 272 272 272 272 271 271 271 271 271 271 271 270 270 270 269 269 269 269 268 268
281 281 280 280 279 279 278 277 277 276 275 274 273 273 272 272 272 272 272 272 271 271 271 271 271 271 271 271 271 271 271 270 270 270 269 269 269 269 269 268 268 268 268
277 277 277 277 276 275 274 274 273 273 273 272 272 271 271 271 270 270 270 271 271 271 271 271 271 270 270 270 270 270 270 269 269 269 269 269 269 269 269 269 268 269 268
274 274 274 273 273 273 272 272 272 271 271 271 271 271 270 270 270 270 270 270 270 270 270 270 270 270 270 270 269 269 269 269 268 268 268 269 269 269 269 269 269 269 268

GFSGL_850_thetae_093.txt.gz
Theta_e
324 321 317 319 320 320 320 320 320 320 320 320 320 321 320 320 319 318 318 319 317 316 314 313 313 313 313 315 317 316 317 317 317 316 317 317 316 316 316 316 317 317 317
325 323 318 318 319 319 320 320 320 320 320 320 319 320 319 318 316 316 315 315 316 314 313 313 314 314 313 313 317 318 317 317 317 317 317 317 316 316 316 316 316 316 317
326 324 321 318 320 319 319 320 320 320 320 320 319 319 318 318 315 315 314 314 314 314 314 313 313 313 315 316 317 318 317 316 316 317 316 316 316 316 316 315 315 316 316
326 325 324 320 318 318 318 319 319 320 320 320 320 319 318 317 315 314 314 314 313 313 313 313 314 313 313 314 316 317 317 317 317 317 317 317 316 316 316 315 316 316 316
327 327 325 323 321 320 320 319 319 319 320 321 320 320 319 318 316 315 314 314 314 315 315 313 313 313 312 313 314 314 314 315 316 316 316 316 316 316 315 316 316 317 317
327 326 325 325 324 323 322 322 321 320 320 319 320 321 321 320 320 318 316 315 315 314 313 313 313 313 313 313 314 314 314 314 315 315 314 316 316 316 316 316 316 316 315
324 323 324 324 324 324 324 324 323 322 323 322 321 321 320 320 320 320 320 319 319 319 318 316 315 315 315 314 313 312 312 313 313 313 313 314 315 315 316 317 317 317 317
324 324 323 323 323 323 324 324 324 324 324 324 323 323 323 323 322 321 320 320 320 320 320 320 320 320 320 319 318 316 315 314 313 313 315 317 316 317 317 318 318 317 317
321 322 322 322 322 323 323 323 323 323 324 324 324 324 323 323 323 324 323 322 321 321 320 320 320 320 321 320 319 318 319 318 318 318 319 319 319 319 319 318 317 316 313
313 315 317 319 319 320 321 322 323 323 323 323 323 324 324 324 323 323 322 322 323 323 324 323 323 321 321 320 320 320 318 319 319 319 319 318 317 317 316 313 310 308 306
309 310 311 312 313 315 317 318 320 320 321 322 323 323 323 323 323 323 323 323 323 321 320 319 320 321 319 319 321 319 318 317 317 314 308 304 299 298 298 298 298 298 297
308 308 308 309 309 310 312 314 316 318 318 318 320 321 320 319 320 321 321 322 322 320 316 314 316 319 321 321 315 311 309 313 309 300 295 294 294 294 292 292 292 292 290
305 307 307 306 307 308 308 309 310 312 313 313 313 312 311 311 311 311 311 311 308 311 312 311 308 299 299 305 305 304 304 297 291 292 292 291 291 289 289 289 289 288 288
304 304 305 306 306 305 306 305 305 306 305 304 304 304 302 301 300 299 301 301 299 299 297 296 297 298 297 292 292 292 292 292 292 291 287 286 285 286 287 286 286 285 285
302 300 299 302 303 303 302 302 302 301 299 299 298 297 296 296 294 293 294 295 295 293 293 292 291 290 289 289 289 287 288 288 287 286 286 285 285 284 285 284 284 284 282
298 297 296 296 296 296 293 293 294 295 293 291 292 291 288 288 289 291 291 291 291 291 291 289 287 287 286 285 285 284 284 284 283 283 283 283 283 283 281 279 277 276 276
295 294 293 293 293 292 291 290 290 289 291 289 287 287 287 288 288 289 289 289 289 290 290 287 285 284 284 284 284 284 283 282 282 282 282 280 277 276 276 276 275 275 275
291 291 290 289 289 288 287 287 287 287 287 286 286 286 285 286 287 287 287 288 288 287 286 285 284 282 282 282 282 281 281 280 278 277 276 275 275 275 274 274 274 273 273
288 288 288 287 287 287 286 286 286 286 285 285 285 285 285 285 286 286 286 287 285 284 283 282 282 281 281 280 278 277 276 275 275 274 274 274 273 273 273 273 272 272 272
287 286 286 286 285 285 285 285 285 285 284 284 284 283 283 284 285 284 283 282 282 281 280 280 279 278 276 275 274 274 274 274 273 273 273 273 272 272 272 272 272 271 271
285 285 284 285 285 284 284 284 284 283 283 283 282 281 281 282 281 281 280 280 279 278 277 276 275 274 274 273 273 273 273 272 272 272 272 272 272 272 271 271 271 271 271
284 284 284 284 283 283 283 282 282 282 281 281 280 280 279 279 279 278 277 276 275 274 274 273 273 273 273 272 272 272 272 271 271 271 271 271 271 271 271 271 271 271 270
282 282 282 282 282 281 281 281 281 280 280 278 277 277 275 274 273 273 273 272 272 272 272 272 272 272 272 271 271 271 271 271 271 271 271 271 271 271 270 270 270 270 269
280 280 280 280 279 279 279 279 278 277 275 274 274 273 273 273 272 272 272 271 271 271 271 271 271 271 271 271 271 271 271 270 270 270 270 270 270 270 270 270 269 269 269
277 277 277 277 276 276 275 274 274 273 273 273 272 272 272 272 271 271 271 271 271 270 270 270 270 270 270 270 270 270 270 270 270 270 270 270 270 270 269 269 269 269 268
274 274 274 274 273 273 273 273 272 272 272 271 271 271 271 270 270 270 270 270 270 270 270 270 270 270 270 270 270 270 270 269 270 269 269 269 269 269 269 269 268 268 268

GFSGL_850_thetae_096.txt.gz
Theta_e
328 327 324 318 317 319 320 320 320 320 320 321 321 321 321 320 318 317 316 316 317 316 317 318 317 317 316 316 317 317 316 315 316 315 315 316 317 317 316 316 316 316 316
328 327 324 319 318 319 320 320 320 319 319 320 320 321 321 321 320 319 317 317 318 319 318 317 317 316 316 315 315 314 313 314 315 316 316 317 317 317 316 317 316 316 316
327 326 325 323 318 318 319 319 320 320 320 320 319 319 320 320 320 319 319 319 318 318 318 317 317 316 315 313 313 313 313 313 314 317 318 317 317 316 316 317 317 316 316
326 325 325 324 322 319 318 318 318 320 320 320 320 319 319 319 320 320 319 318 316 316 316 316 318 316 314 313 313 313 313 314 315 315 317 317 317 317 317 317 317 316 316
325 325 325 325 324 322 319 319 319 318 318 319 320 320 320 319 318 318 318 317 317 315 315 314 315 316 315 314 314 313 313 313 314 315 315 315 315 315 315 315 316 314 314
325 325 324 324 324 324 323 322 321 321 320 320 319 319 320 320 320 319 318 317 316 315 314 314 314 314 314 314 313 313 313 313 313 313 314 315 315 315 314 314 314 314 314
323 322 322 321 322 323 324 323 323 324 323 323 323 322 322 321 320 320 320 320 319 318 317 316 316 316 315 315 314 314 313 313 313 312 313 314 315 315 315 314 314 314 314
320 321 320 321 322 322 322 322 322 322 323 323 323 323 323 323 323 323 322 321 320 320 320 319 319 319 319 319 319 319 318 318 317 316 315 314 315 315 315 314 314 314 315
318 319 319 319 321 321 322 322 322 322 321 321 323 323 323 323 323 323 323 321 320 321 321 322 321 321 321 320 319 319 319 319 319 318 316 315 315 314 314 313 314 313 314
311 312 313 315 316 317 317 318 319 320 321 322 321 321 322 322 322 322 322 321 321 320 320 320 319 318 320 320 318 316 315 315 314 314 314 313 312 311 312 314 315 311 310
307 308 309 310 310 310 311 313 315 317 318 319 319 319 320 319 319 320 321 321 319 318 316 314 314 314 314 315 313 314 313 312 311 311 308 304 301 299 300 300 300 301 300
305 306 307 308 308 308 308 309 310 312 313 314 314 313 311 310 311 312 313 314 313 312 313 312 311 312 313 311 310 310 308 309 306 304 300 297 296 294 293 293 293 293 292
302 303 304 305 305 306 306 307 307 306 307 307 307 307 306 305 305 305 304 304 304 305 304 303 301 301 300 301 303 300 298 297 295 294 292 290 288 287 288 288 288 287 289
301 300 300 303 303 303 303 303 303 303 302 301 300 299 297 297 297 296 297 297 296 296 295 295 295 295 294 292 292 292 292 290 290 288 285 284 284 285 286 285 286 285 286
300 300 298 299 299 300 299 297 296 296 296 297 295 294 294 293 290 291 293 293 293 293 292 291 291 291 290 289 288 288 287 287 287 285 285 285 284 284 285 284 285 283 282
296 296 296 295 295 296 294 293 291 288 288 290 289 290 289 288 289 290 290 290 289 289 291 289 288 287 287 286 286 285 285 285 284 284 284 284 283 282 279 277 277 277 277
292 292 292 292 291 291 291 291 290 288 290 288 287 288 288 288 288 288 288 288 288 288 288 286 285 284 284 284 284 284 284 283 283 283 280 278 277 276 276 276 275 275 275
290 290 289 289 288 288 288 288 287 287 287 286 286 286 286 287 287 287 286 287 287 286 285 284 283 282 282 282 282 281 280 278 277 276 275 275 275 275 275 275 274 274 273
287 287 287 287 287 286 286 286 286 286 286 285 285 285 285 285 285 285 285 286 285 284 283 282 281 281 280 278 276 276 275 275 275 275 275 274 274 274 274 273 273 273 273
285 284 285 285 284 284 284 284 284 284 284 284 284 283 283 283 285 284 284 283 283 281 280 279 277 276 275 275 274 274 274 274 274 274 274 273 273 273 273 273 272 272 272
284 284 284 284 284 283 283 283 283 283 283 283 283 282 282 283 283 281 280 279 278 276 275 274 274 274 273 273 273 273 273 273 273 272 272 272 272 272 272 271 271 271 271
283 283 283 283 282 282 282 282 281 281 281 281 280 279 278 279 277 277 276 275 274 274 273 273 273 273 272 272 272 272 272 272 272 271 271 271 271 271 271 271 271 271 271
281 281 281 281 281 280 280 280 279 279 278 277 276 275 274 274 273 273 273 272 272 272 272 272 272 272 271 271 271 271 271 271 271 270 270 271 270 270 270 270 270 270 270
279 279 279 279 279 278 278 277 276 275 274 273 273 273 272 272 272 272 271 271 271 271 271 271 271 271 271 271 271 271 271 270 270 270 270 270 270 270 270 270 270 270 270
276 276 276 276 275 275 274 274 273 273 272 272 272 272 271 271 271 271 270 270 270 270 270 270 270 270 270 270 270 270 270 270 270 270 270 270 269 269 270 270 270 270 270
273 273 273 273 273 273 272 272 272 271 271 271 271 271 270 270 270 270 270 270 270 270 270 270 270 269 269 269 269 269 269 269 269 269 269 269 269 269 269 269 269 269 269

GFSGL_850_thetae_099.txt.gz
Theta_e
329 328 327 325 321 318 320 320 320 320 321 321 320 321 321 320 320 320 319 319 317 315 313 314 315 315 318 316 315 314 312 315 315 314 315 316 315 316 315 316 315 315 316
328 328 326 325 320 317 319 320 320 320 320 320 320 320 321 320 320 319 318 317 316 315 313 314 315 315 315 313 315 314 314 315 316 315 316 316 314 315 315 316 317 317 317
327 327 326 323 321 317 319 320 320 320 319 319 320 320 320 320 320 320 318 317 317 315 313 314 315 316 315 314 317 317 316 316 316 316 314 314 313 313 314 315 317 317 317
326 326 326 324 323 318 318 319 319 320 320 320 320 320 319 319 320 320 321 319 317 317 317 318 318 318 318 318 317 317 315 315 313 313 313 313 314 314 315 315 317 317 316
325 325 325 325 324 323 319 319 319 318 319 320 320 320 320 319 319 319 319 320 320 318 318 318 317 316 317 318 317 317 317 316 314 314 314 315 315 316 316 315 316 314 313
323 324 324 324 324 324 323 320 319 319 319 318 318 318 319 320 320 320 319 319 319 318 318 318 318 316 315 315 315 316 317 316 315 314 315 315 314 314 314 315 314 315 315
321 321 322 322 321 321 322 322 322 322 321 321 321 320 321 321 321 320 320 320 320 320 319 319 318 317 316 315 314 314 314 314 314 314 314 314 314 314 314 314 314 314 314
318 320 320 320 320 320 320 320 321 320 321 322 322 321 322 320 321 322 322 322 321 321 320 320 320 320 320 319 319 318 318 318 318 317 316 315 314 314 314 314 314 315 315
317 313 316 318 318 318 319 319 319 320 320 321 320 320 320 319 320 321 321 321 320 322 321 319 318 319 318 318 316 315 316 316 315 315 314 313 313 313 314 314 314 313 313
308 308 311 313 314 314 314 316 317 318 318 318 318 319 319 318 318 320 320 320 319 317 317 317 317 317 317 317 316 315 314 313 312 311 311 311 310 309 309 309 311 309 307
304 304 306 307 308 308 309 310 311 313 314 315 315 314 314 314 314 316 319 319 317 316 315 313 313 313 313 312 312 312 312 311 312 309 308 308 305 302 300 299 299 300 300
304 305 306 306 306 306 306 307 308 308 309 310 310 310 309 308 309 310 311 311 310 309 309 308 307 304 305 305 306 307 307 306 304 302 298 297 295 294 292 292 291 291 290
301 303 304 304 305 304 304 304 304 304 304 304 304 305 304 303 302 302 303 302 302 302 301 299 298 297 297 298 296 296 296 297 296 294 292 291 289 288 287 288 288 287 287
299 300 300 301 301 301 302 302 302 301 300 300 299 297 296 295 295 294 295 295 294 294 293 293 292 293 292 292 292 292 291 291 290 289 288 286 286 287 287 286 287 287 287
296 296 297 297 297 297 298 298 297 296 295 295 293 291 292 291 290 290 291 292 292 292 291 291 290 290 289 288 288 287 287 286 286 286 286 285 285 285 285 285 284 282 281
294 294 294 294 293 293 292 291 290 289 289 289 289 291 289 289 289 289 289 289 289 289 290 289 288 287 287 286 286 285 285 285 284 284 284 283 282 281 279 278 277 277 277
292 292 292 292 291 291 290 289 289 288 289 289 288 288 288 288 288 289 288 288 288 288 289 286 286 285 284 284 284 284 284 283 281 280 278 277 276 276 276 276 276 276 275
289 289 290 290 289 289 288 288 287 287 287 287 287 287 286 286 287 287 286 287 287 287 286 285 285 284 284 283 282 280 278 277 276 276 276 276 275 275 275 275 274 274 273
286 286 286 286 286 286 286 286 286 286 286 286 285 285 285 285 285 285 285 286 286 285 284 283 282 279 277 276 276 276 276 275 275 275 275 274 274 274 274 273 273 273 273
285 284 285 285 284 284 284 285 285 285 285 284 284 284 283 283 284 284 284 283 282 280 278 277 276 276 275 275 274 274 274 274 274 274 274 273 273 273 273 272 272 272 272
283 283 283 284 284 283 283 284 283 283 283 283 282 281 281 282 282 281 279 277 276 275 275 274 274 274 273 273 273 273 273 273 273 273 272 272 272 272 272 272 272 271 271
282 282 282 282 282 282 281 281 281 281 280 280 280 279 278 277 276 275 275 274 274 274 273 273 273 273 273 272 272 272 272 272 272 272 272 271 271 271 271 271 271 271 271
280 280 280 280 280 280 279 279 279 278 277 276 275 274 273 274 273 273 273 273 272 272 272 272 272 272 272 272 271 271 271 271 271 271 271 270 270 270 270 270 270 270 270
278 279 279 279 278 278 277 276 275 274 274 273 273 272 272 272 272 272 271 271 271 271 271 271 271 271 271 271 271 271 271 270 270 270 270 270 270 270 270 270 270 270 270
275 275 276 275 275 274 274 273 273 272 272 272 271 271 271 271 271 270 270 270 270 270 270 270 270 270 270 270 270 270 270 269 270 270 270 269 269 269 269 269 269 269 269
273 273 273 273 273 272 272 272 271 271 271 271 270 270 270 270 270 270 270 270 269 269 269 269 269 269 269 269 269 269 269 269 269 269 269 269 269 269 269 269 269 269 269

GFSGL_850_thetae_102.txt.gz
Theta_e
326 328 328 327 325 323 321 320 320 320 321 320 320 321 321 322 321 322 321 322 322 320 320 318 318 318 318 317 315 316 315 314 314 314 314 317 318 316 315 316 315 316 315
325 327 327 326 324 322 320 320 320 320 320 321 320 320 321 321 322 321 321 321 320 319 318 318 317 316 315 315 314 316 317 317 317 316 314 313 316 319 319 319 316 315 315
326 327 327 325 323 321 320 320 320 320 320 321 321 320 321 321 320 320 320 319 319 318 317 316 315 316 316 316 315 314 316 315 315 315 315 316 317 317 318 319 319 318 314
323 326 325 325 322 321 320 319 320 320 320 319 320 320 321 321 320 320 320 319 319 318 317 317 316 316 315 316 315 315 316 315 314 315 316 316 316 317 317 317 317 317 318
325 324 323 322 321 320 318 319 319 320 320 320 319 319 319 320 320 320 320 320 321 319 318 317 317 317 317 317 316 317 317 316 315 317 317 316 315 315 316 317 317 317 317
322 321 322 323 323 323 319 319 319 319 319 319 319 319 319 320 320 319 319 319 319 320 320 319 318 318 318 318 318 316 316 318 318 317 316 316 317 317 317 317 317 318 318
320 320 321 320 321 322 323 321 320 319 319 319 319 318 319 318 318 319 319 318 319 319 319 319 319 319 319 317 317 317 316 315 315 316 317 317 318 318 317 316 316 316 316
318 318 319 319 321 322 321 321 320 320 320 319 319 319 318 319 320 320 319 318 318 318 319 319 319 319 319 318 317 317 317 317 315 314 314 314 314 314 314 315 315 315 315
314 314 314 315 318 319 318 319 319 320 320 320 320 319 319 319 320 320 320 321 321 318 316 316 316 316 315 316 315 315 315 315 314 314 313 313 313 313 313 312 312 312 312
311 311 310 312 315 314 315 316 317 317 317 317 318 318 319 318 320 320 319 320 320 319 318 317 318 317 317 317 315 313 312 312 311 310 310 310 309 309 310 309 307 307 305
305 309 308 307 307 309 309 310 313 313 312 313 312 312 311 312 313 315 315 315 315 315 314 313 311 312 311 311 311 311 312 309 309 306 306 304 305 299 299 298 298 298 299
303 304 304 304 305 306 307 305 306 307 308 307 307 307 306 306 306 307 307 307 307 308 308 305 304 303 303 303 303 304 305 302 301 299 297 296 294 294 293 291 291 291 292
300 300 301 300 300 301 302 303 301 302 302 302 302 302 300 299 299 299 300 300 300 300 300 298 298 297 297 297 295 295 295 295 294 293 292 291 290 289 288 288 288 288 288
298 298 298 299 299 299 299 297 298 296 296 296 296 295 294 294 294 293 294 295 294 295 293 293 292 293 293 292 292 292 291 291 291 290 289 287 287 287 287 287 286 286 285
294 295 295 296 296 295 296 295 294 294 293 293 292 292 292 291 291 291 292 292 293 292 292 291 291 290 290 289 289 289 288 288 287 286 286 285 285 285 285 283 281 280 279
291 292 292 292 289 288 289 290 291 290 290 290 290 290 289 289 289 289 290 289 289 289 290 289 288 287 287 286 287 287 287 286 286 285 285 283 282 280 279 278 278 278 277
289 287 287 286 285 285 284 285 287 287 289 289 288 288 288 288 288 287 287 287 287 287 287 285 284 283 282 282 283 283 283 282 280 279 278 278 277 277 277 277 277 277 276
287 287 287 287 287 287 286 285 284 283 285 286 286 287 286 287 287 286 286 285 286 286 284 282 280 279 279 279 279 278 277 277 277 277 277 276 276 276 276 275 275 275 275
286 286 285 285 285 285 284 283 283 282 282 282 282 284 285 285 285 285 285 286 284 281 279 278 276 276 275 275 275 275 275 275 275 275 275 275 275 274 274 274 274 274 274
284 284 284 284 284 284 284 283 283 283 283 284 284 283 283 283 283 284 283 282 280 277 275 275 275 275 275 275 275 275 274 274 274 274 274 274 273 273 273 273 273 273 273
282 283 283 283 283 283 283 283 282 282 282 283 282 282 281 281 281 280 278 277 275 274 274 274 274 274 274 274 273 273 273 273 273 273 273 272 273 272 272 272 272 272 272
281 281 282 281 281 282 282 281 281 281 281 280 280 279 278 277 276 275 275 275 274 274 274 274 273 273 273 273 273 272 272 272 272 272 272 272 272 271 271 271 271 271 271
280 279 279 280 280 280 280 280 279 279 278 277 275 275 274 274 274 274 273 273 273 273 273 273 272 272 272 272 272 272 272 272 272 271 271 271 271 270 270 270 270 270 270
277 277 277 278 278 276 276 277 275 274 274 273 273 273 273 273 273 272 272 272 272 272 272 271 271 271 271 271 271 271 271 271 271 271 271 270 270 270 269 269 269 270 269
274 274 274 274 273 273 272 272 272 272 272 271 271 271 271 271 271 271 271 271 271 271 271 271 271 270 270 270 270 270 270 270 270 270 270 270 269 269 269 268 269 268 269
272 272 272 271 271 271 271 271 270 270 270 270 270 270 270 270 270 270 270 270 270 270 270 270 270 270 270 270 270 270 270 269 269 269 269 269 269 268 268 268 268 268 267

GFSGL_850_thetae_105.txt.gz
Theta_e
329 328 330 330 331 330 327 326 324 322 325 323 322 324 323 322 323 323 322 321 322 322 322 323 322 321 321 321 320 319 319 318 316 316 316 316 317 317 316 316 315 316 315
327 327 328 330 329 329 326 325 325 324 324 322 322 322 321 322 322 322 322 322 321 322 321 320 321 321 320 319 319 319 319 318 316 316 316 314 314 315 316 316 318 318 317
327 326 327 329 328 328 326 323 325 324 325 323 321 322 321 321 321 322 323 323 322 322 321 320 320 319 318 318 318 318 319 317 316 317 318 318 318 317 317 315 315 317 318
326 325 327 327 326 326 325 323 323 322 325 326 323 321 321 321 322 321 320 320 320 319 319 318 317 317 317 317 317 317 317 317 316 317 316 316 317 317 317 317 317 318 318
323 324 325 325 325 324 324 322 322 322 323 321 320 321 322 321 320 323 321 321 320 321 320 320 319 319 318 318 318 317 317 317 316 315 315 316 316 316 317 316 316 316 317
323 323 323 324 323 321 322 321 321 321 323 320 321 320 320 320 321 320 321 322 322 322 321 321 319 318 318 318 317 317 317 318 317 317 317 317 317 317 317 318 317 318 318
321 322 322 321 321 321 320 321 321 320 320 320 319 320 320 321 320 320 319 319 320 320 319 319 319 319 319 319 318 319 319 318 318 318 318 318 318 318 317 318 318 318 318
315 315 317 319 320 320 320 320 320 320 319 319 320 319 319 319 319 318 318 318 318 319 319 319 320 320 320 320 319 319 319 319 318 317 317 317 316 315 316 315 315 314 314
306 303 305 312 315 316 318 318 318 320 320 320 320 319 319 319 319 319 319 319 318 318 318 319 319 319 319 320 319 318 317 317 316 316 315 315 315 314 314 314 313 312 312
304 303 301 305 309 309 311 312 313 316 314 314 316 316 317 317 318 319 320 319 319 318 318 318 318 316 317 317 316 316 314 313 313 312 311 311 311 310 310 309 308 306 304
301 301 299 302 305 306 305 309 308 308 308 308 308 307 307 309 311 313 313 315 314 313 309 310 310 311 311 311 311 311 311 309 307 306 304 302 300 301 300 299 299 299 299
300 301 303 305 305 305 306 306 303 302 304 304 305 304 303 303 305 306 307 308 308 307 307 306 305 304 304 305 305 304 303 301 300 299 297 296 296 295 293 292 292 293 293
299 299 299 302 301 302 302 302 302 301 301 301 302 301 301 301 300 300 301 301 301 303 302 300 299 298 297 297 296 295 295 295 295 294 293 292 291 290 290 290 289 289 289
292 295 295 298 299 299 299 297 298 296 295 294 294 295 294 295 294 294 295 295 295 295 294 293 293 293 294 293 293 292 292 292 291 291 290 288 288 288 288 287 286 286 285
289 290 290 290 292 293 294 294 293 293 293 292 292 292 292 292 291 291 292 291 291 290 290 290 290 289 289 289 289 288 288 288 288 287 285 284 283 283 283 282 282 281 281
287 287 287 287 287 286 287 289 290 290 290 290 290 290 290 289 289 289 289 289 288 287 287 287 285 284 284 284 284 284 285 284 282 282 281 281 281 280 281 280 280 280 279
287 286 286 285 285 285 285 284 286 286 288 289 289 289 289 288 288 287 287 288 287 286 286 283 282 282 281 281 280 280 280 280 280 279 279 279 279 279 279 279 279 279 278
285 286 285 285 284 284 284 284 283 283 285 286 286 286 286 286 286 285 283 284 284 283 281 280 280 279 279 279 279 278 278 278 277 277 277 277 277 277 277 277 277 277 277
284 283 283 284 285 284 284 283 282 282 281 281 281 283 284 284 284 285 285 283 280 279 279 278 278 277 277 277 276 276 276 276 276 276 276 276 276 276 276 276 276 275 276
282 283 281 281 282 281 281 281 281 280 280 280 281 280 279 280 282 281 280 277 277 277 276 276 275 275 275 275 275 275 275 275 275 275 274 274 274 275 275 275 274 275 275
281 280 280 280 280 280 280 280 279 279 278 278 281 280 278 277 276 275 275 275 275 274 274 274 273 273 273 273 273 273 273 273 273 273 273 273 273 273 273 273 273 274 273
279 279 279 279 279 279 278 278 278 278 277 276 275 276 275 274 274 273 273 272 272 272 272 272 272 273 273 273 272 272 272 272 273 272 272 272 272 272 272 272 272 272 273
278 278 278 278 277 277 277 277 277 276 275 275 274 273 273 272 272 272 271 271 271 272 272 272 272 272 272 272 272 272 272 272 272 272 272 271 270 271 271 271 271 271 271
276 276 276 276 276 276 276 275 275 274 274 274 273 272 272 271 270 271 271 271 271 272 272 272 272 272 271 272 272 272 272 272 272 272 271 271 270 269 269 270 270 270 270
274 275 275 275 275 275 274 274 273 273 272 272 272 271 270 270 270 270 270 271 271 271 271 271 271 271 271 271 271 271 271 271 271 271 271 270 269 269 268 269 268 268 269
273 273 273 273 273 273 273 272 272 271 271 270 270 270 269 269 269 269 270 271 270 270 270 271 270 270 270 270 270 270 270 270 270 270 269 269 268 268 267 267 268 267 268

GFSGL_850_thetae_108.txt.gz
Theta_e
331 334 335 335 332 333 332 329 327 327 326 323 323 323 324 323 324 323 322 323 323 322 322 323 323 321 322 322 322 321 320 320 319 318 317 316 317 316 317 317 317 316 316
333 333 333 332 331 332 330 328 327 326 322 320 324 325 323 325 324 323 322 321 322 322 322 322 322 322 322 322 321 322 322 322 320 319 319 317 316 316 315 315 316 316 317
329 330 331 330 330 331 329 327 326 322 322 324 323 324 323 322 322 322 322 323 322 321 321 322 322 321 321 321 320 320 320 320 320 319 319 318 317 316 316 315 316 316 316
325 326 327 329 330 329 327 326 324 323 322 322 321 321 321 321 321 321 322 322 321 322 321 321 321 319 319 319 318 318 318 318 318 319 318 317 317 316 317 318 318 317 317
324 325 326 327 329 328 326 326 323 321 321 321 320 321 321 323 320 320 321 321 321 320 319 320 320 319 317 317 317 317 317 317 316 316 316 317 316 317 316 315 316 316 317
322 324 325 327 326 326 325 324 322 321 320 320 320 320 320 321 319 320 320 319 319 319 320 319 318 318 317 317 318 318 318 318 318 319 317 317 316 316 316 316 316 317 318
315 319 322 323 324 324 323 322 321 321 320 320 319 320 322 321 320 320 320 321 321 320 320 320 320 319 319 319 318 317 317 318 317 317 318 318 318 317 317 318 318 318 318
306 309 313 317 320 321 321 321 320 320 320 319 320 319 320 320 320 319 319 319 319 319 320 320 320 319 320 320 320 319 319 318 318 318 318 318 318 318 318 318 317 317 316
302 303 305 305 308 312 314 318 319 319 319 319 319 319 319 320 319 319 319 318 318 318 318 318 319 318 319 319 318 318 317 317 317 317 317 317 317 316 316 316 315 313 313
300 301 302 303 303 303 304 301 307 313 314 314 315 314 315 318 319 319 319 318 318 317 317 316 317 318 318 318 317 317 314 314 313 313 313 311 311 310 310 309 309 307 305
300 299 301 300 302 303 302 300 299 304 303 305 308 307 308 308 309 310 312 313 312 313 310 309 309 310 311 313 312 311 313 310 308 307 304 304 302 301 302 301 302 301 300
298 300 300 299 300 301 301 300 298 299 302 301 304 308 307 304 306 304 306 306 305 305 306 304 304 302 303 305 304 305 303 301 300 300 299 298 297 297 296 295 294 293 293
296 296 297 298 299 300 300 299 300 301 299 299 300 299 298 300 302 298 299 300 300 303 301 299 299 297 296 297 295 295 295 295 296 296 296 294 293 292 291 290 289 289 289
292 293 294 294 296 297 298 298 298 296 295 297 296 295 294 293 294 295 295 294 295 294 291 291 292 292 293 293 292 293 293 292 291 290 289 288 288 288 287 286 286 285 285
290 289 289 291 291 292 294 293 293 292 291 291 290 292 291 291 289 289 290 290 289 287 287 289 290 290 290 289 289 288 287 286 286 284 283 283 283 283 283 283 282 281 281
287 287 287 287 287 288 288 288 288 289 290 290 290 289 289 287 287 287 286 286 286 286 288 286 284 284 284 284 285 286 286 286 285 284 284 283 282 282 281 280 280 280 279
285 285 286 286 286 286 285 285 286 286 287 288 287 286 285 284 284 284 285 285 285 286 287 284 282 282 282 282 282 283 282 282 281 281 281 280 280 279 279 279 279 279 278
284 283 284 284 284 284 284 284 283 283 284 284 284 285 285 285 284 284 284 285 285 284 283 282 281 281 280 281 280 280 280 279 278 278 278 278 278 278 277 277 276 277 277
283 283 283 283 283 283 283 282 282 282 282 281 281 282 282 283 284 284 284 284 282 281 280 279 278 278 277 277 277 276 276 276 276 277 277 276 277 276 276 276 277 276 276
281 282 282 282 282 282 282 282 281 281 282 282 281 280 279 281 283 282 281 280 279 278 277 277 276 276 276 276 276 276 276 276 276 276 275 275 275 275 275 275 274 274 274
280 281 281 281 280 280 280 280 280 279 280 281 280 279 278 279 279 278 277 276 276 275 275 275 275 275 275 275 275 274 275 275 274 274 273 274 273 273 273 273 274 273 273
279 279 279 279 279 279 279 279 278 278 277 277 277 276 275 275 275 275 274 274 274 274 274 274 274 274 274 274 274 274 274 274 273 273 273 272 273 273 273 272 272 272 272
277 278 278 278 278 277 277 277 277 276 276 275 275 274 274 273 273 273 273 273 273 273 273 273 273 273 273 273 273 273 273 273 273 272 272 272 272 271 271 271 271 271 271
276 276 276 276 276 276 276 276 275 275 274 274 273 273 272 271 271 271 271 271 271 271 272 272 272 271 271 272 272 272 272 272 272 272 271 271 271 271 271 271 270 270 270
275 275 275 275 275 275 275 274 274 273 273 273 272 272 271 270 270 270 271 271 271 271 271 271 271 271 271 271 271 271 271 271 271 270 270 270 270 269 269 269 269 269 269
272 273 273 273 273 273 273 273 273 272 272 271 271 270 270 270 269 269 270 270 270 270 270 270 270 270 270 270 270 270 270 270 270 270 269 269 270 269 269 269 269 269 268

GFSGL_850_thetae_111.txt.gz
Theta_e
325 329 331 330 332 332 333 333 332 332 328 327 324 324 325 325 324 323 323 323 324 323 323 323 323 323 322 322 321 321 321 322 322 320 319 318 318 317 318 318 315 317 317
332 332 330 330 330 331 331 333 332 329 328 327 325 323 323 323 323 323 323 323 323 324 323 323 322 323 324 323 322 321 320 322 321 320 320 320 320 319 317 316 317 317 318
328 329 330 329 330 330 331 332 330 328 327 326 324 321 324 323 322 322 322 323 320 322 322 322 320 321 321 322 321 321 322 322 322 321 320 321 320 319 318 317 316 315 316
324 325 329 330 330 329 330 331 329 327 327 324 320 321 323 321 322 323 323 322 321 322 321 321 322 320 321 321 322 321 321 321 320 320 320 319 319 319 319 316 316 316 316
322 324 325 325 329 329 330 329 328 326 324 323 321 321 320 321 320 320 321 321 322 321 321 321 320 321 320 319 318 318 319 318 318 318 318 317 316 317 317 317 317 317 317
314 320 323 325 327 328 327 326 326 324 322 321 321 320 320 319 319 319 319 319 319 319 319 318 318 318 316 316 316 316 316 316 316 316 316 316 316 317 316 316 316 316 316
306 308 315 320 324 325 325 325 323 322 322 321 320 320 320 319 319 319 319 319 319 319 318 318 318 318 318 317 316 317 318 317 318 318 318 318 317 316 317 317 317 317 316
303 304 307 310 312 315 321 322 322 321 321 320 320 320 320 319 319 319 319 320 321 320 320 320 320 320 319 319 319 318 317 318 318 318 317 317 318 317 317 317 317 316 316
302 301 303 305 305 306 307 310 314 320 319 319 320 320 319 320 320 320 320 319 319 320 319 319 320 320 320 319 319 319 319 319 318 318 318 317 317 317 317 316 315 315 312
300 300 302 304 303 302 302 303 302 300 306 301 307 308 315 317 318 319 319 319 319 319 318 317 318 319 318 318 318 318 317 315 314 314 314 314 313 313 314 313 311 310 309
298 300 301 301 301 300 300 302 301 301 303 302 303 302 306 308 309 309 314 316 315 314 312 311 311 311 313 314 313 312 312 311 310 309 305 305 305 304 305 305 304 304 303
295 297 299 300 300 300 300 299 300 300 300 301 302 302 302 303 303 304 306 307 306 305 304 302 302 302 305 305 305 304 300 305 302 302 299 299 299 298 299 299 298 297 296
293 294 295 296 297 297 298 300 300 299 299 300 300 301 298 297 298 299 299 299 301 302 301 299 298 298 297 299 301 298 296 298 298 297 296 296 296 294 293 292 292 291 291
288 290 291 293 293 294 295 295 296 296 295 295 296 296 296 294 294 294 295 296 295 296 293 292 293 294 294 293 293 293 293 293 293 293 292 291 289 289 289 289 289 289 288
288 287 287 288 288 290 291 291 291 291 291 291 290 291 290 289 288 289 291 290 292 292 293 291 290 289 289 289 289 289 288 289 289 287 287 286 286 286 286 285 284 283 283
287 286 286 286 286 286 286 287 287 287 287 287 287 288 286 286 286 287 288 287 287 287 289 288 288 287 287 287 286 285 285 285 284 284 284 284 284 283 282 281 280 280 280
284 285 285 285 285 285 285 285 286 285 286 286 286 285 285 284 285 286 286 286 286 286 287 285 284 284 284 283 283 283 283 283 283 282 282 281 280 280 280 280 279 279 278
283 283 283 283 284 284 283 283 283 284 284 283 283 283 283 283 284 284 284 285 285 285 284 284 283 283 282 282 281 281 280 279 279 279 279 279 279 279 278 277 278 278 277
282 282 282 282 282 282 282 282 282 282 282 281 281 282 282 283 283 283 283 284 283 282 281 281 280 279 278 278 277 277 277 278 277 277 277 277 277 277 277 277 277 276 276
280 280 281 281 281 281 281 281 281 282 281 281 280 281 281 281 282 281 281 280 279 278 277 277 277 277 276 276 276 276 276 276 276 276 275 276 275 276 275 275 275 275 275
280 280 279 280 280 280 279 279 279 279 280 279 279 278 279 280 280 279 278 278 277 277 276 276 275 275 275 275 276 275 275 275 275 275 274 274 274 274 274 274 274 274 274
278 278 278 278 278 278 278 278 277 277 277 277 277 276 276 276 276 275 275 275 275 275 275 274 274 274 274 274 274 274 274 274 274 274 273 274 274 273 273 273 273 272 273
277 277 276 277 277 277 277 277 276 276 275 275 274 274 274 273 273 273 273 273 273 273 273 273 273 273 273 273 273 273 273 273 272 272 272 272 273 272 272 272 272 271 271
276 276 276 276 275 275 275 275 275 275 274 273 273 272 272 272 272 271 271 272 272 272 272 272 271 272 272 272 272 272 272 272 272 271 271 271 271 271 271 271 271 270 270
274 274 274 274 274 274 274 274 273 273 273 272 272 271 271 271 271 271 270 270 271 271 271 271 271 271 271 271 271 271 271 271 271 271 271 271 270 271 270 270 270 269 269
272 272 272 272 273 273 273 272 272 272 271 271 271 270 270 270 270 270 270 270 270 270 271 270 270 271 271 271 271 270 270 270 270 270 270 269 269 269 269 269 269 269 268

GFSGL_850_thetae_117.txt.gz
Theta_e
323 326 328 328 327 325 328 330 328 331 330 329 328 331 331 330 329 328 325 323 322 323 324 323 323 321 322 323 322 322 322 320 319 319 319 319 318 317 316 318 317 317 318
318 322 325 329 329 330 326 326 328 328 329 329 328 329 330 329 328 327 324 323 322 323 323 322 322 321 323 322 322 322 321 321 320 320 319 319 319 318 319 319 319 320 318
314 319 323 326 327 329 332 328 327 328 328 329 328 330 330 329 327 327 323 322 322 322 322 322 323 323 323 321 321 321 322 322 320 320 320 319 320 321 321 320 319 320 318
310 314 319 323 325 327 328 330 330 329 329 327 328 328 329 326 324 324 322 322 323 322 321 321 321 323 323 322 322 322 322 322 322 321 321 321 321 321 321 321 319 319 319
306 309 312 314 320 323 327 329 328 328 328 327 327 328 327 327 324 323 322 321 322 322 322 323 322 323 323 321 321 322 322 322 321 321 321 321 320 321 320 320 319 319 319
303 304 306 310 314 318 322 324 325 325 326 328 327 328 327 326 324 322 321 321 322 322 322 322 323 320 320 321 321 319 319 320 320 320 321 321 320 320 319 319 319 319 317
301 302 303 304 306 309 312 316 320 321 324 325 326 325 325 324 322 321 320 321 321 322 322 322 320 320 321 321 320 320 320 319 318 318 318 318 318 318 318 316 316 316 316
300 300 300 301 301 303 306 307 309 308 308 316 321 322 322 321 321 320 320 321 320 320 320 319 321 321 320 320 319 318 317 317 317 316 316 316 317 317 316 316 316 316 316
298 298 299 299 299 300 301 302 303 304 306 305 304 316 314 320 320 321 320 320 319 319 319 320 319 319 318 318 317 316 316 316 316 315 315 315 316 317 317 318 317 317 315
294 296 298 299 299 298 298 299 300 301 302 303 304 305 305 306 314 319 319 319 319 318 318 318 318 318 317 317 317 318 317 316 316 316 316 317 317 317 317 316 316 317 316
291 294 296 298 298 298 298 298 299 299 299 300 302 303 304 304 303 305 307 308 311 312 312 315 316 317 316 317 317 318 317 317 316 314 313 314 314 314 314 313 312 310 309
290 292 293 294 295 296 297 297 298 298 298 297 298 300 301 302 302 302 301 302 302 304 304 303 304 303 307 309 309 311 311 310 307 307 306 305 304 303 304 304 304 304 302
289 289 290 290 292 294 295 296 296 296 296 296 295 294 293 296 297 297 299 300 299 300 301 301 300 300 301 303 301 300 304 302 303 303 301 301 300 299 298 299 299 299 299
287 287 287 288 289 290 291 292 292 291 291 291 291 290 291 291 290 292 293 294 295 296 295 296 297 297 298 297 297 296 295 296 297 297 297 296 297 295 293 291 291 290 291
286 285 286 286 286 286 287 287 286 286 286 287 287 289 289 288 287 289 290 291 291 292 293 293 293 294 294 293 293 294 294 293 294 293 293 293 290 289 289 288 288 288 288
284 285 284 284 284 284 285 285 285 285 285 285 285 285 285 286 286 287 287 288 288 288 290 291 290 290 291 290 289 289 289 288 287 286 286 286 287 288 288 287 285 283 283
283 283 283 283 283 283 283 283 284 284 284 284 284 285 285 285 285 285 285 286 287 287 288 287 287 287 286 286 286 286 287 286 285 285 285 284 283 283 282 282 282 281 280
282 282 282 282 282 282 282 282 282 282 282 283 283 283 283 283 284 284 284 283 285 285 284 284 284 283 283 283 283 283 283 283 283 282 282 281 281 280 280 280 279 279 278
280 280 280 280 280 280 280 281 281 281 281 281 281 281 281 281 281 282 281 282 282 281 280 280 279 279 279 279 279 279 279 279 279 279 279 279 278 278 278 278 278 277 277
278 279 279 279 279 279 279 279 279 279 279 279 279 279 279 279 280 280 280 279 279 278 278 277 277 277 277 277 276 276 276 276 277 277 277 277 277 276 276 276 276 276 276
277 277 277 277 277 277 277 277 277 277 277 277 277 277 277 277 277 277 277 277 276 276 276 275 275 275 275 275 275 275 275 275 275 275 275 275 275 275 275 275 274 275 275
276 276 276 276 276 276 276 276 275 275 275 275 274 274 273 274 274 274 273 274 274 274 274 274 274 274 274 274 274 274 274 274 273 274 274 274 274 274 274 273 273 273 273
274 274 274 274 275 275 275 275 274 274 274 273 273 272 272 272 272 271 271 271 271 272 272 272 272 272 272 272 272 272 272 272 272 272 272 272 272 272 272 272 272 272 272
272 272 273 273 273 273 273 273 273 273 272 272 271 271 271 271 270 270 270 270 270 270 271 271 271 271 271 271 271 271 271 271 271 271 271 271 271 271 271 271 271 271 271
271 271 271 271 272 271 271 271 271 271 271 271 270 270 270 269 269 269 269 269 269 269 269 270 270 270 270 270 271 271 271 271 271 271 271 271 270 270 270 270 270 270 270
270 270 270 270 270 270 270 270 269 269 269 269 269 269 269 269 268 268 268 268 268 268 269 269 269 269 269 269 270 270 270 270 270 270 270 270 270 270 269 269 269 269 269

GFSGL_850_thetae_120.txt.gz
Theta_e
320 321 323 325 326 326 327 328 332 333 331 330 330 330 330 330 330 332 331 328 327 325 321 321 322 322 321 322 321 321 322 323 322 322 321 320 319 318 316 314 318 319 320
316 318 322 323 323 327 330 330 331 332 331 331 330 330 330 329 329 330 331 328 327 324 322 321 321 322 322 322 321 320 321 322 322 322 321 319 319 319 316 317 319 319 319
312 315 317 321 323 324 326 326 328 331 330 328 328 327 327 328 327 329 330 329 326 324 321 322 321 323 323 323 321 322 322 322 322 321 320 319 319 319 318 318 318 317 319
306 309 314 315 317 321 323 325 326 327 328 329 328 326 326 327 327 328 328 326 326 323 322 322 322 322 322 322 322 322 322 321 321 321 320 320 320 319 319 320 320 320 320
302 304 305 308 311 314 317 322 324 325 326 327 328 329 329 326 326 327 328 327 326 323 322 322 321 321 321 322 322 322 320 321 321 321 321 321 320 321 320 320 320 320 320
301 301 301 303 305 308 310 314 317 320 324 325 325 325 326 326 327 328 325 324 322 321 321 322 322 322 322 322 322 322 322 320 321 321 321 321 320 320 321 320 320 320 318
299 300 301 301 301 302 305 308 311 312 314 316 321 323 323 322 326 325 325 323 322 320 320 320 322 321 321 321 320 319 321 320 319 319 320 320 320 320 320 320 319 319 319
298 299 299 299 300 301 301 302 304 305 307 308 310 307 312 313 323 324 324 322 321 321 322 322 322 321 322 318 321 320 320 319 320 319 319 318 318 317 318 318 318 318 317
295 296 298 299 299 299 300 300 300 301 303 303 304 306 306 308 315 316 321 321 320 321 321 321 321 321 320 321 320 318 320 319 318 318 318 317 316 316 315 317 316 316 316
290 292 294 296 298 298 298 298 299 299 299 300 301 302 303 306 307 306 312 317 314 319 319 320 320 320 318 319 319 318 318 318 317 316 315 315 316 315 316 316 316 317 316
288 289 291 293 294 295 296 297 298 299 299 299 299 299 300 300 300 301 302 304 305 302 305 309 311 315 317 317 318 317 317 317 316 315 314 315 314 315 315 316 316 315 314
288 289 289 290 291 292 294 294 294 296 296 296 295 296 296 296 296 297 298 301 300 301 302 302 303 304 305 305 313 313 311 309 309 309 308 309 309 308 310 310 310 310 308
287 287 288 288 289 290 291 291 293 292 292 291 291 291 291 291 292 292 293 296 296 297 297 297 298 300 301 301 301 302 302 302 300 300 300 300 299 300 300 302 301 302 302
286 286 286 287 287 287 288 287 288 288 288 288 288 288 288 289 289 290 290 291 292 292 293 294 295 296 297 296 296 296 296 297 297 297 296 294 293 294 294 295 296 296 298
284 284 284 284 284 284 285 285 284 284 284 285 284 285 285 285 285 286 288 289 290 290 291 292 292 292 292 292 292 292 292 292 292 291 292 292 291 287 288 287 287 287 289
283 283 282 283 283 283 283 283 283 283 283 284 283 284 284 284 285 285 286 287 288 288 290 290 289 289 288 287 288 288 289 289 288 288 287 287 287 287 288 286 285 284 284
281 281 282 282 282 282 282 282 282 282 282 282 283 283 283 284 284 284 284 284 285 286 287 286 286 285 285 285 285 285 285 285 285 285 285 285 285 284 283 282 281 280 280
279 280 280 280 280 280 281 280 281 281 280 281 281 281 281 281 281 282 282 282 284 283 283 283 283 282 282 283 283 283 282 282 283 283 283 283 282 282 281 280 279 279 279
278 278 278 278 278 279 279 279 279 279 279 279 279 280 280 279 279 280 281 282 280 280 279 279 278 278 278 278 278 278 278 279 279 279 279 278 278 278 278 278 278 278 278
276 276 277 277 277 277 277 277 277 277 276 277 277 277 277 278 279 279 279 278 278 278 277 277 277 277 277 277 277 276 276 277 277 277 277 277 277 277 277 277 277 276 276
275 275 275 275 276 276 276 276 275 275 275 274 274 273 273 274 274 274 274 275 275 275 275 275 275 275 275 275 275 275 275 275 275 275 275 275 275 275 275 275 275 275 275
273 273 273 274 274 275 275 274 274 274 273 273 272 272 272 272 272 272 272 272 273 273 273 273 273 273 273 273 273 274 274 274 274 274 274 274 274 274 274 274 274 273 273
273 272 272 273 273 273 273 273 273 273 272 272 271 271 271 270 270 270 270 270 271 271 271 271 271 271 272 272 272 272 272 272 272 272 272 272 272 272 272 272 272 272 272
272 271 271 271 271 272 272 272 271 271 271 271 270 270 270 269 269 269 269 269 269 270 270 270 270 271 271 271 271 271 271 271 271 271 271 271 271 271 271 271 271 271 271
271 271 270 270 270 270 270 270 270 270 270 269 269 269 269 268 268 268 268 268 268 268 268 269 269 269 270 270 270 270 270 270 270 270 270 270 270 270 270 270 270 270 270
270 270 269 269 269 269 269 269 268 268 268 268 268 268 268 268 267 267 267 267 267 267 268 268 268 268 269 269 269 269 269 269 270 270 270 269 269 269 269 269 269 269 269

GFSGL_850_thetae_123.txt.gz
Theta_e
317 318 318 321 322 323 324 325 326 328 331 333 333 332 329 325 327 328 329 329 331 331 329 328 327 325 323 322 323 321 322 322 322 322 322 322 323 319 318 318 318 316 312
313 315 318 319 321 322 323 324 327 328 327 330 332 333 331 324 326 328 329 329 330 331 330 328 328 325 319 321 322 321 322 321 321 322 322 321 320 319 319 318 318 318 317
306 309 312 314 316 317 321 323 324 326 327 327 327 329 330 330 329 328 329 328 327 329 330 328 328 322 319 321 321 320 321 321 321 321 321 322 320 320 319 319 319 315 315
303 305 306 307 309 312 314 318 321 324 326 326 326 325 327 328 331 330 328 327 327 327 330 327 327 321 321 321 321 321 322 321 321 321 321 321 321 320 319 319 318 317 318
301 302 302 303 305 307 310 313 315 318 320 322 323 324 325 325 324 325 325 328 328 327 330 328 324 322 321 321 322 322 322 321 321 321 321 321 320 319 320 320 319 319 318
300 300 300 301 302 303 304 306 308 312 314 316 318 319 319 321 324 325 325 326 326 326 328 327 322 321 321 321 321 321 321 322 322 320 321 321 320 320 321 319 319 319 320
298 299 300 300 301 301 301 303 304 304 306 308 309 311 312 313 319 324 322 325 324 325 326 325 321 321 321 321 321 322 321 322 322 321 320 320 321 320 321 321 320 320 320
296 297 298 299 300 300 299 300 301 302 302 303 304 305 306 309 312 318 320 321 322 322 323 323 322 321 321 322 322 321 320 321 320 321 321 320 319 319 320 320 320 319 319
292 293 295 297 298 298 299 298 299 299 299 299 301 302 302 302 304 311 313 315 319 318 321 321 321 322 321 321 322 322 320 320 320 320 319 320 320 319 319 318 317 318 318
289 291 292 293 295 295 296 296 296 297 297 297 297 297 298 299 298 299 302 306 307 307 304 311 320 319 321 321 319 320 319 319 320 319 319 319 319 318 317 316 318 316 317
288 289 291 291 292 292 293 294 294 294 295 295 294 294 295 296 296 298 298 300 300 303 305 304 305 308 314 316 318 318 319 319 318 318 318 317 316 315 315 316 316 316 316
287 287 289 289 289 289 290 291 291 291 292 292 292 293 292 292 293 295 296 296 296 298 298 298 300 303 304 304 307 307 309 309 310 310 311 312 311 312 313 313 313 312 313
286 286 286 286 287 287 288 288 288 288 288 288 288 288 289 290 290 291 292 292 293 294 294 294 295 296 297 299 301 299 301 301 301 303 301 301 300 302 303 304 305 304 303
284 284 284 284 285 285 286 285 285 285 285 285 285 286 286 287 289 289 290 291 291 291 292 293 293 294 294 294 294 294 295 295 296 296 297 297 295 295 296 295 297 296 297
281 282 283 283 283 283 283 283 283 283 283 283 283 284 284 285 284 285 287 288 289 289 290 290 291 291 291 291 291 291 291 291 292 291 291 291 292 292 292 292 292 293 294
280 280 280 281 281 282 282 282 282 282 282 283 283 283 283 283 284 285 285 285 286 287 288 289 288 287 287 287 287 287 288 288 288 288 288 288 288 289 289 289 287 289 289
279 279 279 279 279 279 280 281 281 281 281 282 282 282 282 283 283 283 283 283 284 285 286 285 284 284 284 284 284 285 285 285 285 286 286 286 286 286 286 286 285 285 286
278 278 278 278 278 278 278 278 279 279 280 280 280 280 281 281 281 281 281 282 283 282 281 281 281 281 281 282 282 282 282 282 283 283 283 283 283 284 283 283 282 282 282
276 276 276 276 276 276 277 276 276 276 277 277 277 278 278 278 278 279 279 280 279 279 279 278 278 277 277 277 277 278 278 278 279 279 279 279 279 278 278 278 278 278 278
275 275 274 275 275 275 275 275 275 275 275 274 274 274 274 275 276 276 276 276 276 276 275 275 276 276 276 276 276 276 276 277 277 277 277 277 277 277 277 277 277 277 277
274 274 274 274 274 274 274 274 274 273 273 273 272 272 272 272 272 272 272 273 273 273 273 273 274 274 274 274 274 274 275 275 275 275 275 275 275 275 275 275 275 275 275
273 273 273 273 273 273 273 273 273 272 272 272 271 271 271 271 271 271 270 271 271 271 271 272 272 272 272 273 273 273 273 273 274 274 274 274 274 274 274 274 274 274 274
273 273 272 272 272 272 272 272 272 271 271 271 270 270 270 270 270 269 269 269 269 269 270 270 270 270 271 271 271 271 272 272 272 272 272 272 272 272 272 272 272 272 272
272 272 271 271 271 270 270 270 270 270 270 270 269 269 269 269 269 268 268 268 268 269 269 269 269 269 270 270 270 270 271 271 271 271 271 271 271 271 271 271 271 271 271
271 270 270 270 269 269 269 269 269 269 269 269 268 268 268 268 268 268 267 267 267 268 268 268 268 269 269 269 269 270 270 270 270 270 270 270 270 270 271 271 270 270 270
270 269 269 269 268 268 268 268 268 268 268 267 267 267 267 267 267 267 267 267 266 267 267 267 267 268 268 268 269 269 269 269 269 270 270 269 270 269 269 269 269 269 269